[[{"header":{"parameterUnit":"m.s-1","parameterCategory":1,"la1":30.6,"la2":28.766,"lo1":-90.7593,"lo2":-88.6598,"dy":0.0162,"dx":0.0183,"nx":116,"ny":114,"refTime":"2024-06-15T00:00:00:Z","depth":0,"parameterNumber":2,"parameterNumberName":"U-component_of_WINDS"},"data":[0.0,0.0,0.0,0.0,0.0,0.0,0.0,0.0,0.0,0.0,0.0,0.0,0.0,0.0,0.0,0.0,0.0,0.0,0.0,0.0,0.0,0.0,0.0,0.0,0.0,0.0,0.0,0.0,0.0,0.0,0.0,0.0,0.0,0.0,0.0,0.0,0.0,0.0,0.0,0.0,0.0,0.0,0.0,0.0,0.0,0.0,0.0,0.0,0.0,0.0,0.0,0.0,0.0,0.0,0.0,0.0,0.0,0.0,0.0,0.0,0.0,0.0,0.0,0.0,0.0,0.0,0.0,0.0,0.0,0.0,0.0,0.0,0.0,0.0,0.0,0.0,0.0,0.0,0.0,0.0,0.0,0.0,0.0,0.0,0.0,0.0,0.0,0.0,0.0,0.0,0.0,0.0,0.0,0.0,0.0,0.0,0.0,0.0,0.0,0.0,0.0,0.0,0.0,0.0,0.0,0.0,0.0,0.0,0.0,0.0,0.0,0.0,0.0,0.0,0.0,0.0,0.0,0.0,0.0,0.0,0.0,0.0,0.0,0.0,0.0,0.0,0.0,0.0,0.0,0.0,0.0,0.0,0.0,0.0,0.0,0.0,0.0,0.0,0.0,0.0,0.0,0.0,0.0,0.0,0.0,0.0,0.0,0.0,0.0,0.0,0.0,0.0,0.0,0.0,0.0,0.0,0.0,0.0,0.0,0.0,0.0,0.0,0.0,0.0,0.0,0.0,0.0,0.0,0.0,0.0,0.0,0.0,0.0,0.0,0.0,0.0,0.0,0.0,0.0,0.0,0.0,0.0,0.0,0.0,0.0,0.0,0.0,0.0,0.0,0.0,0.0,0.0,0.0,0.0,0.0,0.0,0.0,0.0,0.0,0.0,0.0,0.0,0.0,0.0,0.0,0.0,0.0,0.0,0.0,0.0,0.0,0.0,0.0,0.0,0.0,0.0,0.0,0.0,0.0,0.0,0.0,0.0,0.0,0.0,0.0,0.0,0.0,0.0,0.0,0.0,0.0,0.0,0.0,0.0,0.0,0.0,0.0,0.0,0.0,0.0,0.0,0.0,0.0,0.0,0.0,0.0,0.0,0.0,0.0,0.0,0.0,0.0,0.0,0.0,0.0,0.0,0.0,0.0,0.0,0.0,0.0,0.0,0.0,0.0,0.0,0.0,0.0,0.0,0.0,0.0,0.0,0.0,0.0,0.0,0.0,0.0,0.0,0.0,0.0,0.0,0.0,0.0,0.0,0.0,0.0,0.0,0.0,0.0,0.0,0.0,0.0,0.0,0.0,0.0,0.0,0.0,0.0,0.0,0.0,0.0,0.0,0.0,0.0,0.0,0.0,0.0,0.0,0.0,0.0,0.0,0.0,0.0,0.0,0.0,0.0,0.0,0.0,0.0,0.0,0.0,0.0,0.0,0.0,0.0,0.0,0.0,0.0,0.0,0.0,0.0,0.0,0.0,0.0,0.0,0.0,0.0,0.0,0.0,0.0,0.0,0.0,0.0,0.0,0.0,0.0,0.0,0.0,0.0,0.0,0.0,0.0,0.0,0.0,0.0,0.0,0.0,0.0,0.0,0.0,0.0,0.0,0.0,0.0,0.0,0.0,0.0,0.0,0.0,0.0,0.0,0.0,0.0,0.0,0.0,0.0,0.0,0.0,0.0,0.0,0.0,0.0,0.0,0.0,0.0,0.0,0.0,0.0,0.0,0.0,0.0,0.0,0.0,0.0,0.0,0.0,0.0,0.0,0.0,0.0,0.0,0.0,0.0,0.0,0.0,0.0,0.0,0.0,0.0,0.0,0.0,0.0,0.0,0.0,0.0,0.0,0.0,0.0,0.0,0.0,0.0,0.0,0.0,0.0,0.0,0.0,0.0,0.0,0.0,0.0,0.0,0.0,0.0,0.0,0.0,0.0,0.0,0.0,0.0,0.0,0.0,0.0,0.0,0.0,0.0,0.0,0.0,0.0,0.0,0.0,0.0,0.0,0.0,0.0,0.0,0.0,0.0,0.0,0.0,0.0,0.0,0.0,0.0,0.0,0.0,0.0,0.0,0.0,0.0,0.0,0.0,0.0,0.0,0.0,0.0,0.0,0.0,0.0,0.0,0.0,0.0,0.0,0.0,0.0,0.0,0.0,0.0,0.0,0.0,0.0,0.0,0.0,0.0,0.0,0.0,0.0,0.0,0.0,0.0,0.0,0.0,0.0,0.0,0.0,0.0,0.0,0.0,0.0,0.0,0.0,0.0,0.0,0.0,0.0,0.0,0.0,0.0,0.0,0.0,0.0,0.0,0.0,0.0,0.0,0.0,0.0,0.0,0.0,0.0,0.0,0.0,0.0,0.0,0.0,0.0,0.0,0.0,0.0,0.0,0.0,0.0,0.0,0.0,0.0,0.0,0.0,0.0,0.0,0.0,0.0,0.0,0.0,0.0,0.0,0.0,0.0,0.0,0.0,0.0,0.0,0.0,0.0,0.0,0.0,0.0,0.0,0.0,0.0,0.0,0.0,0.0,0.0,0.0,0.0,0.0,0.0,0.0,0.0,0.0,0.0,0.0,0.0,0.0,0.0,0.0,0.0,0.0,0.0,0.0,0.0,0.0,0.0,0.0,0.0,0.0,0.0,0.0,0.0,0.0,0.0,0.0,0.0,0.0,0.0,0.0,0.0,0.0,0.0,0.0,0.0,0.0,0.0,0.0,0.0,0.0,0.0,0.0,0.0,0.0,0.0,0.0,0.0,0.0,0.0,0.0,0.0,0.0,0.0,0.0,0.0,0.0,0.0,0.0,0.0,0.0,0.0,0.0,0.0,0.0,0.0,0.0,0.0,0.0,0.0,0.0,0.0,0.0,0.0,0.0,0.0,0.0,0.0,0.0,0.0,0.0,0.0,0.0,0.0,0.0,0.0,0.0,0.0,0.0,0.0,0.0,0.0,0.0,0.0,0.0,0.0,0.0,0.0,0.0,0.0,0.0,0.0,0.0,0.0,0.0,0.0,0.0,0.0,0.0,0.0,0.0,0.0,0.0,0.0,0.0,0.0,0.0,0.0,0.0,0.0,0.0,0.0,0.0,0.0,0.0,0.0,0.0,0.0,0.0,0.0,0.0,0.0,0.0,0.0,0.0,0.0,0.0,0.0,0.0,0.0,0.0,0.0,0.0,0.0,0.0,0.0,0.0,0.0,0.0,0.0,0.0,0.0,0.0,0.0,0.0,0.0,0.0,0.0,0.0,0.0,0.0,0.0,0.0,0.0,0.0,0.0,0.0,0.0,0.0,0.0,0.0,0.0,0.0,0.0,0.0,0.0,0.0,0.0,0.0,0.0,0.0,0.0,0.0,0.0,0.0,0.0,0.0,0.0,0.0,0.0,0.0,0.0,0.0,0.0,0.0,0.0,0.0,0.0,0.0,0.0,0.0,0.0,0.0,0.0,0.0,0.0,0.0,0.0,0.0,0.0,0.0,0.0,0.0,0.0,0.0,0.0,0.0,0.0,0.0,0.0,0.0,0.0,0.0,0.0,0.0,0.0,0.0,0.0,0.0,0.0,0.0,0.0,0.0,0.0,0.0,0.0,0.0,0.0,0.0,0.0,0.0,0.0,0.0,0.0,0.0,0.0,0.0,0.0,0.0,0.0,0.0,0.0,0.0,0.0,0.0,0.0,0.0,0.0,0.0,0.0,0.0,0.0,0.0,0.0,0.0,0.0,0.0,0.0,0.0,0.0,0.0,0.0,0.0,0.0,0.0,0.0,0.0,0.0,0.0,0.0,0.0,0.0,0.0,0.0,0.0,0.0,0.0,0.0,0.0,0.0,0.0,0.0,0.0,0.0,0.0,0.0,0.0,0.0,0.0,0.0,0.0,0.0,0.0,0.0,0.0,0.0,0.0,0.0,0.0,0.0,0.0,0.0,0.0,0.0,0.0,0.0,0.0,0.0,0.0,0.0,0.0,0.0,0.0,0.0,0.0,0.0,0.0,0.0,0.0,0.0,0.0,0.0,0.0,0.0,0.0,0.0,0.0,0.0,0.0,0.0,0.0,0.0,0.0,0.0,0.0,0.0,0.0,0.0,0.0,0.0,0.0,0.0,0.0,0.0,0.0,0.0,0.0,0.0,0.0,0.0,0.0,0.0,0.0,0.0,0.0,0.0,0.0,0.0,0.0,0.0,0.0,0.0,0.0,0.0,0.0,0.0,0.0,0.0,0.0,0.0,0.0,0.0,0.0,0.0,0.0,0.0,0.0,0.0,0.0,0.0,0.0,0.0,0.0,0.0,0.0,0.0,0.0,0.0,0.0,0.0,0.0,0.0,0.0,0.0,0.0,0.0,0.0,0.0,0.0,0.0,0.0,0.0,0.0,0.0,0.0,0.0,0.0,0.0,0.0,0.0,0.0,0.0,0.0,0.0,0.0,0.0,0.0,0.0,0.0,0.0,0.0,0.0,0.0,0.0,0.0,0.0,0.0,0.0,0.0,0.0,0.0,0.0,0.0,0.0,0.0,0.0,0.0,0.0,0.0,0.0,0.0,0.0,0.0,0.0,0.0,0.0,0.0,0.0,0.0,0.0,0.0,0.0,0.0,0.0,0.0,0.0,0.0,0.0,0.0,0.0,0.0,0.0,0.0,0.0,0.0,0.0,0.0,0.0,0.0,0.0,0.0,0.0,0.0,0.0,0.0,0.0,0.0,0.0,0.0,0.0,0.0,0.0,0.0,0.0,0.0,0.0,0.0,0.0,0.0,0.0,0.0,0.0,0.0,0.0,0.0,0.0,0.0,0.0,0.0,0.0,0.0,0.0,0.0,0.0,0.0,0.0,0.0,0.0,0.0,0.0,0.0,0.0,0.0,0.0,0.0,0.0,0.0,0.0,0.0,0.0,0.0,0.0,0.0,0.0,0.0,0.0,0.0,0.0,0.0,0.0,0.0,0.0,0.0,0.0,0.0,0.0,0.0,0.0,0.0,0.0,0.0,0.0,0.0,0.0,0.0,0.0,0.0,0.0,0.0,0.0,0.0,0.0,0.0,0.0,0.0,0.0,0.0,0.0,0.0,0.0,0.0,0.0,0.0,0.0,0.0,0.0,0.0,0.0,0.0,0.0,0.0,0.0,0.0,0.0,0.0,0.0,0.0,0.0,0.0,0.0,0.0,0.0,0.0,0.0,0.0,0.0,0.0,0.0,0.0,0.0,0.0,0.0,0.0,0.0,0.0,0.0,0.0,0.0,0.0,0.0,0.0,0.0,0.0,0.0,0.0,0.0,0.0,0.0,0.0,0.0,0.0,0.0,0.0,0.0,0.0,0.0,0.0,0.0,0.0,0.0,0.0,0.0,0.0,0.0,0.0,0.0,0.0,0.0,0.0,0.0,0.0,0.0,0.0,0.0,0.0,0.0,0.0,0.0,0.0,0.0,0.0,0.0,0.0,0.0,0.0,0.0,0.0,0.0,0.0,0.0,0.0,0.0,0.0,0.0,0.0,0.0,0.0,0.0,0.0,0.0,0.0,0.0,0.0,0.0,0.0,0.0,0.0,0.0,0.0,0.0,0.0,0.0,0.0,0.0,0.0,0.0,0.0,0.0,0.0,0.0,0.0,0.0,0.0,0.0,0.0,0.0,0.0,0.0,0.0,0.0,0.0,0.0,0.0,0.0,0.0,0.0,0.0,0.0,0.0,0.0,0.0,0.0,0.0,0.0,0.0,0.0,0.0,0.0,0.0,0.0,0.0,0.0,0.0,0.0,0.0,0.0,0.0,0.0,0.0,0.0,0.0,0.0,0.0,0.0,0.0,0.0,0.0,0.0,0.0,0.0,0.0,0.0,0.0,0.0,0.0,0.0,0.0,0.0,0.0,0.0,0.0,0.0,0.0,0.0,0.0,0.0,0.0,0.0,0.0,0.0,0.0,0.0,0.0,0.0,0.0,0.0,0.0,0.0,0.0,0.0,0.0,0.0,0.0,0.0,0.0,0.0,0.0,0.0,0.0,0.0,0.0,0.0,0.0,0.0,0.0,0.0,0.0,0.0,0.0,0.0,0.0,0.0,0.0,0.0,0.0,0.0,0.0,0.0,0.0,0.0,0.0,0.0,0.0,0.0,0.0,0.0,0.0,-2.2934,0.0,0.0,0.0,0.0,0.0,0.0,0.0,0.0,0.0,0.0,0.0,0.0,0.0,0.0,0.0,0.0,0.0,0.0,0.0,0.0,0.0,0.0,0.0,0.0,-1.1489,-1.1726,-1.1843,-1.1851,-1.2013,-1.2378,-1.23,-1.233,-1.2598,-1.265,-1.2596,-1.2312,-1.2559,-1.2593,-1.2338,-1.2463,-1.2373,-1.2033,-1.2316,-1.2517,-1.27,0.0,0.0,0.0,0.0,0.0,0.0,0.0,0.0,0.0,0.0,0.0,0.0,0.0,0.0,0.0,0.0,0.0,0.0,0.0,0.0,0.0,0.0,0.0,0.0,0.0,0.0,0.0,0.0,0.0,0.0,0.0,0.0,0.0,0.0,0.0,0.0,0.0,0.0,0.0,0.0,0.0,0.0,0.0,0.0,0.0,0.0,0.0,0.0,0.0,0.0,0.0,0.0,0.0,0.0,0.0,0.0,0.0,0.0,0.0,0.0,0.0,0.0,0.0,0.0,0.0,0.0,0.0,0.0,0.0,0.0,0.0,-2.3964,0.0,0.0,0.0,0.0,0.0,0.0,0.0,0.0,0.0,0.0,0.0,0.0,0.0,0.0,0.0,0.0,0.0,0.0,0.0,0.0,0.0,-1.0453,-1.0867,-1.1313,-1.1638,-1.178,-1.1972,-1.221,-1.2508,-1.2508,-1.2536,-1.2597,-1.2583,-1.2458,-1.2195,-1.2292,-1.2215,-1.1931,-1.2057,-1.2003,-1.1775,-1.1775,-1.1917,-1.2203,-1.1909,0.0,0.0,0.0,0.0,0.0,0.0,0.0,0.0,0.0,0.0,0.0,0.0,0.0,0.0,0.0,0.0,0.0,0.0,0.0,0.0,0.0,0.0,0.0,0.0,0.0,0.0,0.0,0.0,0.0,0.0,0.0,0.0,0.0,0.0,0.0,0.0,0.0,0.0,0.0,0.0,0.0,0.0,0.0,0.0,0.0,0.0,0.0,0.0,0.0,0.0,0.0,0.0,0.0,0.0,0.0,0.0,0.0,0.0,0.0,0.0,0.0,0.0,0.0,-2.6004,-2.66,-2.6682,-2.7135,-2.7369,-2.7261,-2.6056,-2.5471,-2.5344,-2.481,0.0,0.0,0.0,0.0,0.0,0.0,0.0,0.0,0.0,0.0,0.0,0.0,0.0,0.0,0.0,0.0,0.0,0.0,0.0,-1.0453,-1.0867,-1.1313,-1.1638,-1.178,-1.1972,-1.2135,-1.2172,-1.2172,-1.2159,-1.2192,-1.2185,-1.2171,-1.2093,-1.2144,-1.212,-1.2083,-1.2203,-1.2302,-1.2386,-1.2386,-1.2353,-1.2277,-1.1586,-1.1199,-1.1041,0.0,0.0,0.0,0.0,0.0,0.0,0.0,0.0,0.0,0.0,0.0,0.0,0.0,0.0,0.0,0.0,0.0,0.0,0.0,0.0,0.0,0.0,0.0,0.0,0.0,0.0,0.0,0.0,0.0,0.0,0.0,0.0,0.0,0.0,0.0,0.0,0.0,0.0,0.0,0.0,0.0,-2.2396,-2.284,0.0,0.0,0.0,0.0,0.0,0.0,0.0,0.0,0.0,0.0,0.0,0.0,0.0,-2.3722,-2.4028,-2.4009,-2.4415,-2.5234,-2.6056,-2.6621,-2.7063,-2.7391,-2.7549,-2.7536,-2.7357,0.0,-2.6573,-2.6239,0.0,0.0,0.0,0.0,0.0,0.0,0.0,0.0,0.0,0.0,0.0,0.0,0.0,0.0,0.0,0.0,0.0,0.0,0.0,0.0,0.0,-1.1647,-1.1925,-1.2074,-1.2223,-1.2311,-1.2311,-1.2311,-1.2271,-1.2234,-1.2227,-1.2186,-1.2098,-1.2186,-1.2271,-1.244,-1.2589,-1.2737,-1.2799,-1.2799,-1.2678,-1.2522,-1.2189,-1.1823,-1.1387,-1.1036,0.0,0.0,0.0,0.0,0.0,0.0,0.0,0.0,0.0,0.0,0.0,0.0,0.0,0.0,0.0,0.0,0.0,0.0,0.0,0.0,0.0,0.0,0.0,0.0,0.0,0.0,0.0,0.0,0.0,0.0,0.0,0.0,0.0,0.0,0.0,0.0,0.0,0.0,0.0,-2.1139,-2.1508,-2.1683,-2.2413,-2.3064,0.0,0.0,0.0,0.0,0.0,0.0,0.0,0.0,0.0,-2.4779,-2.3752,-2.3444,-2.4049,-2.4052,-2.4353,-2.503,-2.6198,-2.684,-2.7078,-2.7472,-2.7657,-2.7657,-2.7657,-2.733,-2.6856,-2.6655,-2.6257,-2.5632,0.0,0.0,0.0,0.0,-2.3542,-2.3688,0.0,0.0,0.0,0.0,0.0,0.0,0.0,0.0,0.0,0.0,0.0,0.0,-1.1543,-1.1952,-1.2261,-1.2332,-1.2515,-1.2603,-1.2562,-1.2562,-1.2494,-1.2352,-1.2345,-1.2291,-1.2213,-1.2325,-1.2549,-1.284,-1.2996,-1.3077,-1.3111,-1.3152,-1.3071,-1.2916,-1.2916,-1.2564,-1.1935,-1.1601,-1.1287,-1.1036,0.0,0.0,0.0,0.0,0.0,0.0,0.0,0.0,0.0,0.0,0.0,0.0,0.0,0.0,0.0,0.0,0.0,0.0,0.0,0.0,0.0,0.0,0.0,0.0,0.0,0.0,0.0,0.0,0.0,0.0,0.0,0.0,0.0,0.0,0.0,0.0,0.0,-2.0095,-2.0425,-2.062,-2.1479,-2.2221,0.0,0.0,0.0,0.0,0.0,0.0,-2.5398,-2.5132,-2.4916,-2.4747,-2.3488,-2.3194,-2.3898,-2.3776,-2.4038,-2.4833,-2.5886,-2.6583,-2.6818,-2.7192,-2.7344,-2.7344,-2.7344,-2.7026,-2.6554,-2.6689,-2.6366,-2.5749,-2.4917,-2.4427,-2.4116,-2.3464,-2.3254,-2.323,0.0,0.0,0.0,0.0,0.0,0.0,0.0,0.0,0.0,0.0,0.0,-1.143,-1.1563,-1.2135,-1.2481,-1.2488,-1.2805,-1.2874,-1.2686,-1.2679,-1.2611,-1.2501,-1.2488,-1.2488,-1.2481,-1.2591,-1.2854,-1.3193,-1.32,-1.3275,-1.3383,-1.3526,-1.3551,-1.3538,-1.3538,-1.3166,-1.2447,-1.2179,-1.1887,-1.1509,-1.1056,0.0,0.0,0.0,0.0,0.0,0.0,0.0,0.0,0.0,0.0,0.0,0.0,0.0,0.0,0.0,0.0,0.0,0.0,0.0,0.0,0.0,0.0,0.0,0.0,0.0,0.0,0.0,0.0,0.0,0.0,0.0,0.0,0.0,0.0,0.0,0.0,0.0,0.0,-2.0174,-2.0799,0.0,0.0,0.0,0.0,-2.362,-2.4154,-2.4553,-2.4837,-2.4418,-2.4107,-2.4032,-2.3137,-2.2845,-2.3338,-2.2837,-2.3311,-2.4811,-2.488,-2.542,-2.6325,-2.6372,-2.636,-2.636,-2.636,-2.6067,-2.5624,-2.6532,-2.6427,-2.563,-2.4696,-2.4146,-2.3758,-2.2385,-2.2047,-2.2181,0.0,0.0,0.0,-0.9228,-0.9424,-0.9639,-0.9765,-1.0163,-1.0576,-1.0962,-1.1314,-1.1701,-1.2142,-1.2372,-1.2583,-1.2779,-1.2935,-1.2895,-1.2699,-1.2693,-1.2625,-1.2508,-1.2596,-1.2698,-1.2833,-1.3037,-1.3214,-1.3322,-1.3512,-1.3627,-1.3646,-1.37,-1.372,-1.372,-1.372,-1.3572,-1.3288,-1.2887,-1.2451,-1.202,-1.1624,-1.1246,0.0,0.0,0.0,0.0,0.0,0.0,0.0,0.0,0.0,0.0,0.0,0.0,0.0,0.0,0.0,0.0,0.0,0.0,0.0,0.0,0.0,0.0,0.0,0.0,0.0,0.0,0.0,0.0,0.0,0.0,0.0,0.0,0.0,0.0,0.0,0.0,0.0,-1.9416,-2.0207,0.0,-2.1594,-2.208,-2.2553,-2.2947,-2.3413,-2.3718,-2.3849,-2.3956,-2.3877,-2.3577,-2.2883,-2.2765,-2.3314,-2.292,-2.3181,-2.4032,-2.4177,-2.449,-2.4827,-2.4827,-2.4827,-2.4827,-2.4827,-2.4598,-2.4308,-2.4661,-2.4777,-2.4753,-2.4117,-2.3705,-2.3321,-2.2196,-2.1796,-2.1646,0.0,0.0,0.0,-0.9267,-0.9557,-0.9839,-1.0025,-1.0441,-1.0887,-1.1308,-1.1579,-1.1952,-1.2447,-1.2596,-1.2799,-1.305,-1.3118,-1.3024,-1.282,-1.2854,-1.2786,-1.2589,-1.2773,-1.2949,-1.3146,-1.3349,-1.3498,-1.3546,-1.37,-1.3795,-1.3802,-1.3849,-1.3919,-1.3926,-1.3977,-1.3971,-1.3899,-1.3559,-1.3132,-1.2562,-1.2257,-1.1898,-1.156,0.0,0.0,0.0,0.0,0.0,0.0,0.0,0.0,0.0,0.0,0.0,0.0,0.0,0.0,0.0,0.0,0.0,0.0,0.0,0.0,0.0,0.0,0.0,0.0,0.0,0.0,0.0,0.0,0.0,0.0,0.0,0.0,0.0,0.0,-1.7904,-1.8671,-1.9225,-1.9934,-2.0592,-2.1317,-2.183,-2.2232,-2.2551,-2.302,-2.3277,-2.3277,-2.3602,-2.3571,-2.3129,-2.2795,-2.2738,-2.2999,-2.2799,-2.3004,-2.3568,-2.3757,-2.3965,-2.4183,-2.4183,-2.4183,-2.4183,-2.4183,-2.4004,-2.3668,-2.3473,-2.3498,-2.3534,-2.3226,-2.29,-2.258,-2.1489,-2.0955,-2.0686,0.0,0.0,0.0,-0.939,-0.9639,-0.9985,-1.0426,-1.0725,-1.109,-1.1529,-1.1891,-1.2227,-1.2481,-1.2826,-1.3064,-1.3207,-1.3315,-1.3275,-1.303,-1.3139,-1.3044,-1.2726,-1.3024,-1.3254,-1.3417,-1.3531,-1.368,-1.3822,-1.3822,-1.3829,-1.3829,-1.4021,-1.4139,-1.4146,-1.4394,-1.436,-1.4146,-1.4251,-1.3885,-1.318,-1.2881,-1.2583,-1.2298,0.0,0.0,0.0,0.0,0.0,0.0,0.0,0.0,0.0,0.0,0.0,0.0,0.0,0.0,0.0,0.0,0.0,0.0,0.0,0.0,0.0,0.0,0.0,0.0,0.0,0.0,0.0,0.0,0.0,0.0,0.0,0.0,0.0,-1.7347,-1.7713,-1.8367,-1.9573,-1.985,-2.046,-2.1678,-2.2173,-2.2449,-2.2506,-2.2982,-2.3277,-2.3277,-2.3277,-2.3139,-2.2809,-2.278,-2.2683,-2.2397,-2.2406,-2.2766,-2.3463,-2.3472,-2.3819,-2.4518,-2.4518,-2.4518,-2.4518,-2.4518,-2.4217,-2.3665,-2.3162,-2.2658,-2.215,-2.2007,-2.1837,-2.1543,-2.0192,-1.9609,-1.9409,0.0,0.0,-0.9396,-0.9517,-0.9883,-1.0229,-1.046,-1.0934,-1.1389,-1.1692,-1.2128,-1.2494,-1.2839,-1.3043,-1.3214,-1.3322,-1.3376,-1.3322,-1.3166,-1.3193,-1.3186,-1.3214,-1.3295,-1.3512,-1.3878,-1.4034,-1.4183,-1.4326,-1.4397,-1.4451,-1.4451,-1.4491,-1.4557,-1.4563,-1.4593,-1.4586,-1.4557,-1.4552,-1.4373,-1.3953,-1.3546,-1.32,-1.2969,0.0,0.0,0.0,0.0,0.0,0.0,0.0,0.0,0.0,0.0,0.0,0.0,0.0,0.0,0.0,0.0,0.0,0.0,0.0,0.0,0.0,0.0,0.0,0.0,0.0,0.0,0.0,0.0,0.0,0.0,0.0,-1.6788,-1.7374,-1.7465,-1.7973,-1.8654,-1.9453,-1.9616,-2.005,-2.1105,-2.1344,-2.1592,-2.1982,-2.226,-2.2442,-2.2442,-2.2577,-2.2586,-2.2497,-2.2659,-2.2665,-2.2623,-2.2765,-2.2919,-2.3136,-2.2725,-2.2662,-2.286,-2.2457,-2.2255,-2.2255,-2.2255,-2.2205,-2.2053,-2.1902,-2.175,-2.164,-2.1572,-2.1532,-2.1388,-2.0642,-1.9916,-1.9273,0.0,-0.9301,-0.9449,-0.9659,-1.0019,-1.0371,-1.0643,-1.1029,-1.145,-1.187,-1.2155,-1.2454,-1.2827,-1.2935,-1.3071,-1.3288,-1.3308,-1.3268,-1.322,-1.3234,-1.339,-1.3668,-1.3743,-1.3926,-1.4251,-1.4407,-1.4523,-1.4559,-1.4654,-1.4694,-1.4694,-1.4694,-1.4694,-1.4694,-1.4808,-1.4801,-1.4701,-1.4808,-1.4699,-1.4462,-1.4153,-1.3878,-1.3595,-1.3595,-1.354,-1.3465,-1.3465,-1.3329,-1.3146,-1.3085,0.0,0.0,0.0,0.0,0.0,0.0,0.0,0.0,0.0,0.0,0.0,0.0,0.0,0.0,0.0,0.0,0.0,0.0,0.0,0.0,0.0,0.0,0.0,0.0,-1.7484,-1.797,-1.8121,-1.8407,-1.8822,-1.9533,-1.9646,-1.997,-2.0812,-2.0918,-2.1072,-2.1371,-2.1798,-2.2007,-2.2007,-2.2193,-2.2305,-2.2305,-2.2226,-2.2141,-2.2141,-2.2251,-2.2351,-2.2434,-2.2138,-2.2022,-2.2103,-2.1796,-2.1643,-2.1643,-2.1643,-2.1643,-2.1643,-2.1387,-2.1336,0.0,0.0,0.0,0.0,0.0,-1.9907,-1.9337,0.0,-0.9284,-0.9467,-0.9765,-1.0086,-1.0432,-1.0779,-1.1015,-1.136,-1.1875,-1.1982,-1.2157,-1.2606,-1.2667,-1.2788,-1.3186,-1.3214,-1.3227,-1.322,-1.3383,-1.3661,-1.4082,-1.4245,-1.4401,-1.4557,-1.4713,-1.4755,-1.4769,-1.4789,-1.4789,-1.4769,-1.4769,-1.4762,-1.4748,-1.4936,-1.4916,-1.4755,-1.4936,-1.4909,-1.4721,-1.4721,-1.4516,-1.4193,-1.4193,-1.4193,-1.4193,-1.4193,-1.4048,-1.3856,-1.3727,0.0,0.0,0.0,0.0,0.0,0.0,0.0,0.0,0.0,0.0,0.0,0.0,0.0,0.0,0.0,0.0,0.0,0.0,0.0,0.0,0.0,0.0,0.0,0.0,-1.8112,-1.867,-1.8939,-1.8883,-1.9003,-1.9678,-1.9761,-2.0032,-2.0695,-2.078,-2.0788,-2.0838,-2.1452,-2.185,-2.185,-2.2013,0.0,0.0,0.0,-2.1432,-2.1432,-2.1458,-2.1555,-2.1731,-2.1679,-2.1715,-2.1925,-2.1821,-2.183,-2.183,-2.183,-2.183,-2.1769,-2.131,-2.1101,-2.1085,-2.0821,-2.0653,-2.0502,-2.0028,-1.9719,-1.9573,0.0,-0.9147,-0.9324,-0.9858,-1.0161,-1.0336,-1.0476,-1.0729,-1.0947,-1.1108,-1.1321,-1.1643,-1.2154,-1.2324,-1.2581,-1.3159,-1.3214,-1.3275,-1.3526,-1.379,-1.4034,-1.4245,-1.4394,-1.4597,-1.4921,-1.5025,-1.516,-1.5282,-1.5357,-1.5357,-1.5282,-1.5282,-1.5215,-1.5099,-1.5126,-1.5126,-1.5099,-1.5126,-1.5059,-1.493,-1.493,-1.4801,-1.4566,-1.4566,-1.4566,-1.4566,-1.4566,-1.4509,-1.438,-1.4353,-1.4183,-1.3953,-1.3736,-1.3551,0.0,0.0,0.0,0.0,0.0,0.0,0.0,0.0,0.0,0.0,0.0,0.0,0.0,0.0,0.0,0.0,0.0,0.0,0.0,-1.7771,-1.8472,-1.8955,-1.8972,-1.9199,-1.9371,-1.9413,-1.947,-1.9775,-2.0316,-2.0552,-2.0838,-2.1241,-2.1427,-2.1495,-2.1495,-2.1531,-2.1548,-2.1548,-2.1606,-2.1643,-2.1643,-2.1792,-2.1889,-2.1924,0.0,0.0,-2.1362,-2.0841,-2.0633,-2.0633,-2.0633,-2.0633,-2.0633,-2.0529,-2.0476,-2.0476,-2.0436,-2.0403,-2.0354,-2.0112,-2.0038,-1.9938,-0.7322,-0.8157,-0.8854,-0.9355,-0.9722,-0.9938,-0.9946,-0.9957,-0.9935,-0.9947,-1.0105,-1.0328,-1.071,-1.1185,-1.1598,-1.2014,-1.2623,-1.3236,-1.3824,-1.3844,-1.392,-1.4256,-1.4133,-1.4309,-1.4852,-1.495,-1.5158,-1.5479,-1.5553,-1.5553,-1.5479,-1.5479,-1.5438,-1.5404,-1.533,-1.5296,-1.5289,-1.5215,-1.514,-1.5126,-1.5126,-1.5031,-1.4957,-1.4882,-1.4903,-1.4964,-1.4964,-1.4909,-1.4835,-1.4767,-1.4645,-1.4482,-1.4251,-1.4082,-1.3933,0.0,0.0,0.0,0.0,0.0,0.0,0.0,0.0,0.0,0.0,0.0,0.0,0.0,0.0,-1.5781,-1.6684,0.0,-1.7729,-1.8383,-1.8777,-1.9045,-1.9224,-1.9402,-1.9484,-1.9394,-1.954,-1.9755,-2.0007,-2.014,-2.0291,-2.0596,-2.0934,-2.1147,-2.1147,-2.1233,-2.1285,-2.1285,-2.1122,-2.1018,-2.1018,-2.1103,-2.1154,-2.1154,-2.0893,-2.0737,-2.0737,-2.0424,-2.032,-2.032,-2.032,-2.032,-2.032,-2.032,-2.032,-2.032,-2.032,-2.032,-2.0312,-2.0223,-2.0141,-2.0104,-0.5297,-0.6554,-0.776,-0.8589,-0.9026,-0.9221,-0.9082,-0.8846,-0.8591,-0.842,-0.8558,-0.8715,-0.8983,-0.9666,-1.0275,-1.0623,-1.1861,-1.2861,-1.3476,-1.3382,-1.3378,-1.3601,-1.3445,-1.3578,-1.4062,-1.4375,-1.4754,-1.5197,-1.5321,-1.5418,-1.5488,-1.5488,-1.5524,-1.5587,-1.5513,-1.5452,-1.5445,-1.5289,-1.5228,-1.5221,-1.5194,-1.5181,-1.5167,-1.5071,-1.5085,-1.514,-1.5106,-1.5113,-1.5126,-1.5057,-1.5017,-1.4976,-1.4679,-1.4502,-1.436,-1.4238,-1.4089,0.0,0.0,0.0,0.0,0.0,0.0,0.0,0.0,-1.4962,-1.5174,-1.5717,-1.6032,-1.6554,-1.7613,-1.7952,-1.8261,-1.9004,-1.9086,-1.9199,-1.9524,-1.9597,-1.9622,-1.9622,-1.9752,-1.9841,-1.9841,-1.9873,-1.989,-1.989,-2.0439,-2.0779,-2.0779,-2.0922,-2.1049,-2.1049,-2.0529,-2.032,-2.032,-2.032,-2.032,-2.032,-2.032,-2.032,-2.032,-2.032,-2.032,-2.032,-2.032,-2.032,-2.032,-2.032,-2.032,-2.032,-2.032,-2.032,-2.032,-2.032,-2.0231,-2.0117,0.0,-0.4083,-0.5381,-0.7711,-0.8079,-0.796,-0.7605,-0.7265,-0.6877,-0.6404,-0.6717,-0.7141,-0.7655,-0.8128,-0.8789,-0.9742,-1.1029,-1.1723,-1.1559,-1.2208,-1.2289,-1.1563,-1.2105,-1.2277,-1.1856,-1.3057,-1.3673,-1.3722,-1.4329,-1.4824,-1.5152,-1.5152,-1.5325,-1.5593,-1.5573,-1.5566,-1.5553,-1.5452,-1.5384,-1.5371,-1.5235,-1.5181,-1.5167,-1.5071,-1.503,-1.5023,-1.4841,-1.4875,-1.5037,-1.5023,-1.5017,-1.501,-1.4976,-1.4814,-1.464,-1.4626,-1.4512,-1.4502,-1.4794,-1.501,-1.5099,-1.5269,-1.5309,-1.535,0.0,-1.587,-1.6206,-1.6323,-1.6729,-1.7277,-1.8025,-1.8169,-1.8482,-1.9295,-1.9451,-1.9524,-1.9727,-1.9898,-2.0003,-2.0003,-2.0079,-2.0087,-2.0087,-2.0174,-2.0263,-2.0263,-2.0331,-2.0392,-2.0392,-2.0416,-2.0424,-2.0424,-2.032,-2.032,-2.032,-2.032,-2.032,-2.032,-2.032,-2.032,-2.032,-2.032,-2.032,-2.032,-2.032,-2.032,-2.032,-2.032,-2.032,-2.032,-2.032,-2.032,-2.032,-2.032,-2.0304,-2.0296,0.0,-0.2657,-0.3446,-0.4747,-0.585,-0.6345,-0.5756,-0.5603,-0.534,-0.4702,-0.5029,-0.5395,-0.5653,-0.6509,-0.7478,-0.8516,-0.946,-1.0156,-1.0465,-1.0695,-1.055,-1.0005,-1.0399,-1.0509,-1.0263,-1.1249,-1.1908,-1.2206,-1.2802,-1.3201,-1.3349,-1.4,-1.4366,-1.4508,-1.4728,-1.5038,-1.5318,-1.5118,-1.5205,-1.5404,-1.5343,-1.5262,-1.516,-1.4923,-1.4835,-1.4828,-1.4714,-1.4735,0.0,-1.4835,-1.4896,-1.5017,-1.5017,-1.493,-1.4875,-1.4875,-1.4828,-1.4848,-1.5147,-1.5337,-1.5466,-1.5479,-1.5732,-1.5986,-1.6056,-1.6505,-1.6939,-1.7269,-1.7545,-1.7976,-1.8582,-1.8806,-1.9097,-1.9442,-1.9605,-1.9735,-1.9973,-2.0071,-2.0152,-2.0198,-2.0214,-2.0214,-2.0214,-2.0279,-2.032,-2.032,-2.032,-2.032,-2.032,-2.032,-2.032,-2.032,-2.032,-2.032,-2.032,-2.032,-2.0377,-2.0483,-2.0483,-2.0483,-2.0483,-2.0483,-2.0426,-2.032,-2.032,-2.032,-2.032,-2.032,-2.0385,-2.0483,-2.0483,-2.0539,-2.0604,-2.0393,-2.032,-2.032,0.0,-0.1452,-0.1823,-0.2124,-0.3402,-0.4253,-0.3954,-0.3864,-0.3693,-0.3172,-0.3521,-0.3917,-0.4158,-0.5142,-0.6059,-0.6781,-0.7578,-0.8247,-0.8762,-0.8759,-0.8539,-0.8091,-0.8376,-0.8476,-0.8322,-0.9177,-0.9819,-1.0216,-1.0872,-1.1273,-1.1473,-1.2374,-1.2923,-1.3068,-1.3487,-1.3891,-1.428,-1.4391,-1.4641,-1.5035,-1.5138,-1.5174,-1.5153,-1.4809,-1.4694,-1.4681,-1.4606,-1.4599,-1.4633,-1.4633,-1.4808,-1.5017,-1.5017,-1.5044,-1.5038,-1.5079,-1.52,-1.5309,-1.5472,-1.5739,-1.5952,-1.5952,-1.6342,-1.6772,-1.6772,-1.7169,-1.7654,-1.8043,-1.8339,-1.8637,-1.9069,-1.9337,-1.9549,-1.9646,-1.9776,-1.993,-2.0109,-2.0133,-2.0182,-2.0304,-2.032,-2.032,-2.032,-2.032,-2.032,-2.032,-2.032,-2.032,-2.032,-2.032,-2.032,-2.032,-2.0369,-2.0393,-2.0393,-2.0442,-2.0531,-2.0669,-2.0669,-2.0669,-2.0669,-2.0669,-2.0596,-2.0466,-2.0466,-2.0466,-2.0466,-2.0466,-2.0547,-2.0669,-2.0669,-2.0742,-2.0869,-2.0507,-2.0393,-2.0385,0.0,0.0,-0.0575,-0.0651,-0.0973,-0.1479,-0.2246,-0.2024,-0.1822,-0.186,-0.2274,-0.2853,-0.3617,-0.4169,-0.4476,-0.4517,-0.5474,-0.5999,-0.577,-0.6314,-0.6299,-0.5446,-0.6038,-0.6131,-0.5639,-0.6791,-0.7408,-0.7408,-0.8464,-0.9267,-0.9769,-1.0321,-1.0872,-1.1423,-1.1919,-1.2169,-1.2263,-1.3144,-1.3706,-1.4061,-1.446,-1.4842,-1.5153,-1.4809,-1.4694,-1.466,-1.4414,-1.4401,-1.4516,-1.4516,-1.4719,-1.5017,-1.5017,-1.5112,-1.5208,-1.5357,-1.5601,-1.5874,-1.5888,-1.6342,-1.685,-1.685,-1.7253,-1.7657,-1.7657,-1.8095,-1.8491,-1.8491,-1.8894,-1.9297,-1.9467,-1.9508,-1.963,-2.0047,-2.0104,-2.0117,-2.0288,-2.0312,-2.0312,-2.032,-2.032,-2.032,-2.032,-2.032,-2.032,-2.032,-2.032,-2.032,-2.032,-2.032,-2.032,-2.032,-2.0491,-2.0588,-2.0588,-2.0804,-2.0893,-2.0901,-2.0901,-2.0901,-2.0901,-2.0901,-2.0893,-2.0893,-2.0893,-2.0893,-2.0893,-2.0893,-2.0893,-2.0901,-2.0901,-2.0901,-2.0885,-2.0653,-2.0588,-2.0564,0.0,0.0,0.0,-0.0206,-0.028,-0.0463,-0.0715,-0.1121,-0.1277,-0.1021,-0.1591,0.0,0.0,0.0,0.0,0.0,-0.4239,-0.4656,-0.4682,-0.4982,-0.4885,-0.4316,-0.4867,-0.4924,-0.4469,-0.5214,-0.5646,-0.5646,-0.6335,-0.6803,-0.6994,-0.7887,-0.8382,-0.863,-0.9529,-1.0091,-1.042,-1.1471,-1.232,-1.3014,-1.3697,-1.4228,-1.454,-1.4569,-1.459,-1.4563,0.0,-1.4333,-1.4373,-1.4373,-1.457,-1.4821,-1.4821,-1.5052,-1.5384,-1.5635,-1.5826,-1.602,-1.6419,-1.6729,-1.697,-1.7318,-1.7813,-1.821,-1.821,-1.8655,-1.9009,-1.9009,-1.9157,-1.9363,-1.9484,-1.9613,-1.9776,-2.0079,-2.0158,-2.0255,-2.0312,-2.032,-2.032,-2.032,-2.032,-2.032,-2.032,-2.032,-2.032,-2.032,-2.032,-2.0377,-2.0499,-2.0507,-2.0556,-2.0669,-2.0734,-2.082,-2.082,-2.0877,-2.0913,-2.1035,-2.1035,-2.1035,-2.1027,-2.0958,-2.091,-2.091,-2.091,-2.091,-2.091,-2.091,-2.0929,-2.1035,-2.1035,-2.1108,-2.1227,-2.0934,-2.082,-2.0726,0.0,0.0,0.0,0.0,0.0,0.0,0.0,0.0,0.0,0.0,0.0,0.0,0.0,0.0,0.0,0.0,0.0,-0.3519,-0.3624,-0.3749,-0.3716,-0.3509,-0.384,-0.3886,-0.3589,-0.3977,-0.42,-0.42,-0.4751,-0.497,-0.5,-0.5937,-0.6333,-0.6382,-0.7268,-0.7832,-0.8179,-0.9452,-1.0443,-1.1317,-1.2425,-1.3279,-1.3889,-1.4152,-1.433,0.0,-1.4353,-1.4333,-1.4373,-1.4373,-1.4536,-1.4701,-1.4762,-1.5133,-1.554,-1.5833,-1.6089,-1.6349,-1.6793,-1.7162,-1.7566,-1.7912,-1.8408,-1.8803,-1.8803,-1.9058,-1.9322,-1.9337,-1.9354,-1.9427,-1.9662,-1.9808,-1.9946,-2.0125,-2.0247,-2.032,-2.032,-2.032,-2.032,-2.032,-2.032,-2.032,-2.032,-2.032,-2.032,-2.032,-2.0385,-2.0474,-2.0588,-2.0653,-2.0796,-2.0901,-2.0975,-2.0954,-2.0954,-2.1064,-2.11,-2.1222,-2.1222,-2.1222,-2.1213,-2.11,-2.1097,-2.1097,-2.1097,-2.1097,-2.1097,-2.1097,-2.1108,-2.1222,-2.1222,-2.1278,-2.1343,-2.104,-2.091,-2.0853,0.0,0.0,0.0,0.0,0.0,0.0,0.0,0.0,0.0,0.0,0.0,0.0,0.0,0.0,0.0,0.0,0.0,0.0,-0.2599,-0.266,-0.2776,-0.291,-0.2971,-0.3017,-0.3002,-0.3061,-0.3091,-0.3091,-0.3605,-0.3867,-0.387,-0.4459,-0.4706,-0.4757,-0.5291,-0.558,-0.5676,-0.7186,-0.8314,-0.9165,-1.072,-1.2091,-1.3294,-1.3655,-1.4092,-1.4482,-1.4353,-1.4394,-1.4509,-1.4509,-1.4624,-1.4794,-1.5049,-1.5397,-1.5724,-1.5923,-1.6454,-1.6963,-1.697,-1.7714,-1.8507,-1.8507,-1.891,-1.9306,-1.9306,-1.9314,-1.9371,-1.9475,-1.9524,-1.9638,-2.0055,-2.012,-2.0125,-2.0296,-2.032,-2.032,-2.032,-2.032,-2.032,-2.032,-2.032,-2.032,-2.032,-2.0328,-2.0336,-2.0336,-2.0499,-2.0604,-2.0621,-2.0828,-2.0926,-2.0934,-2.1051,-2.114,-2.114,-2.1295,-2.1384,-2.1384,-2.1384,-2.1384,-2.1384,-2.1384,-2.1384,-2.1384,-2.1384,-2.1384,-2.1384,-2.1384,-2.1384,-2.1384,-2.1384,-2.1384,-2.1343,-2.1048,-2.0918,-2.0861,0.0,0.0,0.0,0.0,0.0,0.0,0.0,0.0,0.0,0.0,0.0,0.0,0.0,0.0,0.0,0.0,0.0,0.0,-0.2611,-0.2671,-0.2735,-0.2803,-0.2909,-0.2909,-0.2939,-0.2976,-0.3043,-0.3043,-0.3144,-0.3267,-0.3314,-0.346,-0.3761,-0.4172,-0.4576,-0.4974,-0.5363,-0.65,-0.7533,-0.8563,-0.9963,-1.1311,-1.265,-1.3375,-1.3953,-1.4367,-1.4434,-1.4482,-1.4509,-1.4509,-1.5034,-1.5774,-1.643,-1.6773,-1.6998,-1.7159,-1.7338,-1.7566,-1.7962,-1.8309,-1.8605,-1.9009,-1.9207,-1.9306,-1.9306,-1.9354,-1.9459,-1.95,-1.9622,-1.9792,-2.0079,-2.012,-2.0125,-2.0296,-2.032,-2.032,-2.032,-2.032,-2.032,-2.032,-2.032,-2.032,-2.032,-2.0442,-2.0523,-2.0523,-2.0572,-2.071,-2.0978,-2.1035,-2.1116,-2.1246,-2.1295,-2.1319,-2.1319,-2.136,-2.1384,-2.1384,-2.1384,-2.1384,-2.1384,-2.1384,-2.1384,-2.1384,-2.1384,-2.1384,-2.1384,-2.1384,-2.1384,-2.1384,-2.1384,-2.1384,-2.136,-2.114,-2.097,-2.0877,0.0,0.0,0.0,0.0,0.0,0.0,0.0,0.0,0.0,0.0,0.0,0.0,0.0,0.0,0.0,0.0,0.0,0.0,0.0,-0.2634,-0.2686,-0.2761,-0.2808,-0.2848,-0.2876,-0.2919,-0.2942,-0.2942,-0.3,-0.3025,-0.306,-0.306,-0.3304,-0.3842,-0.4244,-0.483,-0.5502,-0.6302,-0.7194,0.0,0.0,-1.069,-1.1995,-1.3018,-1.3776,-1.4326,-1.4536,-1.4787,-1.509,-1.5459,-1.5957,-1.6521,-1.7084,-1.7344,-1.7449,-1.762,-1.787,-1.8111,-1.8408,-1.8655,-1.891,-1.9207,-1.9313,-1.937,-1.937,-1.9508,-1.9654,-1.9735,-1.9841,-1.9963,-2.0141,-2.0182,-2.0206,-2.0304,-2.032,-2.032,-2.032,-2.032,-2.032,-2.032,-2.0393,-2.0442,-2.0442,-2.0604,-2.0742,-2.0824,-2.0832,-2.0913,-2.1116,-2.1197,-2.1278,-2.1384,-2.1384,-2.1384,-2.1384,-2.1384,-2.1384,-2.1384,-2.1384,-2.1384,-2.1384,-2.1384,-2.1384,-2.1384,0.0,-2.1384,-2.1384,-2.1384,-2.1384,-2.1384,-2.1384,-2.1384,-2.136,-2.1189,-2.1059,-2.0945,0.0,0.0,0.0,0.0,0.0,0.0,0.0,0.0,0.0,0.0,0.0,0.0,0.0,0.0,0.0,0.0,0.0,0.0,0.0,0.0,-0.2643,-0.268,-0.2759,-0.2789,-0.2773,-0.2874,-0.2904,-0.2904,-0.2935,-0.2998,-0.3094,-0.3094,-0.3417,-0.3971,-0.4476,-0.5255,-0.6213,-0.6675,-0.7372,-0.8265,-0.912,-1.0296,-1.1665,0.0,-1.3605,-1.4394,-1.4672,-1.5138,-1.5875,-1.671,-1.7059,-1.7207,-1.7516,-1.7629,-1.7674,-1.7875,-1.8259,-1.8605,-1.8605,-1.8976,-1.9346,-1.9346,-1.9419,-1.9549,-1.9549,-1.9695,-1.9873,-2.0087,-2.0136,-2.0141,-2.0296,-2.032,-2.032,-2.032,-2.032,-2.032,-2.032,-2.0344,-2.0353,-2.0353,-2.0515,-2.0629,-2.0629,-2.0791,-2.0954,-2.1116,-2.1094,-2.1165,-2.1165,-2.1295,-2.1384,-2.1384,-2.1384,-2.1384,-2.1384,-2.1384,-2.1384,-2.1384,-2.1384,-2.1384,-2.1384,-2.1384,-2.1384,-2.1384,-2.1384,0.0,-2.1384,-2.1384,-2.1329,-2.1266,-2.1266,-2.1211,-2.1156,-2.0941,-2.0877,-2.0883,0.0,0.0,0.0,0.0,0.0,0.0,0.0,0.0,0.0,0.0,0.0,-0.0038,0.0,0.0,0.0,0.0,0.0,0.0,0.0,0.0,0.0,-0.2621,-0.2673,-0.2705,-0.2711,-0.2768,-0.2799,-0.2799,-0.2874,-0.3128,-0.3518,-0.3518,-0.4157,-0.5391,-0.589,-0.6858,-0.8106,-0.8195,-0.877,-0.9648,-0.9831,-1.0809,-1.2271,-1.2891,-1.3726,0.0,-1.4869,-1.535,-1.5992,-1.6888,-1.7472,-1.7935,-1.8527,-1.8841,-1.8969,-1.9001,-1.9108,-1.9157,-1.9157,-1.9312,-1.9467,-1.9467,-1.9605,-1.9743,-1.9743,-1.9882,-2.0079,-2.0112,-2.0182,-2.0288,-2.0312,-2.032,-2.032,-2.032,-2.032,-2.032,-2.032,-2.045,-2.0547,-2.0547,-2.0702,-2.0861,-2.0861,-2.097,-2.1092,-2.1124,-2.1254,-2.1343,-2.1343,-2.136,-2.1384,-2.1384,-2.1384,-2.1384,-2.1384,-2.1384,-2.1384,-2.1384,-2.1384,-2.1384,-2.1384,-2.1384,-2.1384,-2.1384,-2.1384,0.0,-2.1384,-2.1384,-2.1118,-2.0678,-2.0678,-2.034,-1.99,-1.9878,-1.9779,-1.9705,0.0,0.0,0.0,0.0,0.0,0.0,0.0,0.0,0.0,0.0,0.0,0.0,0.0,-0.0155,-0.0389,0.0,0.0,0.0,0.0,0.0,0.0,-0.2629,-0.2672,-0.2703,-0.2761,-0.2806,-0.2836,-0.2852,0.0,-0.3374,-0.3616,-0.4112,-0.497,-0.6143,-0.7091,-0.8323,-0.9705,-0.9875,-1.0416,-1.1138,-1.1143,-1.1794,-1.2807,-1.3377,-1.4133,0.0,-1.497,-1.5391,-1.5988,-1.6589,-1.7132,-1.7772,-1.8897,-1.9321,-1.941,-1.9508,-1.9532,-1.9532,-1.9532,-1.9597,-1.9654,-1.9654,-1.9792,-1.9938,-1.9938,-2.0068,-2.0198,-2.0198,-2.0263,-2.032,-2.032,-2.032,-2.032,-2.032,-2.032,-2.032,-2.032,-2.0483,-2.0596,-2.0596,-2.0832,-2.0994,-2.0994,-2.1157,-2.1254,-2.1254,-2.1343,-2.1384,-2.1384,-2.1384,-2.1384,-2.1384,-2.1384,-2.1384,-2.1384,-2.1384,-2.1384,-2.1384,-2.1384,-2.1384,-2.1384,-2.1384,-2.1384,-2.1384,-2.1063,0.0,-2.089,-2.0568,-2.0278,-2.001,-2.001,-1.9845,-1.9577,-1.9577,-1.9573,-1.9513,0.0,0.0,0.0,0.0,0.0,0.0,0.0,0.0,0.0,0.0,0.0,0.0,0.0,0.0,-0.0118,0.0,0.0,0.0,0.0,0.0,0.0,0.0,-0.2631,-0.2743,-0.2773,0.0,0.0,-0.3043,-0.363,0.0,0.0,0.0,0.0,0.0,-0.8509,-0.9837,-1.1135,-1.1423,-1.1941,0.0,0.0,-1.2729,-1.3358,0.0,0.0,0.0,0.0,-1.5353,-1.58,-1.6289,-1.6727,-1.7262,-1.87,-1.9258,-1.9348,-1.9583,-1.9691,-1.9792,-1.9792,-1.9817,-1.9849,-1.9849,-1.9987,-2.0125,-2.0125,-2.0223,-2.032,-2.032,-2.032,-2.032,-2.032,-2.032,-2.032,-2.032,-2.032,-2.0336,-2.0377,-2.0539,-2.0669,-2.0702,-2.0986,-2.1181,-2.1181,-2.1295,-2.1384,-2.1384,-2.1384,-2.1384,-2.1384,-2.1384,-2.1384,-2.1384,-2.1384,-2.1384,-2.1384,-2.1384,-2.1384,-2.1384,-2.1384,-2.1384,-2.1384,-2.1266,-2.1211,-2.1172,-2.0568,0.0,0.0,-1.9805,-1.9515,-1.9405,-1.9405,-1.9364,-1.9254,-1.9254,-1.9254,-1.9254,0.0,0.0,0.0,0.0,0.0,0.0,0.0,0.0,0.0,0.0,0.0,0.0,0.0,0.0,0.0,0.0,0.0,0.0,0.0,0.0,0.0,0.0,0.0,0.0,0.0,0.0,0.0,-0.3449,-0.4419,0.0,0.0,0.0,0.0,0.0,0.0,-1.1638,-1.2523,-1.2676,0.0,0.0,0.0,0.0,0.0,0.0,0.0,0.0,0.0,-1.5336,-1.539,-1.6271,-1.6522,-1.6681,-1.7697,-1.8355,-1.8803,-1.9034,-1.9437,-1.9792,-1.9792,-1.9914,-2.0095,-2.0095,-2.0174,-2.0296,-2.0296,-2.0312,-2.032,-2.032,-2.032,-2.032,-2.032,-2.032,-2.032,-2.032,-2.032,-2.0377,-2.0547,-2.0771,-2.0942,-2.1059,-2.1246,-2.136,-2.136,-2.1384,-2.1384,-2.1384,-2.1384,-2.1384,-2.1384,-2.1384,-2.1384,-2.1384,-2.1384,-2.1384,-2.1384,-2.1384,-2.1384,-2.1384,-2.1384,-2.1384,-2.1384,-2.0827,-2.0568,-2.0568,-1.9955,0.0,0.0,-1.9632,-1.9254,-1.8757,-1.8757,-1.8474,-1.8033,-1.8033,-1.8033,-1.8033,0.0,0.0,0.0,0.0,0.0,0.0,0.0,0.0,0.0,0.0,0.0,0.0,0.0,-0.024,-0.0321,-0.004,0.0,0.0,0.0,0.0,0.0,0.0,0.0,0.0,0.0,0.0,-0.385,-0.4545,-0.5512,0.0,0.0,0.0,0.0,0.0,0.0,-1.2545,-1.3243,-1.3609,0.0,0.0,0.0,0.0,0.0,0.0,0.0,0.0,0.0,0.0,-1.5499,-1.6008,-1.6154,-1.6216,-1.6742,-1.7307,-1.7862,-1.8436,-1.9032,-1.9509,-1.962,-1.9907,-2.0214,-2.0214,-2.0271,-2.032,-2.032,-2.032,-2.032,-2.032,-2.032,-2.032,-2.032,-2.032,-2.032,-2.032,-2.032,-2.0344,-2.0418,-2.0677,-2.0934,-2.0954,-2.1213,-2.1384,-2.1384,-2.1384,-2.1384,-2.1384,-2.1384,-2.1384,-2.1384,-2.1384,-2.1384,-2.1384,-2.1384,-2.1384,-2.1384,-2.1384,-2.1384,-2.1384,-2.1384,-2.1211,-2.0835,-2.0623,-2.0278,-1.99,-1.9309,0.0,0.0,-1.8702,-1.8412,-1.8205,-1.8205,-1.8088,-1.7915,-1.7915,-1.7915,-1.7915,0.0,0.0,0.0,0.0,0.0,0.0,0.0,0.0,-0.0038,-0.0156,-0.0158,-0.028,-0.0562,-0.0893,-0.1024,-0.0822,-0.0536,0.0,0.0,0.0,0.0,0.0,0.0,0.0,0.0,0.0,-0.4966,-0.6053,-0.7166,-0.8255,0.0,0.0,-1.1587,-1.2396,0.0,0.0,0.0,0.0,0.0,0.0,0.0,0.0,0.0,0.0,0.0,0.0,0.0,0.0,0.0,0.0,0.0,-1.5949,-1.6157,-1.649,-1.6998,-1.7829,-1.8571,-1.9053,-1.9176,-1.9498,-1.9798,-1.9798,-1.9798,-1.9798,-1.9798,-1.9798,-1.9798,-1.9798,-1.9798,-1.9851,-2.0007,-2.0059,-2.0111,-2.0268,-2.032,-2.0336,-2.0393,-2.0661,-2.0926,-2.0929,-2.1197,-2.1384,-2.1384,-2.1384,-2.1384,-2.1384,-2.1384,-2.1384,-2.1384,-2.1384,-2.1384,-2.1384,-2.1384,-2.1384,-2.1384,-2.1384,-2.1384,-2.1384,-2.1211,-2.089,-2.0505,-2.0128,-1.975,-1.9309,-1.8702,0.0,0.0,-1.8033,-1.7915,-1.7915,-1.7915,-1.7915,-1.7915,-1.7915,-1.7915,-1.7915,0.0,0.0,0.0,0.0,0.0,0.0,0.0,0.0,-0.0152,-0.0539,-0.0591,-0.0963,-0.1867,-0.1971,-0.216,-0.2646,-0.1833,0.0,0.0,0.0,0.0,0.0,0.0,0.0,0.0,0.0,-0.7069,-0.8046,-0.9597,-1.0891,-1.19,-1.2815,-1.3501,-1.4003,0.0,0.0,0.0,0.0,0.0,0.0,0.0,0.0,0.0,0.0,0.0,0.0,0.0,0.0,0.0,0.0,0.0,0.0,0.0,-1.6133,-1.6294,-1.7154,-1.7873,-1.841,-1.841,-1.8522,-1.8641,-1.8641,-1.8641,-1.8641,-1.8641,-1.8641,-1.8641,-1.8641,-1.8641,-1.8798,-1.9388,-1.9493,-1.9694,-2.0216,-2.032,-2.0385,-2.0572,-2.0742,-2.0975,-2.11,-2.1278,-2.1384,-2.1384,-2.1384,-2.1384,-2.1384,-2.1384,-2.1384,-2.1384,-2.1384,-2.1384,-2.1384,-2.1384,-2.1384,-2.1384,-2.1384,-2.1384,-2.1384,-2.0772,-2.0505,-2.045,-1.9254,-1.8702,0.0,0.0,0.0,0.0,-1.7915,-1.7915,-1.7915,-1.7915,-1.7915,-1.7915,-1.7915,-1.7915,-1.7915,0.0,0.0,0.0,0.0,0.0,0.0,0.0,-0.0676,-0.1027,-0.1386,-0.1693,-0.2047,-0.2355,-0.271,-0.295,-0.3152,-0.2307,0.0,0.0,0.0,0.0,0.0,0.0,0.0,0.0,-0.7249,-0.8353,-0.9796,-1.0981,-1.2105,-1.3121,-1.3687,-1.4204,-1.4659,-1.4696,-1.4694,0.0,0.0,0.0,0.0,0.0,0.0,-1.5181,0.0,0.0,0.0,0.0,0.0,0.0,0.0,0.0,0.0,0.0,0.0,0.0,-1.6449,-1.7061,-1.7756,-1.7805,-1.8203,-1.8589,-1.8589,-1.8589,-1.8693,-1.9119,-1.9224,-1.9328,-1.9686,-1.9738,-1.9798,-2.0007,-2.0059,-2.0152,-2.0438,-2.0507,-2.0572,-2.0804,-2.0929,-2.1059,-2.107,-2.1278,-2.1384,-2.1384,-2.1384,-2.1384,-2.1384,-2.1384,-2.1384,-2.1384,-2.1384,-2.1384,-2.1384,-2.1384,-2.1384,-2.1384,-2.1384,-2.1211,-2.0772,-2.0568,-2.0073,-1.9254,-1.8868,-1.853,0.0,0.0,0.0,0.0,-1.7915,-1.7915,-1.7915,-1.7915,-1.7915,-1.7915,-1.7915,-1.7915,-1.7915,0.0,0.0,0.0,0.0,0.0,0.0,0.0,-0.1268,-0.1662,-0.2218,-0.2531,-0.29,-0.3325,-0.3437,-0.3647,-0.3887,-0.3216,0.0,0.0,0.0,0.0,0.0,0.0,0.0,-0.8326,-0.896,-1.0064,-1.1819,-1.2659,-1.3547,-1.4441,-1.4589,-1.4852,-1.5133,-1.4977,-1.4909,0.0,0.0,0.0,0.0,0.0,0.0,-1.5181,0.0,0.0,0.0,0.0,0.0,0.0,0.0,0.0,0.0,0.0,0.0,0.0,0.0,-1.6593,-1.7063,-1.7146,-1.7588,-1.802,-1.802,-1.817,-1.838,-1.8753,-1.9015,-1.9276,-1.9582,-1.9634,-1.9746,-1.9955,-2.0007,-2.0123,-2.0511,-2.0596,-2.0653,-2.0885,-2.101,-2.1148,-2.1213,-2.1319,-2.1384,-2.1384,-2.1384,-2.1384,-2.1384,-2.1384,-2.1384,-2.1384,-2.1384,-2.1384,-2.1384,-2.1384,-2.1384,-2.1384,-2.1172,-2.089,-2.0505,-2.001,-1.9405,-1.8702,-1.8474,-1.8205,0.0,0.0,0.0,0.0,-1.7915,-1.7915,-1.7915,-1.7915,-1.7915,-1.7915,-1.7915,-1.7915,-1.7915,0.0,0.0,0.0,0.0,0.0,0.0,0.0,-0.1769,-0.2127,-0.3024,-0.3175,-0.3515,-0.4452,-0.4146,-0.4123,-0.4734,0.0,0.0,0.0,0.0,0.0,0.0,0.0,0.0,-1.0233,-1.0891,-1.2077,-1.3829,-1.4434,-1.5055,-1.5587,-1.5486,-1.5411,-1.5404,-1.5248,-1.5181,0.0,0.0,0.0,0.0,0.0,0.0,0.0,0.0,0.0,0.0,0.0,0.0,0.0,0.0,0.0,0.0,0.0,0.0,0.0,0.0,0.0,0.0,0.0,-1.6754,-1.6978,-1.6978,-1.7398,-1.7811,-1.7863,-1.8282,0.0,-1.8693,-1.8746,-1.891,-1.9456,-1.9561,-1.9833,-2.0499,-2.0637,-2.0694,-2.0918,-2.1035,-2.1205,-2.136,-2.1384,-2.1384,-2.1384,-2.1384,-2.1384,-2.1384,-2.1384,-2.1384,-2.1384,-2.1384,-2.1384,-2.1329,-2.1329,-2.1329,-2.1329,-2.0772,-2.045,-2.034,-1.9254,-1.8695,-1.864,-1.8143,-1.7915,0.0,0.0,0.0,0.0,-1.7915,-1.7915,-1.7915,-1.7915,-1.7915,-1.7915,-1.7915,-1.7915,-1.7915,0.0,0.0,0.0,0.0,0.0,0.0,0.0,0.0,0.0,0.0,-0.3786,-0.4027,-0.405,-0.3986,-0.4123,0.0,0.0,0.0,0.0,0.0,0.0,0.0,0.0,0.0,-1.0846,-1.1884,-1.2906,-1.3876,-1.4772,-1.5342,-1.5587,-1.5486,-1.5411,-1.5404,-1.5248,-1.5181,0.0,0.0,0.0,0.0,0.0,0.0,0.0,0.0,0.0,0.0,-1.558,-1.5805,0.0,0.0,0.0,0.0,0.0,0.0,0.0,0.0,-1.6408,-1.6493,-1.6615,0.0,-1.6978,-1.6978,-1.7398,-1.7915,0.0,-1.8858,-1.9381,-1.9798,-1.9903,-1.9995,-2.0296,-2.032,-2.0478,-2.09,-2.1002,-2.1059,-2.1238,-2.1295,-2.1343,-2.1384,-2.1384,-2.1384,-2.1384,-2.1384,-2.1384,-2.1384,-2.1384,-2.1384,-2.1384,-2.1384,-2.1211,-2.0717,-2.0733,-2.0733,-2.0733,-2.0568,-2.001,-1.9136,-1.8813,-1.8474,-1.8088,-1.7977,-1.7915,0.0,0.0,0.0,-1.7915,-1.7915,-1.7915,-1.7915,-1.7915,-1.7915,-1.7915,-1.7915,-1.7915,-1.7915,0.0,0.0,0.0,0.0,0.0,0.0,0.0,0.0,0.0,0.0,0.0,-0.348,-0.3605,-0.3618,0.0,0.0,0.0,0.0,0.0,0.0,0.0,0.0,-0.9783,-1.0639,-1.1757,-1.2493,-1.3323,-1.4354,-1.4954,-1.5453,-1.5839,-1.5622,-1.5465,-1.5458,-1.5282,-1.5181,0.0,0.0,0.0,0.0,-1.5181,0.0,0.0,0.0,0.0,0.0,-1.5566,-1.5784,0.0,-1.6056,-1.6083,-1.6083,0.0,0.0,0.0,0.0,-1.6463,-1.6571,-1.6795,-1.6917,-1.6978,-1.6978,-1.7601,-1.8222,-1.8536,-1.9276,-1.9979,-2.0381,-2.045,-2.0499,-2.0686,-2.0718,-2.0807,-2.1083,-2.1124,-2.1189,-2.136,-2.1384,-2.1384,-2.1384,-2.1384,-2.1384,-2.1384,-2.1384,-2.1384,-2.1384,-2.1384,-2.1384,-2.1384,-2.1118,-2.0835,-2.0505,-2.0238,-2.0073,-2.0073,-1.9805,-1.9364,-1.8702,-1.8467,-1.8205,-1.7915,-1.7915,-1.7915,0.0,0.0,0.0,-1.7915,-1.7915,-1.7915,-1.7915,-1.7915,-1.7915,-1.7915,-1.7915,-1.7915,-1.7915,0.0,0.0,0.0,0.0,0.0,0.0,0.0,0.0,0.0,0.0,0.0,0.0,0.0,0.0,0.0,0.0,0.0,0.0,0.0,0.0,0.0,-1.0844,-1.0996,-1.1509,-1.2478,-1.2777,-1.3501,-1.4667,-1.4954,-1.5398,-1.5977,-1.5749,-1.56,-1.545,-1.512,-1.5006,-1.512,0.0,0.0,0.0,-1.5228,0.0,0.0,0.0,0.0,0.0,0.0,0.0,0.0,-1.6029,-1.6083,-1.6083,-1.6083,0.0,0.0,0.0,0.0,0.0,-1.6897,-1.6978,-1.6978,-1.6978,-1.7811,-1.8589,-1.8589,-1.9501,-2.0409,-2.0564,-2.0621,-2.0686,-2.0918,-2.095,-2.0954,-2.1132,-2.1165,-2.1213,-2.136,-2.1384,-2.1384,-2.1384,-2.1384,-2.1384,-2.1384,-2.1384,-2.1384,-2.1384,-2.1384,-2.1384,-2.1266,-2.0772,-2.0395,-2.0238,-1.9743,-1.9405,-1.935,-1.8909,-1.864,-1.8585,-1.8143,-1.7915,-1.7915,-1.7915,-1.7915,-1.7915,0.0,0.0,-1.7915,-1.7915,-1.7915,-1.7915,-1.7915,-1.7915,-1.7915,-1.7936,-1.7956,-1.7956,0.0,0.0,0.0,0.0,0.0,0.0,0.0,0.0,0.0,0.0,0.0,0.0,0.0,0.0,0.0,0.0,0.0,0.0,0.0,0.0,0.0,-1.1622,-1.1781,-1.1897,-1.2099,-1.272,-1.3206,-1.3546,-1.4611,-1.52,-1.5423,-1.5703,-1.5488,-1.4817,-1.4175,-1.4263,-1.48,-1.48,0.0,0.0,-1.5425,0.0,0.0,0.0,0.0,0.0,0.0,0.0,0.0,-1.6029,-1.6083,-1.6083,-1.6083,0.0,0.0,0.0,0.0,0.0,-1.6897,-1.6978,-1.6978,-1.6978,-1.7811,-1.8589,-1.8589,-1.9594,-2.0564,-2.0588,-2.0763,-2.0926,-2.1051,-2.1083,-2.114,-2.1319,-2.1343,-2.136,-2.1384,-2.1384,-2.1384,-2.1384,-2.1384,-2.1384,-2.1384,-2.1384,-2.1384,-2.1384,-2.1384,-2.1156,-2.0678,-2.0568,-2.001,-1.9026,-1.8868,-1.864,-1.815,-1.853,-1.8474,-1.8033,-1.7922,-1.7915,-1.7915,-1.7915,-1.7915,-1.7915,0.0,-1.7915,-1.7915,-1.7915,-1.7915,-1.7915,-1.7915,-1.7915,-1.7936,-1.8002,-1.8057,-1.8077,0.0,0.0,0.0,0.0,0.0,0.0,0.0,0.0,0.0,0.0,0.0,0.0,0.0,0.0,0.0,0.0,0.0,0.0,0.0,-1.0633,-1.1309,-1.2004,-1.2058,-1.2058,-1.1987,-1.253,-1.2995,-1.3407,-1.4099,-1.4668,-1.505,-1.5087,-1.479,-1.4318,-1.4022,-1.4028,-1.4324,-1.4613,-1.4899,0.0,0.0,0.0,0.0,0.0,0.0,0.0,0.0,0.0,0.0,0.0,-1.6083,-1.6083,-1.6083,0.0,0.0,0.0,0.0,0.0,-1.6917,-1.6978,-1.6978,-1.6978,-1.7811,-1.8611,-1.876,-1.974,-2.0653,-2.084,-2.0945,-2.1059,-2.123,-2.1254,-2.1295,-2.136,-2.1384,-2.1384,-2.1384,-2.1384,-2.1384,-2.1384,-2.1384,-2.1384,-2.1384,-2.1384,-2.1266,-2.0945,-2.089,-2.0623,-2.0073,-1.9687,-1.9254,-1.8702,-1.8412,-1.815,-1.7915,-1.815,-1.815,-1.7915,-1.7915,-1.7915,-1.7915,-1.7915,-1.7915,-1.7915,0.0,-1.7915,-1.7915,-1.7915,-1.7915,-1.7915,-1.8004,-1.7989,-1.8002,-1.8158,-1.8213,-1.8233,0.0,0.0,0.0,0.0,0.0,0.0,0.0,0.0,0.0,0.0,0.0,0.0,0.0,0.0,0.0,0.0,0.0,0.0,0.0,-1.0952,-1.1536,-1.2118,-1.2203,-1.2129,-1.2031,-1.2362,-1.2786,-1.3296,-1.3697,-1.4192,-1.4777,-1.4415,-1.4131,-1.3927,-1.3721,-1.3757,-1.3933,-1.4323,-1.4682,-1.4951,0.0,0.0,0.0,0.0,0.0,0.0,0.0,0.0,0.0,0.0,0.0,0.0,0.0,0.0,0.0,-1.6524,-1.6608,-1.673,-1.6937,-1.6978,-1.6978,-1.6978,-1.7811,-1.8633,-1.8857,-1.9826,-2.0742,-2.1059,-2.1157,-2.123,-2.136,-2.1384,-2.1384,-2.1384,-2.1384,-2.1384,-2.1384,-2.1384,-2.1384,-2.1384,-2.1384,-2.1384,-2.1384,-2.1266,-2.1,-2.0505,-2.0395,-2.001,-1.9405,-1.8964,-1.864,-1.853,-1.8088,-1.7915,-1.7915,-1.7915,-1.7915,-1.7915,-1.7915,-1.7915,-1.7915,-1.7915,-1.7915,-1.7915,-1.7915,-1.7915,-1.7915,-1.7956,-1.797,-1.7935,-1.8091,-1.8165,-1.8213,-1.8321,-1.8389,-1.8423,0.0,0.0,0.0,0.0,0.0,0.0,0.0,0.0,0.0,0.0,0.0,0.0,0.0,0.0,0.0,0.0,0.0,0.0,0.0,-1.1331,-1.1827,-1.1998,-1.2112,-1.2214,-1.2209,-1.2406,-1.2591,-1.2754,-1.3496,-1.4192,-1.4777,-1.4057,-1.3728,-1.3699,-1.2928,-1.2938,-1.3531,-1.358,-1.4243,-1.5235,-1.5161,0.0,0.0,0.0,0.0,0.0,0.0,0.0,0.0,0.0,0.0,0.0,0.0,0.0,-1.6368,-1.6601,-1.6689,-1.673,-1.6937,-1.6978,-1.6978,-1.6978,-1.7811,-1.8633,-1.8857,-1.992,-2.0942,-2.1083,-2.1254,-2.136,-2.1384,-2.1384,-2.1384,-2.1384,-2.1384,-2.1384,-2.1384,-2.1384,-2.1384,-2.1384,-2.1384,-2.1384,-2.1384,-2.089,-2.0568,-2.0505,-1.9955,-1.9405,-1.8813,-1.8702,-1.8474,-1.7977,-1.7922,-1.7915,-1.7915,-1.7915,-1.7915,-1.7915,-1.7915,-1.7915,-1.7915,-1.7915,-1.7915,-1.7915,-1.7915,-1.7915,-1.7936,-1.8023,-1.8077,-1.8091,-1.8247,-1.8332,-1.8498,-1.8454,-1.8599,-1.8786,0.0,0.0,0.0,0.0,0.0,0.0,0.0,0.0,0.0,0.0,0.0,-0.6168,-0.7436,0.0,0.0,0.0,0.0,0.0,-1.0683,-1.1297,-1.1792,-1.1982,-1.2031,-1.195,-1.1694,-1.1881,-1.209,-1.2266,-1.2898,-1.3281,-1.345,-1.3388,-1.3373,-1.3296,-1.293,-1.288,-1.3167,-1.3466,-1.3892,-1.4333,-1.4626,-1.4805,0.0,0.0,0.0,0.0,0.0,0.0,0.0,0.0,-1.3986,-1.4401,-1.4843,-1.5405,-1.6031,-1.6538,-1.6763,-1.6924,-1.7073,-1.7114,-1.724,-1.7709,-1.8369,-1.8916,-1.9082,-2.0084,-2.1075,-2.1254,-2.1343,-2.1384,-2.1384,-2.1384,-2.1384,-2.1384,-2.1384,-2.1384,-2.1384,-2.1384,-2.1384,-2.1384,-2.1063,-2.0835,-2.0835,-2.0278,-1.9805,-1.9405,-1.9192,-1.8813,-1.8205,-1.8205,-1.8088,-1.7915,-1.7915,-1.7915,-1.7915,-1.7915,-1.7915,-1.7915,-1.7915,-1.7915,-1.7915,-1.7915,-1.7915,-1.7915,-1.7968,-1.8002,-1.8023,-1.8165,-1.8233,-1.8247,-1.8389,-1.8552,-1.8674,-1.8674,-1.8708,-1.882,0.0,0.0,0.0,0.0,0.0,0.0,0.0,0.0,0.0,0.0,0.0,0.0,0.0,-0.9163,0.0,0.0,0.0,0.0,-1.0807,-1.1302,-1.1681,-1.1928,-1.1832,-1.1626,-1.1411,-1.0926,-1.1025,-1.1734,-1.2343,-1.2609,-1.2527,-1.2986,-1.3145,-1.3064,-1.2944,-1.289,-1.294,-1.329,-1.354,-1.374,-1.3934,-1.403,0.0,0.0,0.0,0.0,0.0,0.0,0.0,0.0,-1.2465,-1.3101,-1.3976,-1.4812,-1.5596,-1.6508,-1.6897,-1.7012,-1.7154,-1.7195,-1.7389,-1.813,-1.8747,-1.9269,-1.9477,-2.0333,-2.1173,-2.1343,-2.1384,-2.1384,-2.1384,-2.1384,-2.1384,-2.1384,-2.1384,-2.1384,-2.1384,-2.1384,-2.1329,-2.1118,-2.0772,-2.045,-2.0238,-1.9687,-1.9136,-1.8757,-1.853,-1.8316,-1.7922,-1.7915,-1.7915,-1.7915,-1.7915,-1.7915,-1.7915,-1.7915,-1.7915,-1.7915,-1.7915,-1.7915,-1.7915,-1.7914,-1.7935,-1.7948,-1.8091,-1.8158,-1.8179,-1.8321,-1.8409,-1.8464,-1.8565,-1.8674,-1.882,-1.882,-1.882,-1.882,0.0,0.0,0.0,0.0,0.0,0.0,0.0,0.0,-0.1808,-0.3236,-0.5047,0.0,0.0,0.0,0.0,0.0,-1.088,0.0,-1.1112,-1.1394,-1.1643,-1.1768,-1.1418,-1.1247,-1.1364,-0.9467,-0.9314,-1.1076,-1.1947,-1.2364,-1.241,-1.2869,-1.3069,-1.3064,-1.2944,-1.289,-1.289,-1.289,-1.319,-1.364,-1.309,-1.3184,-1.3599,0.0,0.0,0.0,0.0,0.0,0.0,0.0,-1.0662,-1.1507,-1.2844,-1.4008,-1.5146,-1.6576,-1.6978,-1.7012,-1.7154,-1.7195,-1.7389,-1.813,-1.8881,-1.955,-2.0194,-2.0745,-2.1181,-2.1343,-2.1384,-2.1384,-2.1384,-2.1384,-2.1384,-2.1384,-2.1384,-2.1384,-2.1384,-2.1384,-2.1172,-2.0568,-2.0505,-2.0246,-1.9632,-1.9026,-1.8702,-1.8702,-1.8205,-1.7915,-1.7915,-1.7915,-1.7915,-1.7915,-1.7915,-1.7915,-1.7915,-1.7915,-1.7915,-1.7915,-1.7915,-1.7915,-1.7915,-1.8023,-1.8091,-1.8111,-1.8247,-1.8321,-1.8335,-1.8477,-1.862,-1.882,-1.882,-1.882,-1.882,-1.882,-1.882,-1.882,0.0,0.0,0.0,0.0,0.0,0.0,0.0,0.0,-0.2649,-0.37,-0.5515,0.0,0.0,0.0,0.0,0.0,0.0,-1.1303,-1.1226,-1.109,-1.1061,-1.1309,-1.0511,-0.9817,-0.9324,-0.7404,-0.7095,-0.8485,-0.9589,-1.0355,-1.0712,-1.1594,-1.1952,-1.1998,-1.2235,-1.2334,-1.2339,-1.274,-1.279,-1.2534,-1.2384,-1.1984,-1.1359,0.0,0.0,0.0,0.0,0.0,0.0,0.0,0.0,0.0,-1.1623,-1.3186,-1.458,-1.5942,-1.6663,-1.7032,-1.7283,-1.7673,-1.8166,-1.9035,-1.9685,-2.031,-2.092,-2.1202,-2.1295,-2.1213,-2.1295,-2.1343,-2.1222,-2.1295,-2.1384,-2.1384,-2.1384,-2.1384,-2.1384,-2.1008,-2.0678,-2.0505,-1.975,-1.9136,-1.8964,-1.8467,-1.815,-1.815,-1.7977,-1.7915,-1.7915,-1.7915,-1.7915,-1.7915,-1.7915,-1.7915,-1.7915,-1.7915,-1.7915,-1.7915,-1.8024,-1.8023,-1.8023,-1.8077,-1.8145,-1.8267,-1.8409,-1.8464,-1.8477,-1.864,-1.8728,-1.882,-1.882,-1.882,-1.882,-1.882,-1.882,-1.882,0.0,0.0,0.0,0.0,0.0,0.0,-0.1497,-0.2471,-0.3405,-0.3952,-0.5662,-0.7053,0.0,0.0,0.0,-1.0105,-1.0899,-1.128,-1.1056,-1.0809,-1.062,-1.0519,-0.9559,-0.8222,-0.6606,-0.5252,-0.4842,-0.5418,-0.7223,-0.8351,-0.8964,-0.9982,-1.0569,-1.0817,-1.1261,-1.1583,-1.1783,-1.2088,-1.1893,-1.1428,-1.0935,-1.014,-0.9151,0.0,0.0,0.0,0.0,0.0,0.0,0.0,0.0,0.0,-1.0394,-1.2153,-1.3796,-1.5576,-1.6558,-1.7046,-1.7338,-1.785,-1.846,-1.9064,-1.99,-2.06,-2.0865,-2.1171,-2.136,-2.1254,-2.1319,-2.136,-2.1246,-2.1319,-2.1384,-2.1384,-2.1384,-2.1329,-2.1063,-2.0717,-2.0333,-1.9845,-1.9136,-1.864,-1.8412,-1.8088,-1.7915,-1.7915,-1.7915,-1.7915,-1.7915,-1.7915,-1.7915,-1.7915,-1.7915,-1.7915,-1.7915,-1.7915,-1.7956,-1.8004,-1.8036,-1.8145,-1.8267,-1.8267,-1.8321,-1.8409,-1.8565,-1.862,-1.864,-1.8728,-1.882,-1.882,-1.882,-1.882,-1.882,-1.882,-1.882,-1.882,0.0,0.0,-0.2775,-0.2717,0.0,-0.2864,-0.2897,-0.3658,-0.4246,-0.421,-0.5717,-0.6877,0.0,0.0,0.0,-0.9711,-1.0732,-1.1168,-1.0624,-1.05,-1.0121,-0.9412,-0.8281,-0.6386,-0.3629,-0.3126,-0.2663,-0.2242,-0.4869,-0.6399,-0.7006,-0.8112,-0.8866,-0.9418,-1.0028,-1.0576,-1.1063,-1.0915,-1.0631,-1.0158,-0.8971,-0.7941,-0.6932,-0.5727,0.0,0.0,0.0,0.0,0.0,0.0,0.0,0.0,-0.91,-1.1003,-1.2796,-1.5237,-1.638,-1.6973,-1.7338,-1.7836,-1.833,-1.8589,-1.954,-2.0373,-2.0202,-2.0723,-2.1226,-2.1281,-2.1281,-2.1305,-2.136,-2.1384,-2.1384,-2.1384,-2.1329,-2.1118,-2.0568,-2.0395,-1.9955,-1.8813,-1.864,-1.8412,-1.7977,-1.7915,-1.7915,-1.7915,-1.7915,-1.7915,-1.7915,-1.7915,-1.7915,-1.7915,-1.7915,-1.7915,-1.7915,-1.7936,-1.8004,-1.8091,-1.8124,-1.8267,-1.8474,-1.8474,-1.8531,-1.8565,-1.8708,-1.882,-1.882,-1.882,-1.882,-1.882,-1.882,-1.882,-1.882,-1.882,-1.882,-1.882,0.0,0.0,-0.4131,-0.3779,0.0,0.0,-0.4279,-0.5334,-0.6026,-0.5741,-0.6926,-0.7746,-0.7557,-0.8774,0.0,-0.9707,-1.0354,-1.0732,-1.0618,-0.9304,-0.8275,-0.7799,-0.5441,-0.3443,-0.2005,-0.152,-0.1237,-0.1158,-0.2974,-0.4186,-0.474,-0.5796,-0.6603,-0.7207,-0.8166,-0.8886,-0.9323,-0.9299,-0.9001,-0.8424,-0.7358,-0.6269,-0.523,-0.4138,-0.3271,0.0,0.0,0.0,0.0,0.0,0.0,0.0,-0.7251,-0.942,-1.1548,-1.3956,-1.5391,-1.6367,-1.7197,-1.7767,-1.8227,-1.8487,-1.9009,-1.9446,-1.9462,-1.9531,-1.9777,-2.0216,-2.0426,-2.0684,-2.1072,-2.1295,-2.1384,-2.1384,-2.1,-2.0623,-2.0505,-1.9687,-1.8964,-1.8757,-1.8357,-1.8033,-1.7915,-1.7915,-1.7915,-1.7915,-1.7915,-1.7915,-1.7915,-1.7915,-1.7915,-1.7915,-1.7915,-1.7915,-1.7915,-1.7989,-1.8057,0.0,-1.8321,-1.842,-1.8474,-1.8474,-1.8599,-1.8766,-1.88,-1.882,-1.882,-1.882,-1.882,-1.882,-1.882,-1.882,-1.882,-1.882,-1.882,-1.882,0.0,0.0,0.0,0.0,0.0,0.0,0.0,0.0,-0.7547,-0.7209,-0.8079,-0.8623,-0.8299,-0.9085,0.0,0.0,-0.9778,-0.9685,-0.925,-0.7935,-0.6569,-0.5265,-0.33,-0.192,-0.117,-0.0686,-0.0396,-0.0401,-0.126,-0.2069,-0.2876,-0.3699,-0.4507,-0.5345,-0.6182,-0.6799,-0.7255,-0.7221,-0.6762,-0.6021,-0.5158,-0.418,-0.316,-0.2348,-0.1701,-0.1209,-0.0915,0.0,0.0,0.0,0.0,0.0,0.0,0.0,-1.0385,-1.2812,-1.4463,-1.5787,-1.6676,-1.7477,-1.8216,-1.8722,-1.8549,-1.832,-1.8594,-1.8647,-1.883,-1.9493,-1.9962,-2.0489,-2.1129,-2.1319,-2.1329,-2.1,-2.0733,-2.0278,-1.9743,-1.9081,-1.8585,-1.8357,-1.8088,-1.7915,-1.7915,-1.7915,-1.7915,-1.7915,-1.7915,-1.7915,-1.7915,-1.7915,-1.7915,-1.7915,-1.7915,-1.7956,-1.8024,-1.8057,-1.8158,-1.8301,-1.8407,-1.8565,-1.864,-1.864,-1.8694,-1.882,-1.882,-1.882,-1.882,-1.882,-1.882,-1.882,-1.882,-1.882,-1.882,-1.882,-1.8581,-1.8356,0.0,0.0,0.0,0.0,0.0,0.0,0.0,0.0,0.0,-0.8484,-0.9048,-0.9361,-0.8951,-0.9276,-0.9474,0.0,0.0,0.0,-0.7494,-0.6347,-0.4753,-0.2634,-0.1696,-0.1052,-0.0677,-0.0244,0.0,0.0,0.0,-0.0454,-0.1313,-0.1889,-0.2656,-0.3599,-0.4139,-0.4667,-0.5178,-0.5026,-0.4463,-0.3625,-0.296,-0.2187,-0.1419,-0.0874,-0.0387,0.0,0.0,-0.0288,-0.0678,-0.0684,0.0,0.0,0.0,0.0,-0.8858,-1.1297,-1.3167,-1.4735,-1.5804,-1.6916,-1.7975,-1.8662,-1.7996,-1.7314,-1.7798,-1.8031,-1.8308,-1.905,-1.98,-2.052,-2.125,-2.1329,-2.1063,-2.0568,-2.0333,-1.9845,-1.8813,-1.864,-1.8412,-1.7977,-1.7915,-1.7915,-1.7915,-1.7915,-1.7915,-1.7915,-1.7915,-1.7915,-1.7915,-1.7915,-1.7915,-1.7915,-1.7936,-1.7968,-1.8091,-1.8145,-1.8287,-1.8474,-1.8565,-1.864,-1.882,-1.882,-1.882,-1.882,-1.882,-1.882,-1.882,-1.8796,-1.8854,-1.8854,-1.883,-1.8772,-1.8727,-1.8727,-1.8306,-1.7741,0.0,0.0,0.0,0.0,0.0,0.0,0.0,0.0,0.0,0.0,-0.9721,-0.9738,-0.8993,-0.9147,-0.9077,-0.8366,-0.7883,-0.7289,-0.6469,0.0,0.0,-0.1064,-0.0468,-0.019,-0.0097,-0.0048,0.0,0.0,0.0,-0.005,-0.0202,-0.0771,-0.1346,-0.1964,-0.2484,-0.2973,-0.3421,-0.2968,-0.2699,-0.2452,-0.1505,-0.1016,-0.0872,-0.029,-0.0048,0.0,0.0,-0.0048,-0.0097,-0.0097,-0.0537,0.0,0.0,0.0,-0.5949,-0.8719,-1.0788,-1.2528,-1.4289,-1.5664,-1.675,-1.7172,-1.7184,-1.7065,-1.7117,-1.7636,-1.8308,-1.9057,-1.9808,-2.052,-2.125,-2.0945,-2.0568,-2.0505,-1.9632,-1.8868,-1.8702,-1.8316,-1.7977,-1.7915,-1.7915,-1.7915,-1.7915,-1.7915,-1.7915,-1.7915,-1.7915,-1.7915,-1.7915,-1.7915,-1.7915,-1.7915,-1.7989,-1.8077,-1.8091,-1.8335,-1.844,-1.8474,-1.8674,-1.8742,-1.882,-1.882,-1.882,-1.882,-1.882,-1.882,-1.8841,-1.8905,-1.8959,-1.8972,-1.9094,-1.878,-1.8253,-1.8253,-1.7904,-1.7369,0.0,0.0,0.0,0.0,0.0,0.0,0.0,0.0,0.0,0.0,0.0,-0.9487,-0.8951,-0.8452,-0.7859,-0.6984,-0.6033,-0.4907,-0.3541,-0.2159,-0.1036,-0.0318,-0.0093,0.0,0.0,0.0,0.0,0.0,0.0,0.0,0.0,-0.0261,-0.0629,-0.1142,-0.1416,-0.1607,-0.1817,-0.1602,-0.1289,-0.0981,-0.0537,-0.0341,-0.0341,-0.0098,0.0,0.0,0.0,0.0,0.0,0.0,-0.034,-0.0925,-0.1655,0.0,0.0,0.0,-0.8421,-1.0389,-1.3193,-1.4587,-1.5376,-1.5914,-1.6288,-1.6505,-1.6505,-1.7305,-1.8202,-1.8628,-1.9267,-2.0031,-2.0756,-2.0678,-2.0278,-1.9577,-1.9026,-1.8585,-1.8316,-1.8033,-1.7915,-1.7915,-1.7915,-1.7915,-1.7915,-1.7915,-1.7915,-1.7915,-1.7915,-1.7915,-1.7915,-1.7915,-1.7956,-1.7989,-1.8057,-1.8179,-1.8335,-1.8464,-1.8565,-1.8654,-1.8786,-1.882,-1.882,-1.882,-1.882,-1.882,-1.882,-1.8816,-1.8905,-1.8959,-1.904,-1.9115,-1.9183,-1.8794,-1.8199,-1.8199,-1.7603,-1.6775,0.0,0.0,0.0,0.0,0.0,0.0,0.0,0.0,0.0,0.0,0.0,-0.9221,-0.8746,0.0,0.0,0.0,-0.4532,-0.3041,-0.1243,-0.0747,-0.0358,0.0,0.0,0.0,0.0,0.0,0.0,0.0,0.0,0.0,0.0,0.0,-0.0212,-0.0577,-0.0585,-0.0579,-0.0614,-0.0608,-0.0351,0.0,0.0,0.0,0.0,0.0,0.0,0.0,0.0,0.0,0.0,0.0,-0.029,-0.0675,-0.1012,-0.1796,0.0,0.0,0.0,-0.8752,-1.1793,-1.3087,-1.3822,-1.4464,-1.5129,-1.5666,-1.5862,-1.6928,-1.7921,-1.8195,-1.8859,-1.9525,-1.9934,-1.9995,-1.975,-1.8868,-1.8585,-1.8357,-1.7977,-1.7915,-1.7915,-1.7915,-1.7915,-1.7915,-1.7915,-1.7915,-1.7915,-1.7915,-1.7915,-1.7915,-1.7915,-1.7915,-1.7935,-1.8091,-1.8124,-1.8267,-1.8474,-1.8565,-1.8654,-1.882,-1.882,-1.882,-1.882,-1.882,-1.8841,-1.8875,-1.8875,-1.8884,-1.8993,-1.9081,-1.9169,-1.9271,-1.9305,-1.8893,-1.8355,-1.8355,-1.7589,-1.6701,0.0,0.0,0.0,0.0,0.0,0.0,0.0,0.0,0.0,0.0,0.0,-0.9072,-0.8236,-0.7581,-0.653,-0.4915,-0.3849,-0.253,-0.0823,-0.0305,0.0,0.0,0.0,0.0,0.0,0.0,0.0,0.0,0.0,0.0,0.0,0.0,0.0,-0.0054,-0.0054,-0.0054,-0.0053,-0.0051,-0.005,0.0,0.0,0.0,0.0,0.0,0.0,0.0,0.0,0.0,0.0,0.0,0.0,-0.0048,-0.0048,-0.0481,-0.1162,0.0,0.0,0.0,-0.9682,-1.1004,-1.1987,-1.2662,-1.3636,-1.4563,-1.5206,-1.634,-1.7408,-1.8007,-1.8786,-1.9223,-1.8686,-1.8706,-1.8757,-1.8702,-1.826,-1.7922,-1.7915,-1.7915,-1.7915,-1.7915,-1.7915,-1.7915,-1.7915,-1.7915,-1.7915,-1.7915,-1.7915,-1.7915,-1.7915,-1.7915,-1.7935,-1.8091,-1.8233,-1.8375,-1.8474,-1.8674,-1.8762,-1.882,-1.882,-1.882,-1.882,-1.882,-1.885,-1.8972,-1.8972,-1.8993,-1.9006,-1.9291,-1.9353,-1.9434,-1.9576,-1.9266,-1.8658,-1.8658,-1.8239,-1.763,0.0,0.0,0.0,0.0,0.0,0.0,0.0,0.0,0.0,0.0,0.0,0.0,0.0,-0.6759,-0.5763,-0.4011,-0.2737,-0.1805,-0.1203,-0.1003,0.0,0.0,-0.096,-0.0973,-0.0973,-0.0659,-0.0522,-0.0522,-0.0145,0.0,0.0,0.0,0.0,0.0,0.0,0.0,0.0,0.0,0.0,0.0,0.0,0.0,0.0,0.0,0.0,0.0,0.0,0.0,0.0,0.0,0.0,0.0,0.0,-0.0145,-0.0484,-0.1596,-0.3474,-0.5516,-0.6908,-0.8373,-0.9714,-1.08,-1.2214,-1.3507,-1.4517,-1.5636,-1.6736,-1.7518,-1.7911,-1.8097,-1.8136,-1.8432,-1.8585,-1.826,-1.8033,-1.7915,-1.7915,-1.7915,-1.7915,-1.7915,-1.7915,-1.7915,-1.7915,-1.7915,-1.7915,-1.7915,-1.7915,-1.7915,-1.7915,-1.8004,-1.8077,-1.8233,-1.8375,-1.8531,-1.8674,-1.8786,-1.882,-1.882,-1.882,-1.882,-1.882,-1.8871,-1.8938,-1.9006,-1.9183,-1.9271,-1.9291,-1.9333,-1.9481,-1.959,-1.9644,-1.9286,-1.8677,-1.8677,-1.8257,-1.7709,0.0,0.0,0.0,-1.167,0.0,-1.1227,-1.0282,-1.0038,-0.9631,-0.8797,0.0,0.0,0.0,0.0,-0.5897,-0.4059,-0.2946,-0.2297,-0.2159,-0.2154,-0.2001,-0.1696,-0.1742,-0.1673,-0.1482,-0.1035,-0.0807,-0.0807,-0.0242,0.0,0.0,0.0,0.0,0.0,0.0,0.0,0.0,0.0,0.0,0.0,0.0,0.0,0.0,0.0,0.0,0.0,0.0,-0.0104,-0.0309,-0.0305,-0.0402,-0.0549,-0.0342,-0.0145,-0.0193,-0.1059,-0.2229,-0.3428,-0.4559,-0.5944,-0.737,-0.8685,-1.0267,-1.1891,-1.3237,-1.4592,-1.5813,-1.6749,-1.719,-1.748,-1.7684,-1.8129,-1.8302,-1.7977,-1.7915,-1.7915,-1.7915,-1.7915,-1.7915,-1.7915,-1.7915,-1.7915,-1.7915,-1.7915,-1.7915,-1.7915,-1.7915,0.0,-1.7935,-1.8036,-1.8179,-1.8332,-1.8531,-1.8654,-1.882,-1.882,-1.882,-1.882,-1.882,-1.8796,-1.885,-1.8938,-1.904,-1.9149,-1.9345,-1.9374,-1.9434,-1.9481,-1.9569,-1.9725,-1.9725,-1.9408,-1.9049,-1.9049,-1.8738,-1.8379,-1.2025,-1.2004,-1.1966,-1.1851,-1.1686,-1.1427,-1.0902,-1.07,-1.0413,-0.9865,0.0,0.0,0.0,0.0,0.0,-0.5175,-0.462,-0.4189,-0.3707,-0.3746,-0.3335,-0.2369,-0.2371,-0.2153,-0.1623,-0.1171,-0.0895,-0.0848,-0.0336,-0.0049,0.0,0.0,0.0,0.0,0.0,0.0,0.0,0.0,0.0,0.0,0.0,0.0,0.0,0.0,0.0,0.0,0.0,-0.0374,-0.0894,-0.0886,-0.1233,-0.1614,-0.1087,-0.0485,-0.0095,-0.062,-0.1152,-0.1789,0.0,0.0,0.0,-0.6261,-0.7876,-0.9628,-1.1428,-1.3169,-1.4704,-1.5868,-1.6783,-1.7419,-1.7426,-1.767,-1.786,-1.7915,-1.7915,-1.7915,-1.7915,-1.7915,-1.7915,-1.7915,-1.7915,-1.7915,-1.7915,-1.7915,-1.7915,-1.7915,-1.7915,-1.7935,-1.8091,-1.8091,-1.8233,-1.8474,-1.8694,-1.882,-1.882,-1.882,-1.882,-1.882,-1.882,-1.885,-1.8993,-1.8993,-1.9149,-1.9374,-1.9434,-1.9434,-1.9447,-1.961,-1.9725,-1.9725,-1.9725,-1.9725,-1.9725,-1.9725,-1.9725,-1.9725,-1.2357,-1.2384,-1.2319,-1.2112,-1.2047,-1.1789,-1.1047,-1.093,-1.0689,0.0,0.0,0.0,-0.9193,-0.8453,-0.7776,-0.7247,-0.6853,-0.6407,-0.5861,-0.5919,-0.5661,-0.5071,-0.5089,-0.4898,-0.4395,-0.3954,-0.3297,-0.2521,-0.162,-0.0945,-0.0554,-0.0205,0.0,0.0,0.0,0.0,0.0,0.0,0.0,0.0,0.0,0.0,0.0,0.0,0.0,0.0,0.0,-0.0386,-0.0926,-0.0913,-0.1273,-0.167,-0.1105,-0.049,-0.0048,-0.0191,-0.0621,-0.115,-0.1835,0.0,0.0,0.0,0.0,0.0,-1.0268,-1.2319,-1.4147,-1.5411,-1.6503,-1.7324,-1.7494,-1.7595,-1.7738,-1.7902,-1.7915,-1.7915,-1.7915,-1.7915,-1.7915,-1.7915,-1.7915,-1.7915,-1.7915,-1.7915,-1.7915,0.0,-1.7915,-1.7935,-1.8091,-1.8287,-1.8498,-1.8694,-1.8742,-1.882,-1.882,-1.882,-1.882,-1.882,-1.882,-1.885,-1.8993,-1.9094,-1.9257,-1.9434,-1.9556,-1.959,-1.961,-1.9705,-1.9725,-1.9725,-1.9725,-1.9725,-1.9725,-1.9725,-1.9725,-1.9725,-1.2461,-1.2488,-1.2444,-1.2346,-1.2324,-1.2142,-1.1651,-1.1568,-1.1433,0.0,0.0,0.0,-1.0343,-0.9647,-0.9173,-0.913,-0.8949,-0.8457,-0.7646,-0.7675,-0.7333,-0.6465,-0.6484,-0.6305,-0.5881,-0.5378,-0.4708,-0.3875,-0.3021,-0.2196,-0.1456,-0.117,-0.0873,-0.0672,-0.0684,-0.0581,-0.0316,-0.0374,-0.0215,0.0,0.0,0.0,0.0,-0.0283,-0.0398,-0.0399,-0.0681,-0.1356,-0.2077,-0.2316,-0.2749,-0.309,-0.248,-0.168,-0.0923,-0.0481,-0.0576,-0.0864,-0.1159,-0.19,-0.2816,-0.4015,0.0,0.0,-0.9111,-1.1262,-1.3243,-1.4432,-1.5924,-1.7016,-1.7135,-1.7479,-1.7772,-1.7902,-1.7915,-1.7915,-1.7915,-1.7915,-1.7915,-1.7915,-1.7915,-1.7915,-1.7915,-1.7915,-1.7915,-1.7915,-1.797,-1.8057,-1.8267,-1.8498,-1.8674,-1.882,-1.882,-1.882,-1.882,-1.882,-1.8639,-1.84,-1.8415,-1.8574,-1.8733,-1.8866,-1.9133,-1.9535,-1.9624,-1.9725,-1.9725,-1.9725,-1.9725,-1.9725,-1.9725,-1.9725,-1.9725,-1.9725,-1.9725,-1.9725,0.0,-1.2526,-1.252,-1.2509,-1.2515,-1.2531,-1.246,-1.2454,-1.2421,0.0,-1.2301,-1.2111,-1.1683,-1.1254,-1.092,-1.086,-1.085,-1.0385,-0.9305,-0.9288,-0.8712,-0.7411,-0.7429,-0.7255,-0.688,-0.6393,-0.5803,-0.5165,-0.4613,-0.3834,-0.2742,-0.2689,-0.2456,-0.1998,-0.1983,-0.163,-0.1105,-0.1115,-0.0804,-0.0271,-0.022,-0.0279,-0.0395,-0.0975,-0.1211,-0.1327,-0.196,-0.2938,-0.4018,-0.4623,-0.5048,-0.5192,-0.4587,-0.3601,-0.2408,-0.1363,-0.097,-0.0872,-0.0872,-0.1171,-0.1782,-0.2949,-0.4432,0.0,-0.774,-0.9886,-1.1848,-1.2984,-1.4856,-1.6321,-1.6515,-1.7219,-1.7784,-1.786,-1.7915,-1.7915,-1.7915,-1.7915,-1.7915,-1.7915,-1.7915,-1.7915,-1.7915,-1.7915,-1.7915,-1.7915,-1.8023,-1.8233,-1.8511,-1.8674,-1.882,-1.882,-1.882,-1.882,-1.882,-1.8704,-1.842,-1.7794,-1.7851,-1.8064,-1.835,-1.8467,-1.8958,-1.9725,-1.9725,-1.9725,-1.9725,-1.9725,-1.9725,-1.9725,-1.9725,-1.9725,-1.9725,-1.9725,-1.9725,-1.9725,-1.2797,-1.2819,-1.2786,-1.2689,-1.2754,-1.2776,-1.2656,-1.2721,-1.2776,-1.2754,-1.2748,-1.2748,-1.2649,-1.2551,-1.2404,-1.2282,-1.2271,-1.198,-1.1283,-1.1249,-1.0969,-1.029,-1.0313,-1.0123,-0.972,-0.9574,-0.8871,-0.7471,-0.6929,-0.6082,-0.4977,-0.4628,-0.4447,-0.4297,-0.3961,-0.3468,-0.2839,-0.2442,-0.2205,-0.2075,-0.1655,-0.186,-0.2431,-0.3035,-0.3294,-0.3371,-0.3992,-0.4667,-0.5377,-0.6381,-0.6374,-0.592,-0.5766,-0.4868,-0.3706,-0.3077,-0.2215,-0.142,-0.142,-0.1183,-0.1247,-0.2393,-0.3298,0.0,-0.5466,-0.7553,-0.9477,-1.0676,-1.2754,-1.4675,-1.5808,-1.6544,-1.7231,-1.7784,-1.7915,-1.7915,-1.7915,-1.7915,-1.7915,-1.7915,-1.7915,-1.7915,-1.7915,-1.7915,-1.7915,-1.7915,-1.8124,-1.8355,-1.8511,-1.8674,-1.882,-1.882,-1.882,-1.882,-1.882,-1.824,-1.7994,-1.7988,-1.7497,-1.77,-1.8486,-1.8505,-1.8958,-1.9725,-1.9725,-1.9725,-1.9725,-1.9725,-1.9725,-1.9725,-1.9725,-1.9725,-1.9725,-1.9725,-1.9725,-1.9739,-1.2966,-1.2928,-1.2868,-1.2808,-1.2895,-1.296,-1.2895,-1.2988,-1.3064,-1.3064,-1.3118,-1.3178,-1.3238,-1.3243,-1.3172,-1.2988,-1.2971,-1.2645,-1.1975,-1.1965,-1.1768,-1.1328,-1.1282,-1.1229,-1.1028,-1.1033,-1.0498,-0.9384,-0.9132,-0.8399,-0.7257,-0.7071,-0.6846,-0.6596,-0.6148,-0.5463,-0.4625,-0.4105,-0.3943,-0.3887,-0.3104,-0.3168,-0.3879,-0.4861,-0.5262,-0.5415,-0.6311,-0.7352,-0.8354,-0.8903,-0.8762,-0.8226,-0.7589,-0.673,-0.579,-0.4641,-0.3647,-0.2824,-0.2259,-0.1861,0.0,-0.2375,0.0,0.0,0.0,-0.6698,-0.8482,-0.9636,-1.1799,-1.3879,-1.5202,-1.6217,-1.7144,-1.7893,-1.7914,-1.7901,-1.7968,-1.8024,-1.8024,-1.8024,-1.8036,-1.8091,-1.8091,-1.8091,-1.8124,-1.8199,-1.8335,-1.8498,-1.864,-1.8728,-1.882,-1.882,-1.882,-1.8639,-1.8284,-1.8007,-1.761,-1.7045,-1.6882,-1.7068,-1.7501,-1.7937,-1.8485,-1.9218,-1.9536,-1.9725,-1.9725,-1.9725,-1.9725,-1.9725,-1.9725,-1.9725,-1.9725,-1.9752,-1.9827,-1.9848,-1.3107,-1.3004,-1.2928,-1.295,-1.3037,-1.3113,-1.3134,-1.3254,-1.3311,-1.3354,-1.3446,-1.3607,-1.3727,-1.3743,-1.3651,-1.3376,-1.3338,-1.308,-1.2465,-1.2379,-1.2257,-1.194,-1.1893,-1.1923,-1.193,-1.193,-1.1619,-1.1056,-1.1056,-1.0447,-0.9399,-0.9502,-0.9286,-0.8815,-0.8316,-0.7539,-0.6531,-0.5956,-0.5756,-0.5744,-0.5183,-0.5161,-0.5656,-0.7033,-0.7581,-0.7808,-0.8865,-1.0215,-1.1393,-1.1191,-1.0978,-1.0631,-0.9472,-0.8674,-0.7824,-0.6298,-0.5369,-0.4569,-0.3563,0.0,0.0,0.0,0.0,-0.4398,0.0,0.0,0.0,-0.8991,-1.114,-1.3286,-1.4611,-1.5826,-1.6903,-1.7751,-1.7719,-1.763,-1.7862,-1.7903,-1.7979,-1.8091,-1.8233,-1.8321,-1.8321,-1.8321,-1.8375,-1.8511,-1.8474,-1.8599,-1.8762,-1.882,-1.8762,-1.8581,-1.8581,-1.8298,-1.769,-1.7629,-1.7122,-1.6171,-1.6258,-1.6372,-1.6577,-1.7222,-1.794,-1.8738,-1.9286,-1.9597,-1.9725,-1.9725,-1.9739,-1.9759,-1.9759,-1.9759,-1.9773,-1.9916,-1.9922,-1.9942,-1.3192,-1.3129,-1.308,-1.3183,-1.3159,-1.3254,-1.3363,-1.3575,-1.3798,-1.3955,-1.3993,-1.4053,-1.4222,-1.4238,-1.4178,-1.3993,-1.3939,-1.3819,-1.3641,-1.348,-1.3426,-1.3384,-1.3384,-1.3289,-1.3193,-1.3193,-1.2875,-1.2189,-1.2189,-1.1879,-1.1227,-1.1367,-1.1404,-1.1175,-1.0363,-0.9633,-0.8932,-0.8013,-0.7589,-0.7722,-0.8918,-0.9151,-0.8898,-1.0338,-1.0926,-1.1108,-1.1734,-1.2402,-1.2877,-1.2192,-1.179,-1.1441,-1.0766,-0.9988,-0.9154,-0.8486,0.0,0.0,0.0,0.0,0.0,0.0,-0.4706,0.0,0.0,0.0,-0.7126,-0.7897,0.0,-1.2154,-1.3943,0.0,0.0,-1.6946,-1.6662,-1.649,-1.7057,-1.7216,-1.7475,-1.8035,-1.8233,-1.8321,-1.8321,-1.8321,-1.8375,-1.8511,-1.8474,-1.8599,-1.8762,-1.882,-1.8523,-1.7943,-1.7884,-1.771,-1.7197,-1.6621,-1.6336,-1.6436,-1.5927,-1.6049,-1.6709,-1.677,-1.752,-1.8677,-1.8799,-1.9177,-1.9725,-1.9725,-1.9793,-1.9854,-1.9854,-1.9854,-1.9875,-2.001,-2.0085,-2.0098,-1.3385,-1.3249,-1.3183,-1.3181,-1.3246,-1.3333,-1.351,-1.3792,-1.4053,-1.4167,-1.4363,-1.4515,-1.4716,-1.4798,-1.4798,-1.4616,-1.4619,-1.4477,-1.4222,-1.4151,-1.4097,-1.4021,-1.4021,-1.3961,-1.3787,-1.3782,-1.3551,-1.3084,-1.3084,-1.2854,-1.2415,-1.2637,-1.2683,-1.2534,-1.2031,-1.1504,-1.0943,-1.0374,-1.0088,-1.0222,-1.1444,-1.2032,-1.2111,-1.238,-1.276,-1.3213,-1.3532,-1.3986,-1.4179,0.0,-1.2617,0.0,0.0,0.0,0.0,-1.023,0.0,0.0,0.0,0.0,0.0,0.0,0.0,0.0,-0.625,0.0,-0.8147,0.0,0.0,0.0,0.0,0.0,0.0,0.0,-1.6311,-1.6237,-1.6528,-1.6926,-1.7419,-1.8035,-1.8301,-1.8477,-1.8565,-1.8586,-1.8599,-1.8654,-1.8674,-1.8694,-1.882,-1.84,-1.8059,-1.782,-1.7478,-1.7022,-1.6503,-1.6289,-1.6118,-1.6004,-1.5828,-1.5883,-1.6177,-1.6538,-1.7038,-1.7581,-1.794,-1.8257,-1.8568,-1.8652,-1.8716,-1.8718,-1.8884,-1.9395,-2.0031,-2.0173,-2.0241,-2.0261,-1.3602,-1.3417,-1.3257,-1.3327,-1.3433,-1.3548,-1.3765,-1.4048,-1.4309,-1.4488,-1.4727,-1.4967,-1.5206,-1.5347,-1.5374,-1.5233,-1.5222,-1.5064,-1.4771,-1.4684,-1.4602,-1.4477,-1.4461,-1.439,-1.4238,-1.415,-1.4042,-1.3749,-1.3684,-1.3504,-1.3221,-1.339,-1.3406,-1.3251,-1.3036,-1.2756,-1.2336,-1.2112,-1.1962,-1.2111,-1.3121,-1.3899,-1.443,-1.3995,-1.4163,-1.4681,-1.4843,-1.5046,-1.5125,-1.3931,-1.3445,0.0,-1.1983,0.0,-1.2159,0.0,0.0,0.0,-1.0985,0.0,0.0,0.0,0.0,0.0,0.0,0.0,0.0,0.0,0.0,0.0,0.0,0.0,-1.517,-1.5889,0.0,-1.5682,-1.5951,-1.6404,-1.6926,-1.7748,-1.8201,-1.8531,0.0,-1.8694,-1.8766,-1.882,-1.882,-1.8704,-1.8523,-1.8059,-1.7646,-1.7303,-1.6874,-1.6426,-1.5911,-1.603,-1.598,-1.569,-1.5772,-1.5816,-1.5816,-1.6238,-1.6538,-1.6721,-1.7209,-1.752,-1.7721,-1.7849,-1.791,-1.7978,-1.8216,-1.8843,-1.9664,-1.9783,-1.9816,-1.9835,-1.3993,-1.3656,-1.3488,-1.3727,-1.3673,-1.3754,-1.4222,-1.4407,-1.4619,-1.4908,-1.5222,-1.5461,-1.5761,-1.5836,-1.5907,-1.5845,-1.57,-1.5499,-1.5374,-1.5151,-1.4967,-1.4899,-1.4899,-1.4784,-1.4504,-1.4379,-1.4194,-1.4069,-1.389,-1.3716,-1.3586,-1.3597,-1.3531,-1.3381,-1.3155,-1.3088,-1.3049,-1.2776,-1.2696,-1.2833,-1.3734,-1.4579,-1.5391,-1.5455,-1.5559,-1.5559,-1.557,0.0,0.0,-1.4699,-1.4271,0.0,0.0,0.0,0.0,0.0,0.0,0.0,0.0,0.0,0.0,-1.1724,0.0,0.0,0.0,0.0,-1.1323,0.0,0.0,0.0,0.0,-1.4293,-1.4547,-1.5158,-1.4758,0.0,0.0,-1.5258,-1.5755,-1.7057,-1.7881,-1.8332,-1.8474,-1.8531,-1.8599,0.0,-1.882,-1.8523,-1.7884,-1.782,-1.7239,-1.6081,-1.608,-1.5911,-1.5434,-1.5565,-1.569,-1.5816,-1.5816,-1.5816,-1.5816,-1.5816,-1.6177,-1.6721,-1.6721,-1.7099,-1.7721,-1.7849,-1.7978,-1.8106,-1.8247,-1.8387,-1.8549,-1.8549,-1.8567,-1.8567,-1.4097,-1.3912,-1.3857,-1.3939,-1.3863,-1.3944,-1.4265,-1.47,-1.5021,-1.5135,-1.557,-1.5923,-1.6092,-1.6277,-1.6338,-1.6338,-1.626,-1.6081,-1.588,-1.5711,-1.5532,-1.5396,-1.5336,-1.5179,-1.4869,-1.4814,-1.4613,-1.421,-1.4178,-1.3999,-1.3727,-1.3803,-1.3732,-1.3558,-1.3701,-1.3747,-1.3774,-1.404,-1.4213,-1.4307,-1.4889,-1.5303,-1.569,-1.5647,-1.557,-1.5586,-1.5673,-1.5761,0.0,-1.4819,-1.4496,-1.4294,-1.3639,-1.3685,-1.3964,-1.3964,-1.4072,0.0,0.0,0.0,-1.3152,-1.323,0.0,0.0,0.0,0.0,0.0,0.0,0.0,0.0,0.0,-1.4461,-1.449,-1.4719,-1.4475,-1.4375,0.0,-1.4931,-1.5468,-1.6255,-1.6733,-1.7255,-1.7881,-1.7958,0.0,-1.8742,-1.8449,-1.8105,-1.782,-1.7099,-1.6503,-1.6097,-1.572,-1.5487,-1.5505,-1.5559,-1.569,-1.5816,-1.5816,-1.5816,-1.5816,-1.5816,-1.5883,-1.6116,-1.6116,-1.6283,-1.6496,-1.6676,-1.6807,-1.6926,-1.7056,-1.713,-1.7292,-1.8191,-1.8497,-1.8497,-1.4347,-1.4265,-1.4239,-1.4097,-1.4206,-1.4292,-1.4532,-1.501,-1.5391,-1.5516,-1.6021,-1.6429,-1.6587,-1.6782,-1.6891,-1.6891,-1.6755,-1.657,-1.6375,-1.6206,-1.601,-1.5771,-1.5771,-1.5603,-1.5233,-1.5093,-1.4923,-1.4575,-1.4445,-1.4249,-1.3977,-1.4004,-1.3896,-1.3684,-1.3944,-1.4112,-1.4183,-1.4673,-1.4956,-1.5076,-1.5445,-1.5701,-1.5805,-1.5673,-1.5641,-1.5701,0.0,-1.5816,-1.5738,-1.5176,-1.4997,-1.4895,-1.4401,-1.453,-1.4793,-1.4793,-1.4991,-1.5179,-1.526,-1.4809,0.0,-1.4449,-1.3921,0.0,-1.3488,0.0,0.0,0.0,0.0,0.0,0.0,0.0,-1.4504,-1.4504,-1.4407,-1.432,0.0,-1.462,-1.4939,-1.5243,-1.5806,-1.6484,-1.7162,-1.7225,-1.7429,-1.8032,-1.7768,-1.7462,0.0,0.0,-1.5978,-1.5807,-1.5471,-1.5418,-1.557,-1.5674,-1.5734,-1.5816,-1.5816,-1.5816,-1.5816,-1.5816,-1.5816,-1.5816,-1.586,-1.5853,-1.5934,-1.6108,-1.6217,-1.6304,-1.6429,-1.6472,-1.66,-1.7529,-1.7838,-1.7931,-1.4689,-1.47,-1.4629,-1.4417,-1.4559,-1.4787,-1.4963,-1.5363,-1.5728,-1.6076,-1.6543,-1.6935,-1.7174,-1.7299,-1.7437,-1.7437,-1.7163,-1.6978,-1.6853,-1.6625,-1.6385,-1.6146,-1.6135,-1.5967,-1.5603,-1.5374,-1.513,-1.4995,-1.47,-1.4461,-1.432,-1.415,-1.4026,-1.3803,-1.4042,-1.415,-1.4347,-1.4757,-1.501,-1.526,-1.5488,-1.5718,-1.5816,-1.5816,-1.5832,-1.5832,-1.5832,-1.5832,-1.5832,-1.5832,-1.5745,-1.5586,-1.5586,-1.5505,-1.5401,-1.5401,-1.5401,-1.5401,-1.5401,-1.5391,-1.5363,-1.526,0.0,0.0,0.0,0.0,-1.4689,0.0,0.0,0.0,0.0,0.0,0.0,-1.4515,-1.4407,-1.432,-1.4309,-1.415,-1.4085,-1.4124,-1.522,-1.6065,-1.6223,-1.6351,-1.6491,-1.6676,-1.6777,-1.6617,-1.6023,0.0,-1.5807,-1.5233,-1.5445,-1.557,-1.5586,-1.5761,-1.5816,-1.5816,-1.5816,-1.5816,-1.5816,-1.5816,-1.5832,-1.5832,-1.5896,-1.5934,-1.5967,-1.619,-1.6288,-1.6304,-1.6429,-1.6483,-1.65,-1.6597,-1.6712,-1.6875,-1.4883,-1.5026,-1.5195,-1.5124,-1.5092,-1.5135,-1.5276,-1.5684,-1.6065,-1.6347,-1.6793,-1.719,-1.7429,-1.7467,-1.7527,-1.7625,-1.7413,-1.7261,-1.7217,-1.7005,-1.6793,-1.6641,-1.649,-1.6331,-1.5978,-1.5825,-1.5559,-1.5179,-1.4936,-1.4744,-1.4461,-1.4417,-1.4238,-1.3977,-1.4167,-1.4292,-1.4347,-1.4757,-1.5156,-1.5499,-1.5701,-1.5789,-1.5832,0.0,-1.588,-1.5896,-1.588,-1.588,-1.5896,-1.5978,-1.594,-1.5836,-1.5836,-1.5755,-1.5718,-1.5718,-1.5603,-1.5532,-1.5532,-1.5461,-1.5391,-1.5347,-1.526,-1.5162,0.0,0.0,0.0,0.0,0.0,0.0,0.0,0.0,0.0,-1.4646,-1.4461,-1.4292,-1.4195,-1.4096,-1.4053,-1.4015,-1.4358,-1.4836,-1.5515,-1.5738,-1.6041,-1.6676,-1.6454,-1.6244,-1.6023,0.0,0.0,-1.5347,-1.5488,-1.5674,-1.5772,-1.5805,-1.5816,-1.5816,-1.5816,-1.5816,-1.5816,-1.5853,-1.588,-1.588,-1.6005,-1.6108,-1.6206,-1.626,-1.6347,-1.6429,-1.652,-1.6587,-1.6722,-1.6603,-1.6587,-1.6695,-1.5195,-1.5418,-1.5641,-1.57,-1.5738,-1.5755,-1.5711,-1.6108,-1.6516,-1.6755,-1.7201,-1.7598,-1.7821,-1.7848,-1.7902,-1.8033,-1.7766,-1.7598,-1.7598,-1.7369,-1.719,-1.706,-1.6951,-1.6739,-1.6429,-1.6206,0.0,-1.5532,-1.5304,-1.501,-1.4657,-1.4602,-1.4408,-1.402,-1.4211,-1.4292,-1.4221,-1.4798,-1.5233,-1.5586,-1.5761,-1.5843,0.0,-1.5907,-1.5994,-1.6092,-1.6146,-1.6092,-1.6005,-1.6076,-1.6065,-1.5994,-1.5951,-1.588,-1.5825,-1.5832,-1.5772,-1.5718,-1.5718,-1.5603,-1.5543,-1.5543,-1.5461,-1.5374,-1.5374,-1.5276,-1.5189,0.0,0.0,0.0,0.0,0.0,0.0,-1.4629,-1.4488,-1.4363,-1.4238,-1.4167,-1.4097,-1.4026,-1.4009,-1.4173,-1.47,-1.4932,-1.5265,-1.5796,-1.5652,-1.5573,-1.5557,0.0,0.0,-1.5391,-1.5619,-1.5745,-1.5816,-1.5816,-1.5816,-1.5816,-1.5816,-1.5816,-1.5816,-1.588,-1.5923,-1.5934,-1.6108,-1.6217,-1.6304,-1.6402,-1.6483,-1.6554,-1.6597,-1.6712,-1.682,-1.6809,-1.6837,-1.6891,-1.5684,-1.5853,-1.6048,-1.6173,-1.6418,-1.6527,-1.6347,-1.6641,-1.6978,-1.7228,-1.7668,-1.8044,-1.8283,-1.837,-1.8343,-1.8451,-1.8158,-1.7962,-1.7946,-1.7723,-1.7538,-1.7497,-1.7299,-1.7119,-1.688,-1.6527,-1.6217,-1.5951,-1.5586,-1.5222,-1.4915,-1.4784,-1.4473,-1.402,-1.4211,-1.4221,-1.4194,-1.4939,-1.5363,-1.5586,-1.5789,-1.5853,-1.5978,-1.5994,-1.6146,-1.6347,-1.6472,-1.6375,-1.6173,-1.619,-1.6173,-1.6135,-1.6037,-1.5978,-1.5934,-1.5809,-1.5782,-1.5832,-1.5816,-1.5816,-1.5816,-1.5832,-1.5761,-1.563,-1.5641,-1.5559,-1.5472,-1.5445,-1.5363,-1.5276,0.0,0.0,0.0,-1.4586,0.0,0.0,0.0,-1.4238,-1.4108,-1.3993,-1.4009,0.0,-1.4009,-1.4178,-1.4417,-1.4629,-1.4828,-1.4954,-1.4952,0.0,0.0,-1.5391,-1.569,0.0,-1.5816,0.0,-1.5816,-1.5816,-1.5816,-1.5832,-1.5843,-1.5896,-1.5951,-1.5978,-1.6233,-1.6331,-1.6347,-1.657,-1.6603,-1.6614,-1.6793,-1.6853,-1.6864,-1.6978,-1.7092,-1.719,-1.6146,-1.6358,-1.649,-1.6679,-1.6978,-1.7261,-1.7413,-1.7342,-1.7359,-1.7598,-1.7962,-1.8283,-1.8538,-1.8549,-1.8565,-1.8593,-1.844,-1.8299,-1.8201,-1.7973,-1.7837,-1.7804,-1.7598,-1.7369,-1.713,-1.6864,-1.6516,-1.6076,-1.5711,-1.5363,-1.4915,-1.4784,-1.4473,-1.402,-1.4211,-1.4417,-1.4602,-1.5037,-1.5363,-1.5647,-1.5809,-1.6021,-1.6233,-1.6347,-1.6456,-1.6597,-1.6712,-1.6668,-1.6554,-1.6668,-1.657,-1.6402,-1.6385,-1.6233,-1.6048,-1.594,-1.5896,-1.5869,-1.5843,-1.5816,-1.5782,-1.588,-1.588,-1.5896,-1.5994,-1.5994,-1.5923,-1.5789,-1.5734,-1.557,-1.5276,0.0,0.0,0.0,0.0,0.0,0.0,0.0,-1.4238,-1.4124,-1.3934,-1.3852,-1.4004,-1.4178,-1.4379,-1.4515,-1.4784,-1.4926,-1.4943,0.0,0.0,0.0,-1.569,0.0,0.0,0.0,-1.5816,-1.5816,-1.5816,-1.586,-1.5896,-1.6021,-1.6135,-1.6233,-1.6472,-1.6517,-1.6581,-1.6674,-1.6728,-1.6809,-1.6918,-1.6978,-1.6989,-1.7119,-1.7174,-1.719,-1.6722,-1.6853,-1.6978,-1.7157,-1.744,-1.7723,-1.7962,-1.8114,-1.8201,-1.8185,-1.844,-1.8723,-1.8957,-1.893,-1.8919,-1.8984,-1.8707,-1.8511,-1.8451,-1.8158,-1.7989,-1.7989,-1.7766,-1.7581,-1.7467,-1.7174,-1.6809,-1.6385,-1.5967,-1.5488,-1.4939,-1.4754,-1.445,-1.4053,-1.4575,-1.4994,-1.5315,-1.5974,0.0,-1.6165,-1.6412,-1.6482,-1.6385,-1.6509,-1.6652,-1.6918,-1.6918,-1.6962,-1.6989,-1.6864,-1.6712,-1.6543,-1.6483,-1.6347,-1.6163,-1.5932,-1.5872,-1.5896,-1.5843,-1.586,-1.5869,-1.5862,-1.5978,-1.6037,-1.6092,-1.6108,-1.6076,-1.5967,-1.6138,-1.6264,-1.6317,-1.6156,0.0,0.0,0.0,0.0,0.0,0.0,-1.4893,-1.4746,-1.4349,-1.4053,-1.4053,-1.4151,-1.4221,-1.4407,-1.4629,-1.4844,0.0,0.0,0.0,0.0,0.0,0.0,0.0,0.0,0.0,-1.5816,-1.5809,-1.5869,-1.5934,-1.6119,-1.626,-1.6385,-1.657,-1.6614,-1.6739,-1.6864,-1.6951,-1.7021,-1.7076,-1.7103,-1.7103,-1.7163,-1.719,-1.719,-1.7261,-1.7299,-1.7386,-1.7652,-1.7875,-1.8114,-1.8468,-1.8788,-1.8957,-1.8734,-1.893,-1.9158,-1.9337,-1.9283,-1.9256,-1.9327,-1.8957,-1.8718,-1.8663,-1.837,-1.8174,-1.8158,-1.7918,-1.7793,-1.7766,-1.7413,-1.7049,0.0,-1.6143,-1.5623,-1.5108,-1.4869,-1.4575,-1.4249,-1.5015,-1.5497,0.0,0.0,-1.6928,-1.6619,-1.6903,-1.6797,-1.6651,-1.678,-1.7103,-1.7379,-1.7308,-1.7379,-1.7478,-1.7088,-1.6837,-1.6695,-1.6587,-1.6456,-1.6315,-1.6076,-1.6005,-1.5978,-1.5869,-1.5896,-1.5978,-1.5994,-1.6076,-1.6146,-1.6179,-1.619,-1.6179,-1.6146,-1.6429,-1.6834,-1.7265,-1.7232,0.0,0.0,0.0,0.0,0.0,0.0,-1.5589,-1.5235,-1.4647,-1.4276,-1.4123,0.0,-1.4139,-1.4309,-1.4548,-1.4784,-1.4915,0.0,0.0,0.0,0.0,-1.5641,-1.5843,0.0,-1.586,0.0,-1.5923,-1.5978,-1.6021,-1.6233,-1.6385,-1.6516,-1.6652,-1.6782,-1.6907,-1.7005,-1.7103,-1.719,-1.719,-1.719,-1.719,-1.719,-1.719,-1.719,-1.7625,-1.7663,-1.7777,-1.8131,-1.8299,-1.8538,-1.9074,-1.9196,-1.9212,-1.8973,-1.924,-1.9462,-1.9495,-1.9479,-1.9435,-1.9337,-1.9185,-1.9017,-1.8788,-1.8647,-1.8522,-1.8408,-1.8174,-1.7989,-1.7891,-1.7527,-1.7163,0.0,0.0,-1.5836,-1.5347,-1.5108,-1.4869,-1.4675,-1.5384,0.0,0.0,-1.6224,-1.6484,-1.6376,-1.6518,-1.6706,-1.7017,-1.7674,-1.8046,-1.8129,-1.8232,-1.8215,-1.8074,-1.7545,-1.7163,-1.6951,-1.682,-1.6712,-1.6554,-1.6331,-1.626,-1.6233,-1.6108,-1.6076,-1.6119,-1.6233,-1.626,-1.6304,-1.6418,-1.6445,-1.6402,-1.6288,-1.6485,-1.6863,-1.7393,-1.7373,-1.7281,0.0,0.0,0.0,0.0,0.0,-1.571,-1.5044,-1.4577,-1.432,-1.4309,-1.415,0.0,0.0,-1.4548,-1.4784,-1.4915,0.0,0.0,-1.5391,0.0,-1.5684,-1.5907,-1.5907,0.0,-1.6076,-1.6076,-1.6146,-1.626,-1.6385,-1.6516,-1.6576,-1.6864,-1.7049,-1.7157,-1.7163,-1.7174,-1.719,-1.719,-1.719,-1.719,-1.719,-1.719,-1.719,-1.8005,-1.8103,-1.8212,-1.844,-1.869,-1.8957,-1.9212,-1.9479,-1.962,-1.9522,-1.9636,-1.9745,-1.9816,-1.9702,-1.9593,-1.9549,-1.931,-1.9087,-1.8919,-1.8718,-1.8565,-1.844,-1.8272,-1.8131,-1.8005,-1.7793,-1.7467,0.0,0.0,0.0,-1.5603,-1.5363,-1.5124,-1.4896,0.0,-1.6049,-1.6044,-1.7038,-1.7272,-1.7038,-1.7611,-1.7783,-1.7731,-1.8456,-1.8851,-1.8969,-1.9029,-1.8784,-1.8403,-1.8184,-1.7612,-1.6989,-1.6951,-1.6793,-1.6614,-1.6445,-1.6347,-1.626,-1.6135,-1.6217,-1.6331,-1.6385,-1.65,-1.6597,-1.6581,-1.657,-1.6543,-1.6429,-1.7103,-1.7958,-1.8877,-1.8973,-1.8674,0.0,0.0,0.0,0.0,0.0,0.0,-1.5616,0.0,-1.4504,-1.4434,-1.432,0.0,0.0,0.0,-1.4784,-1.4915,0.0,0.0,-1.5391,0.0,-1.5684,-1.5923,-1.5994,-1.6065,-1.6108,-1.6179,-1.6244,-1.6288,-1.6483,-1.6684,-1.6864,-1.7049,-1.7147,-1.719,-1.719,-1.719,-1.719,-1.719,-1.719,-1.719,-1.719,-1.719,-1.719,-1.8326,-1.844,-1.8565,-1.8788,-1.9044,-1.9267,-1.9452,-1.9702,-1.9886,-1.9914,-1.993,-1.9957,-2.0028,-1.9859,-1.9745,-1.9745,-1.9452,-1.9212,-1.9087,-1.8859,-1.8663,-1.8549,-1.8397,0.0,-1.8185,-1.8005,-1.7723,-1.7342,-1.6951,0.0,0.0,0.0,0.0,0.0,-1.6161,-1.6496,-1.6471,-1.769,-1.792,-1.7547,-1.8389,-1.8581,-1.8456,-1.9229,-1.963,-1.9791,-1.9841,-1.9407,-1.8775,-1.8526,-1.783,-1.7049,-1.7021,-1.6891,-1.6658,-1.657,-1.6483,-1.6413,-1.6304,-1.6413,-1.657,-1.657,-1.6695,-1.6793,-1.6712,-1.6631,-1.6722,-1.7006,-1.7708,-1.8586,-1.9621,-1.9714,-1.9416,-1.8635,0.0,0.0,0.0,0.0,0.0,-1.5857,-1.5152,-1.4646,-1.4559,-1.4417,0.0,0.0,0.0,-1.4744,-1.4896,0.0,0.0,0.0,0.0,0.0,0.0,-1.6108,-1.6179,-1.6217,-1.6304,-1.6347,-1.6347,-1.6581,-1.682,-1.706,-1.7147,-1.719,-1.719,-1.719,-1.719,-1.719,-1.719,-1.719,-1.719,-1.719,-1.719,-1.719,-1.8565,-1.862,-1.8761,-1.924,-1.9327,-1.9452,-1.9816,-1.9876,-1.9914,-2.0028,-1.9961,-1.9961,-1.9961,-1.9941,-1.9876,-1.9876,-1.9647,-1.9452,-1.9327,-1.9098,-1.8919,0.0,0.0,-1.8369,-1.8369,-1.8087,-1.7848,-1.7723,0.0,0.0,-1.6456,0.0,-1.5816,-1.5816,-1.6676,-1.6727,-1.6182,-1.7817,-1.8199,-1.7744,-1.8598,-1.8992,-1.9199,-2.0056,-2.0379,-2.0399,-2.0534,-2.0021,-1.9201,-1.8603,-1.7886,-1.7163,-1.7049,-1.7005,-1.6951,-1.6712,-1.6658,-1.6728,-1.6603,-1.6658,-1.682,-1.682,-1.682,-1.682,-1.682,-1.682,-1.7151,-1.8251,-1.8405,-1.8454,-1.9017,-1.9109,-1.8916,-1.8231,0.0,0.0,0.0,0.0,0.0,-1.551,-1.4967,-1.4673,-1.4673,-1.4461,0.0,0.0,0.0,-1.4787,-1.4963,0.0,0.0,-1.5374,-1.5505,0.0,-1.6108,-1.6217,-1.6347,-1.6472,-1.6472,-1.6472,-1.6472,-1.6712,-1.6951,-1.719,-1.719,-1.719,-1.719,-1.719,-1.719,-1.719,-1.719,-1.719,-1.719,-1.719,-1.719,-1.719,-1.8718,-1.8875,-1.906,-1.9283,-1.9462,-1.9647,-1.9843,-1.9941,-2.0001,-1.9961,-1.9961,-1.9961,-1.9961,-1.9941,-1.9876,0.0,-1.9718,-1.9549,0.0,-1.9256,-1.9087,-1.8805,-1.8718,-1.8609,-1.8369,-1.8326,-1.8131,-1.7848,0.0,0.0,0.0,-1.6385,-1.6313,-1.6313,-1.6598,-1.6914,-1.7192,-1.7774,-1.8143,-1.8598,-1.9343,-1.9711,-1.991,-2.0792,-2.105,-2.1136,-2.1377,-2.0913,-2.0072,-1.9542,-1.8763,-1.7886,-1.7296,-1.7076,-1.6989,-1.6907,-1.6853,-1.6809,-1.6782,-1.6853,-1.6951,-1.6951,-1.7005,-1.7049,-1.6962,-1.688,-1.7032,-1.7785,-1.7902,-1.8023,-1.8602,-1.8697,-1.8471,-1.7681,-1.7508,0.0,0.0,0.0,0.0,0.0,-1.4967,-1.4757,0.0,-1.4586,0.0,0.0,0.0,0.0,0.0,0.0,0.0,0.0,-1.5668,0.0,-1.6108,-1.6315,-1.6472,-1.6581,-1.6581,-1.6668,-1.6837,-1.6907,-1.7032,-1.719,-1.719,-1.719,-1.719,-1.719,-1.719,-1.719,-1.719,-1.719,-1.719,-1.719,-1.719,-1.719,-1.8919,-1.9087,-1.9267,-1.9435,-1.962,-1.9805,-1.9914,-2.0001,-1.9961,-1.9961,-1.9961,-1.9961,-1.9961,-1.9984,0.0,-1.9941,-1.9832,-1.9691,-1.9533,-1.9392,-1.9223,-1.9,-1.8859,-1.8718,-1.8576,0.0,0.0,-1.8033,-1.7777,-1.744,-1.7021,-1.6826,-1.6712,-1.6684,-1.7048,-1.7379,-1.7819,-1.8385,-1.8882,-1.9362,-2.0129,-2.0469,-2.064,-2.1182,-2.1375,-2.1409,-2.1726,-2.1242,-2.0461,-1.9867,-1.9077,-1.8215,-1.7407,-1.7163,-1.7119,-1.7032,-1.6978,-1.6951,-1.6907,-1.6978,-1.7076,-1.7076,-1.713,-1.7174,-1.7092,-1.6978,-1.7066,-1.7711,-1.7743,-1.7785,-1.8152,-1.8157,-1.7894,-1.712,-1.6902,-1.6659,-1.6072,0.0,0.0,0.0,0.0,0.0,0.0,-1.4689,0.0,0.0,0.0,0.0,0.0,0.0,0.0,-1.5391,-1.5738,0.0,-1.6108,-1.6347,-1.6516,-1.6581,-1.656,-1.6766,-1.7005,-1.7005,-1.7076,-1.719,-1.719,-1.719,-1.719,-1.719,-1.719,-1.719,-1.719,-1.719,-1.719,-1.719,-1.719,-1.719,-1.9205,-1.9256,-1.9408,0.0,-1.9789,0.0,-2.0028,-1.9961,-1.9961,-1.9961,-1.9961,-1.9961,-1.9961,-1.9961,-1.9961,-1.9961,0.0,0.0,0.0,-1.9549,-1.9337,-1.9327,-1.8989,-1.8805,-1.8788,-1.8565,-1.8381,-1.8326,-1.7777,-1.7494,-1.7453,-1.7272,-1.7213,-1.7104,-1.7878,-1.8178,-1.8154,-1.959,-2.0148,-2.0162,-2.0888,-2.1211,-2.1231,-2.1321,-2.1375,-2.1455,-2.1638,-2.119,-2.0418,-1.9755,-1.9036,-1.8196,-1.7529,-1.7339,-1.7382,-1.7092,-1.7103,-1.7174,-1.7076,-1.7119,-1.7201,-1.7217,-1.7201,-1.7201,-1.7201,-1.7103,-1.7209,-1.7797,-1.7805,-1.7644,-1.7615,-1.7511,-1.7239,-1.6589,-1.626,-1.6108,-1.6092,0.0,0.0,0.0,0.0,0.0,0.0,-1.4817,-1.4744,0.0,0.0,0.0,0.0,0.0,-1.5293,-1.5401,-1.5755,-1.5994,-1.6108,-1.6347,-1.6483,-1.65,-1.6614,-1.6728,-1.7021,-1.7021,-1.7076,-1.719,-1.719,-1.719,-1.719,-1.719,-1.719,-1.719,-1.719,-1.719,-1.719,-1.719,-1.719,-1.719,0.0,0.0,-1.9506,-1.9664,-1.9789,-1.9914,-2.0028,-1.9961,-1.9961,-1.9961,-1.9961,-1.9961,-1.9961,-1.9961,-1.9961,-1.9961,-2.0012,-1.9968,-1.9876,-1.9702,-1.9522,-1.9337,-1.9071,-1.8886,-1.8788,-1.8647,-1.8468,-1.8326,-1.7864,-1.7663,-1.7636,-1.7511,-1.7661,-1.8081,-1.8244,-1.891,-1.9807,-2.0061,-2.0469,-2.0908,-2.1125,-2.1211,-2.1231,-2.1321,-2.1375,-2.1409,-2.174,-2.1673,-2.131,-2.0702,-1.9903,-1.9066,-1.8328,-1.7808,-1.741,-1.7288,-1.7299,-1.7331,-1.7397,-1.7369,-1.7342,-1.7429,-1.7386,-1.7382,-1.7382,-1.7228,-1.7186,-1.722,-1.7219,-1.7131,-1.6932,-1.6807,-1.6736,-1.6422,-1.6288,-1.6146,-1.588,-1.5718,0.0,0.0,-1.5026,-1.4896,-1.4983,-1.4885,-1.4869,0.0,0.0,0.0,0.0,-1.5391,-1.5499,-1.5532,-1.588,-1.6076,-1.6108,-1.6347,-1.6554,-1.6739,-1.6864,-1.6989,-1.7147,-1.7147,-1.7163,-1.719,-1.719,-1.719,-1.719,-1.719,-1.719,-1.719,-1.719,-1.719,-1.719,-1.719,-1.719,-1.719,-1.9397,-1.9549,-1.9691,-1.9761,-1.987,-1.9968,-2.0028,-1.9961,-1.9961,-1.9961,-1.9961,-1.9961,-1.9961,-1.9961,-1.9961,-1.9961,-1.9961,-2.0012,-1.9957,-1.9789,-1.9631,-1.9495,-1.9158,-1.8946,-1.8875,-1.8707,-1.8495,-1.8326,-1.7946,-1.7948,-1.8288,-1.8215,-1.8531,-1.9078,-1.9363,-1.9872,-2.047,-2.0659,-2.093,-2.1319,-2.1319,-2.1319,-2.1319,-2.1341,-2.1375,-2.1409,-2.1774,-2.1585,-2.1082,-2.0553,-1.9843,-1.8934,-1.8184,-1.7744,-1.7527,-1.7527,-1.7484,-1.7456,-1.7459,-1.7494,-1.7456,-1.7459,-1.7484,-1.7429,-1.7437,-1.7315,-1.7228,-1.7119,-1.7049,-1.6951,-1.675,-1.6614,-1.6506,-1.6331,-1.6206,-1.6037,-1.586,-1.5559,0.0,-1.5233,-1.5108,-1.5053,-1.5108,-1.5108,-1.5124,-1.5195,0.0,0.0,-1.5374,-1.5559,-1.5718,-1.5718,-1.5951,-1.6135,-1.619,-1.6429,-1.6641,-1.682,-1.6951,-1.7076,-1.719,-1.719,-1.719,-1.719,-1.719,-1.719,-1.719,-1.719,-1.719,-1.719,-1.719,-1.719,-1.719,-1.719,-1.719,-1.719,-1.9691,-1.9789,-1.9876,-1.9876,-1.9968,-1.9961,-1.9961,-1.9961,-1.9961,-1.9961,-1.9961,-1.9961,-1.9961,-1.9961,-1.9961,-1.9961,-1.9961,-1.9961,-1.9961,-1.9816,-1.9691,-1.9691,-1.9229,-1.8973,-1.8973,-1.8718,-1.8556,-1.8474,-1.8243,-1.8469,-1.9152,-1.9152,-1.9485,-2.0121,-2.0623,-2.0802,-2.0774,-2.1256,-2.1455,-2.1375,-2.1375,-2.1375,-2.1375,-2.1455,-2.1475,-2.1509,-2.1815,-2.1362,-2.0615,-2.0183,-1.9425,-1.8513,-1.79,-1.771,-1.7723,-1.775,-1.7679,-1.7524,-1.7524,-1.7524,-1.7524,-1.7524,-1.7581,-1.7538,-1.744,-1.7453,-1.7399,-1.7228,-1.7119,-1.6989,-1.6853,-1.6739,-1.6517,-1.6304,-1.6092,-1.5896,-1.5789,0.0,-1.526,-1.5222,-1.5233,-1.5249,-1.5276,-1.5363,-1.5418,-1.5418,-1.5445,-1.5516,0.0,-1.5789,-1.5871,-1.5842,-1.6037,-1.6206,-1.6347,-1.6543,-1.6712,-1.6853,-1.6951,-1.7076,-1.719,-1.719,-1.719,-1.719,-1.719,-1.719,-1.719,-1.719,-1.719,-1.719,-1.719,-1.719,-1.719,-1.719,-1.719,-1.719,-1.9691,-1.9789,-1.9876,-1.9876,-1.9968,-1.9961,-1.9961,-1.9961,-1.9961,-1.9961,-1.9961,-1.9961,-1.9961,-1.9961,-1.9961,-1.9961,-1.9961,-1.9961,-1.9961,-1.9816,-1.9691,-1.9691,-1.9229,-1.8973,-1.8973,-1.8636,-1.8688,-1.9241,-1.9104,-1.9326,-1.9903,-1.9903,-2.025,-2.0806,-2.093,-2.1183,-2.1531,-2.1652,-2.1564,-2.1375,-2.1375,-2.1375,-2.1389,-2.1584,-2.1638,-2.1672,-2.1971,-2.1581,-2.0953,-2.0861,-1.9909,-1.8719,-1.8645,-1.8182,-1.7734,-1.7848,-1.7864,-1.7848,-1.7848,-1.7848,-1.7848,-1.7848,-1.7766,-1.7696,-1.7668,-1.7511,-1.7359,-1.7399,-1.7244,-1.7092,-1.6864,-1.6809,-1.6652,-1.6206,-1.6108,-1.594,-1.5499,0.0,-1.5445,-1.5249,-1.5304,-1.5401,-1.5505,-1.5532,-1.5543,-1.5543,-1.5738,-1.5809,-1.5789,-1.594,-1.6092,-1.6206,-1.6244,-1.6358,-1.6517,-1.656,-1.675,-1.6978,-1.6989,-1.7076,-1.719,-1.719,-1.719,-1.719,-1.719,-1.719,-1.719,-1.719,-1.719,-1.719,-1.719,-1.719,-1.719,-1.719,-1.719,-1.719,-1.987,-1.993,-1.9957,-1.9957,-2.0012,-1.9961,-1.9961,-1.9961,-1.9961,-1.9961,-1.9961,-1.9961,-1.9961,-1.9961,-1.9961,-1.9961,-1.9961,-2.0012,-1.9957,-1.9789,-1.9691,-1.9691,-1.9229,-1.8919,-1.8788,-1.8992,-1.9154,-1.9383,-1.9677,-2.0111,-2.067,-2.067,-2.1041,-2.1685,-2.1599,-2.1691,-2.1903,-2.1815,-2.174,-2.1672,-2.1672,-2.1672,-2.1686,-2.176,-2.1781,-2.1808,-2.1548,-2.1018,-2.0332,-2.0006,-1.9203,-1.8299,-1.8299,-1.8103,-1.7837,-1.7891,-1.7902,-1.7902,-1.7902,-1.7902,-1.7902,-1.7902,-1.7864,-1.7804,-1.7734,-1.7636,-1.7511,-1.7453,-1.7382,-1.7201,-1.6962,-1.6864,-1.6712,-1.6358,-1.6135,0.0,0.0,-1.5516,-1.5461,-1.5418,-1.5516,-1.563,-1.5755,-1.5825,-1.5853,-1.5853,-1.5967,-1.6005,-1.5951,-1.6108,-1.626,-1.6385,-1.6445,-1.6554,-1.6739,-1.6809,-1.6891,-1.7005,-1.7076,-1.713,-1.719,-1.719,-1.719,-1.719,-1.719,-1.719,-1.719,-1.719,-1.719,-1.719,-1.719,-1.719,-1.719,-1.719,-1.719,-1.719,-1.9961,-1.9961,-1.9961,-1.9961,-1.9961,-1.9961,-1.9961,-1.9961,-1.9961,-1.9961,-1.9961,-1.9961,-1.9961,-1.9961,-1.9961,-1.9961,-2.0012,-1.9968,-1.9876,-1.9734,-1.9647,-1.9647,-1.9212,-1.8859,-1.862,-1.9097,-1.9473,-1.9671,-2.0141,-2.07,-2.1432,-2.1432,-2.1771,-2.2268,-2.2215,-2.2147,-2.2113,-2.1991,-2.1916,-2.1882,-2.1882,-2.1882,-2.1882,-2.1726,-2.1658,-2.1617,-2.105,-2.0357,-1.968,-1.9268,-1.8617,-1.7973,-1.7946,-1.7946,-1.7935,-1.7918,-1.7902,-1.7902,-1.7902,-1.7902,-1.7902,-1.7902,-1.7902,-1.7875,-1.7793,-1.7734,-1.7668,-1.7484,-1.7402,-1.7355,-1.7092,-1.6951,-1.6782,-1.6516,0.0,0.0,0.0,-1.5657,-1.5586,-1.5641,-1.5771,-1.588,-1.5994,-1.6092,-1.6146,-1.6146,-1.6048,-1.5933,-1.5933,-1.5929,-1.6052,-1.6334,-1.6523,-1.6739,-1.6864,-1.6962,-1.7021,-1.7049,-1.7147,-1.719,-1.719,-1.719,-1.719,-1.719,-1.719,-1.719,-1.719,-1.719,-1.719,-1.719,-1.719,-1.719,-1.719,-1.719,-1.719,-1.719,-1.9961,-1.9961,-1.9961,-1.9961,-1.9961,-1.9961,-1.9961,-1.9961,-1.9961,-1.9961,-1.9961,-1.9961,-1.9961,-1.9961,-1.9961,-1.9961,-1.9941,-1.9886,-1.9876,-1.9647,-1.9522,-1.9522,-1.9169,-1.8859,-1.862,-1.8681,-1.9284,-2.0455,-2.0437,-2.1074,-2.2199,-2.2199,-2.2268,-2.2268,-2.2323,-2.2249,-2.2113,-2.2093,-2.2004,-2.1882,-2.1882,-2.1882,-2.1828,-2.1288,-2.1073,-2.1037,-2.055,-1.9874,-1.9262,-1.9308,-1.8865,-1.8212,-1.8103,-1.806,-1.8044,-1.7935,-1.7902,-1.7902,-1.7902,-1.7902,-1.7902,-1.7902,-1.7902,-1.7902,-1.7891,-1.7804,-1.7723,-1.7696,-1.7511,-1.7382,-1.7201,-1.7076,-1.688,-1.6527,0.0,0.0,-1.5967,-1.5994,-1.601,-1.5907,-1.6005,-1.6135,-1.6244,-1.6277,-1.6277,-1.6277,-1.5739,-1.5482,-1.5482,-1.5011,-1.5099,-1.5903,-1.6466,-1.6864,-1.6989,-1.7005,-1.706,-1.7174,-1.719,-1.719,-1.719,-1.719,-1.719,-1.719,-1.719,-1.719,-1.719,-1.719,-1.719,-1.719,-1.719,-1.719,-1.719,-1.719,-1.719,-1.719,-1.9961,-1.9961,-1.9961,-1.9961,-1.9961,-1.9961,-1.9961,-1.9961,-1.9961,-1.9961,-1.9961,-1.9961,-1.9961,-1.9961,-2.0012,-1.9941,-1.9903,-1.9805,-1.9664,-1.9566,-1.9435,-1.9299,-1.9087,-1.8892,-1.8734,-1.9165,-1.9505,-1.9819,-2.0308,-2.087,-2.1646,-2.1646,-2.184,-2.2268,-2.2268,-2.2303,-2.2249,-2.2249,-2.2215,-2.216,-2.216,-2.188,-2.1475,-2.119,-2.0915,-2.0462,-1.9856,-1.9466,-1.9254,-1.8876,-1.8544,-1.8315,-1.8272,-1.8201,-1.8044,-1.7935,-1.7902,-1.7902,-1.7902,-1.7902,-1.7918,-1.7989,-1.8005,-1.8033,-1.8103,-1.8033,-1.7918,-1.7848,-1.7696,-1.7527,-1.7331,-1.7201,-1.6911,-1.6248,0.0,-1.5757,-1.5118,-1.5014,-1.4999,-1.5029,-1.5064,-1.5144,-1.5259,-1.5323,-1.5298,-1.5233,-1.4682,-1.4258,-1.4197,-1.3694,-1.3805,-1.4546,-1.4905,-1.5739,-1.7119,-1.7119,-1.7147,-1.719,-1.719,-1.719,-1.719,-1.719,-1.719,-1.719,-1.719,-1.719,-1.719,-1.719,-1.719,-1.719,-1.719,-1.719,-1.719,-1.719,-1.719,-1.719,-1.9961,-1.9961,-1.9961,-1.9961,-1.9961,-1.9961,-1.9961,-1.9961,-1.9961,-1.9961,-1.9961,-1.9961,-1.9961,-2.0012,-1.9957,-1.9876,-1.9805,-1.9691,-1.9522,-1.9462,-1.9365,-1.9243,-1.9044,-1.8919,-1.8788,-1.9181,-1.9433,-1.9383,-1.9878,-2.0367,-2.0878,-2.0878,-2.1148,-2.1576,-2.1576,-2.1576,-2.1646,-2.184,-2.1985,-2.1985,-2.1985,-2.1646,-2.1148,-2.067,-2.0265,-1.9834,-1.918,-1.8995,-1.902,-1.8573,-1.837,-1.837,-1.8326,-1.8201,-1.806,-1.7973,-1.7935,-1.7902,-1.7902,-1.7902,-1.7935,-1.8044,-1.8076,-1.8174,-1.8299,-1.8228,-1.8044,-1.7973,-1.7837,-1.7594,-1.7234,-1.7043,-1.6591,-1.5467,-1.5168,-1.471,-1.3759,-1.3471,-1.3436,-1.3571,-1.358,-1.3672,-1.4005,-1.3817,-1.3651,-1.3645,-1.2788,-1.2158,-1.1931,-1.1593,-1.1941,-1.3137,-1.3471,-1.458,-1.6523,-1.6712,-1.6984,-1.719,-1.719,-1.719,-1.719,-1.719,-1.719,-1.719,-1.719,-1.719,-1.719,-1.719,-1.719,-1.719,-1.719,-1.719,-1.719,-1.719,-1.719,-1.719,-1.9961,-1.9961,-1.9961,-1.9961,-1.9961,-1.9961,-1.9961,-1.9961,-1.9961,-1.9961,-1.9961,-1.9961,-1.9961,-1.9941,-1.9876,-1.9876,-1.9647,-1.9506,-1.9506,-1.9392,-1.9267,-1.9232,-1.9044,-1.8919,-1.8788,-1.868,-1.8859,-1.9383,-1.9383,-1.9607,-2.0116,-2.0116,-2.0116,-2.0116,-2.0116,-2.0116,-2.0116,-2.0878,-2.1218,-2.1218,-2.1218,-2.1218,-2.1004,-1.9562,-1.91,-1.9075,-1.85,-1.8343,-1.8396,-1.8582,-1.862,-1.8609,-1.8407,-1.8272,-1.8076,-1.8076,-1.7989,-1.7902,-1.7902,-1.7902,-1.7935,-1.8044,-1.8076,-1.8174,-1.8299,-1.8228,-1.8076,-1.8076,-1.7891,-1.7442,-1.6754,-1.6451,-1.5864,-1.4264,-1.3901,-1.3337,-1.1777,-1.1497,-1.1441,-1.1441,-1.1441,-1.1707,-1.2367,-1.1839,-1.1441,-1.1441,-1.013,-0.9109,-0.8518,-0.8506,-0.9544,-1.1689,-1.2501,-1.3572,-1.4972,-1.5706,-1.6456,-1.719,-1.719,-1.719,-1.719,-1.719,-1.719,-1.719,-1.719,-1.719,-1.719,-1.719,-1.719,-1.719,-1.719,-1.719,-1.719,-1.719,-1.719,-1.719,-1.9961,-1.9961,-1.9961,-1.9961,-1.9961,-1.9961,-1.9961,-1.9961,-1.9961,-1.9961,-1.9961,-1.9961,-1.9961,-1.9941,-1.9843,-1.9745,-1.9604,-1.9462,-1.9381,-1.9337,-1.9267,-1.9232,-1.9044,-1.8919,-1.8788,-1.868,-1.8638,-1.8604,-1.8604,-1.8904,-1.9348,-1.9348,-1.9631,-2.0116,-2.0208,-2.0208,-2.0116,-2.0423,-2.048,-2.045,-2.045,-2.0116,-1.9649,-1.9245,-1.8876,-1.8576,-1.8414,-1.8511,-1.869,-1.8734,-1.8734,-1.8707,-1.8439,-1.8381,-1.8299,-1.8131,-1.8044,-1.793,-1.7292,-1.7138,-1.7308,-1.7974,-1.8076,-1.8174,-1.8299,-1.8228,-1.8076,-1.8076,-1.7533,-1.699,-1.6627,-1.5755,-1.454,-1.2883,-1.1721,-1.0549,-0.8986,-0.8311,-0.8021,-0.7992,-0.7993,-0.8097,-0.8269,-0.8102,-0.793,-0.7889,-0.696,-0.6199,-0.5604,-0.6063,-0.6879,-0.8059,-0.9238,-1.055,-1.2028,-1.4771,-1.6184,-1.6456,-1.6918,-1.719,-1.719,-1.719,-1.719,-1.719,-1.719,-1.719,-1.719,-1.719,-1.719,-1.719,-1.719,-1.719,-1.719,-1.719,-1.719,-1.719,-1.9961,-1.9961,-1.9961,-1.9961,-1.9961,-1.9961,-1.9961,-1.9961,-1.9961,-1.9961,-1.9961,-2.0028,-1.9984,-1.987,-1.9745,-1.9631,-1.9506,-1.9408,-1.9327,-1.9327,-1.9256,-1.9161,-1.9017,-1.8919,-1.8788,-1.868,-1.8495,-1.8326,-1.8326,-1.8417,-1.8597,-1.8642,-1.8873,-1.9297,-1.942,-1.9437,-1.9443,-1.9806,-1.9834,-1.9709,-1.9709,-1.9465,-1.8955,-1.8802,-1.8575,-1.8283,-1.8451,-1.8636,-1.8805,-1.8848,-1.8832,-1.8761,-1.862,-1.8511,-1.8408,-1.8256,-1.8185,-1.7984,-1.7091,-1.6851,-1.6866,-1.6737,-1.6987,-1.7255,-1.7379,-1.7312,-1.7229,-1.7229,-1.6547,-1.5705,-1.5092,-1.3758,-1.2171,-1.0262,-0.8916,-0.7647,-0.6095,-0.5493,-0.5193,-0.5214,-0.5177,-0.5296,-0.559,-0.5367,-0.5075,-0.4718,-0.3975,-0.3518,-0.3481,-0.4148,-0.5028,-0.6005,-0.7479,-0.8746,-0.9964,-1.2671,-1.4448,-1.531,-1.6317,-1.6779,-1.6779,-1.7051,-1.719,-1.719,-1.719,-1.719,-1.719,-1.719,-1.719,-1.719,-1.719,-1.719,-1.719,-1.719,-1.7163,-1.7119,-1.9961,-1.9961,-1.9961,-1.9961,-1.9961,-1.9961,-1.9961,-1.9961,-1.9961,-1.9961,-1.9961,-2.0001,-1.9886,-1.9761,-1.9636,-1.9522,-1.9392,-1.9327,-1.9327,-1.9327,-1.9223,-1.8989,-1.8973,-1.8919,-1.8777,-1.868,-1.8511,-1.8343,-1.8343,-1.8158,-1.7935,-1.8044,-1.8087,-1.8103,-1.8212,-1.8343,-1.8326,-1.9052,-1.9266,-1.9145,-1.9134,-1.907,-1.8914,-1.8329,-1.8174,-1.837,-1.8549,-1.8707,-1.8821,-1.8946,-1.8919,-1.8821,-1.8788,-1.8647,-1.8396,-1.8308,-1.8282,-1.7967,-1.6994,-1.6682,-1.6231,-1.4584,-1.4759,-1.5341,-1.5721,-1.5674,-1.5599,-1.5599,-1.483,-1.3784,-1.2371,-1.0881,-0.9147,-0.6932,-0.58,-0.4701,-0.3297,-0.2982,-0.2889,-0.2889,-0.2886,-0.3159,-0.385,-0.33,-0.2679,-0.2062,-0.1375,-0.1306,-0.1995,-0.268,-0.3709,-0.4947,-0.646,-0.7556,-0.8171,-0.9747,-1.1588,-1.3844,-1.5258,-1.5993,-1.6112,-1.6779,-1.7118,-1.719,-1.719,-1.719,-1.719,-1.719,-1.719,-1.719,-1.719,-1.719,-1.719,-1.7174,-1.7103,-1.7005,-1.9961,-1.9961,-1.9961,-1.9961,-1.9961,-1.9961,-1.9961,-1.9961,-1.9961,-1.9961,-1.9961,-2.0001,-1.9886,-1.9761,-1.9636,-1.9522,-1.9392,-1.9327,-1.9327,-1.9327,-1.9223,-1.8989,-1.8973,-1.8875,-1.8663,-1.8636,-1.8549,-1.8397,-1.8397,-1.8326,-1.8185,-1.8272,-1.8288,-1.8228,-1.8343,-1.8343,-1.8326,-1.8501,-1.8545,-1.8489,-1.8401,-1.8401,-1.8462,-1.8342,-1.8299,-1.8424,-1.8663,-1.8832,-1.8957,-1.9145,-1.9172,-1.9044,-1.8848,-1.8761,-1.8529,-1.7766,-1.755,-1.7086,-1.4978,-1.3979,-1.3071,-1.1571,-1.0834,-1.1085,-1.3413,-1.3544,-1.3109,-1.3109,-1.1979,-1.0816,-0.9899,-0.8566,-0.7045,-0.5294,-0.385,-0.263,-0.1698,-0.1048,-0.0694,-0.0698,-0.0692,-0.0757,-0.09,-0.0758,-0.0619,-0.0481,-0.0344,-0.0276,-0.0485,-0.1172,-0.1722,-0.2009,-0.3445,-0.4259,-0.4397,-0.6456,-0.9091,-1.2397,-1.381,-1.5057,-1.6112,-1.625,-1.6646,-1.719,-1.719,-1.719,-1.719,-1.719,-1.719,-1.719,-1.719,-1.719,-1.7174,-1.7076,-1.7032,-1.6978,-1.9957,-1.9914,-1.987,-1.987,-1.993,-1.9957,-1.9957,-2.0012,-1.9961,-1.9961,-2.0001,-1.9914,-1.9805,-1.9674,-1.9549,-1.9435,-1.9365,-1.9327,-1.9327,-1.9327,-1.924,-1.9071,-1.9,-1.8886,-1.8707,-1.8647,-1.8565,-1.8369,-1.8369,-1.8381,-1.8326,-1.8315,-1.8343,-1.8353,-1.8468,-1.8495,-1.844,-1.8495,-1.8451,-1.8343,-1.8272,-1.8256,-1.8326,-1.8326,-1.8381,-1.8407,-1.8777,-1.8989,-1.9158,-1.9212,-1.9196,-1.9131,-1.893,-1.8832,-1.8616,-1.7639,-1.7366,-1.6766,-1.4008,-1.2666,-1.1473,-0.9142,-0.7973,-0.7942,-1.0223,-1.0426,-1.008,-0.9731,-0.8795,-0.7785,-0.696,-0.566,-0.4331,-0.3104,-0.1938,-0.1072,-0.0641,-0.0211,0.0,0.0,0.0,0.0,0.0,0.0,0.0,0.0,0.0,0.0,0.0,-0.069,-0.1106,-0.1111,-0.2151,-0.2706,-0.2706,-0.4231,-0.6289,-0.8914,-1.1713,-1.341,-1.4174,-1.5464,-1.6317,-1.6712,-1.7051,-1.719,-1.719,-1.719,-1.719,-1.719,-1.719,-1.7147,-1.7092,-1.7032,-1.6935,-1.6809,-1.9843,-1.9761,-1.9691,-1.9691,-1.9772,-1.9843,-1.9843,-1.9941,-2.0001,-1.9984,-1.9914,-1.9816,-1.9674,-1.9549,-1.9435,-1.9337,-1.9327,-1.9327,-1.9327,-1.9327,-1.9267,-1.9205,-1.9028,-1.8902,-1.8761,-1.8663,-1.8565,-1.8396,-1.8396,-1.8424,-1.8326,-1.8424,-1.8396,-1.8407,-1.8576,-1.862,-1.862,-1.862,-1.8565,-1.8396,-1.838,-1.8397,-1.8326,-1.8408,-1.838,-1.8511,-1.8832,-1.9098,-1.9294,-1.9327,-1.9267,-1.9158,-1.9017,-1.8829,-1.8434,-1.7571,-1.7014,-1.6059,-1.295,-1.1332,-0.9851,-0.6977,-0.5601,-0.5296,-0.6393,-0.687,-0.6864,-0.6232,-0.5563,-0.4891,-0.4065,-0.2945,-0.1881,-0.109,-0.0432,0.0,0.0,0.0,0.0,0.0,0.0,0.0,0.0,0.0,0.0,0.0,0.0,0.0,0.0,-0.0553,-0.0903,-0.0903,-0.1607,-0.2035,-0.2035,-0.2944,-0.3984,-0.5201,-0.9242,-1.142,-1.2018,-1.4545,-1.5845,-1.6117,-1.6851,-1.719,-1.719,-1.719,-1.719,-1.719,-1.7163,-1.7092,-1.7005,-1.6962,-1.6809,-1.6597,-1.9718,-1.9702,-1.9691,-1.9691,-1.9702,-1.9718,-1.9718,-1.9816,-1.9859,-1.9745,-1.9816,-1.9789,-1.956,-1.9424,-1.9337,-1.9327,-1.9327,-1.9327,-1.9327,-1.9327,-1.9223,-1.9074,-1.8989,-1.8875,-1.8647,-1.8636,-1.8609,-1.8593,-1.8593,-1.8593,-1.8582,-1.8593,-1.8593,-1.8593,-1.8609,-1.862,-1.862,-1.862,-1.8609,-1.8593,-1.8478,-1.8495,-1.8565,-1.8468,-1.8439,-1.862,-1.8761,-1.8973,-1.9196,-1.9294,-1.931,-1.9267,-1.9044,-1.8521,-1.7723,-1.6783,-1.5055,-1.2881,-1.0403,-0.8183,-0.6128,-0.4393,-0.3285,-0.2549,-0.2123,-0.3026,-0.3996,-0.3856,-0.3243,-0.248,-0.1702,-0.1432,-0.1081,-0.0287,-0.0072,0.0,0.0,0.0,0.0,0.0,0.0,0.0,0.0,0.0,0.0,0.0,0.0,0.0,0.0,-0.0069,-0.0139,-0.0139,-0.0838,-0.1262,-0.1262,-0.2666,-0.3495,-0.3611,-0.6747,-0.9503,-1.1951,-1.3539,-1.4972,-1.6117,-1.6851,-1.719,-1.719,-1.719,-1.719,-1.7174,-1.7076,-1.7021,-1.6978,-1.6766,-1.6614,-1.6483,-1.9593,-1.9533,-1.9479,-1.9479,-1.9549,-1.9593,-1.9593,-1.9691,-1.9745,-1.9702,-1.9674,-1.9631,-1.9522,-1.9392,-1.9327,-1.9327,-1.9327,-1.9327,-1.9327,-1.9267,-1.9185,-1.9087,-1.8946,-1.8821,-1.8718,-1.8647,-1.862,-1.862,-1.862,-1.862,-1.862,-1.862,-1.862,-1.862,-1.862,-1.862,-1.862,-1.862,-1.862,-1.862,-1.8565,-1.8576,-1.862,-1.8565,-1.8576,-1.8636,-1.875,-1.8946,-1.9169,-1.9212,-1.9267,-1.9283,-1.9044,-1.8447,-1.7523,-1.6062,-1.4262,-1.2082,-0.8883,-0.6616,-0.4713,-0.2747,-0.1578,-0.0854,-0.0567,-0.0987,-0.1473,-0.1473,-0.1266,-0.0917,-0.0566,-0.0498,-0.0429,-0.0072,0.0,0.0,0.0,0.0,0.0,0.0,0.0,0.0,0.0,0.0,0.0,0.0,0.0,0.0,0.0,0.0,-0.0207,-0.0625,-0.1328,-0.1963,-0.2383,-0.3425,-0.4177,-0.458,-0.6587,-0.8453,-1.0183,-1.2801,-1.4566,-1.5516,-1.6712,-1.719,-1.719,-1.719,-1.7147,-1.7076,-1.7032,-1.6918,-1.6782,-1.6614,-1.6516,-1.6472]},{"header":{"parameterUnit":"m.s-1","parameterCategory":1,"la1":30.6,"la2":28.766,"lo1":-90.7593,"lo2":-88.6598,"dy":0.0162,"dx":0.0183,"nx":116,"ny":114,"refTime":"2024-06-15T00:00:00:Z","depth":0,"parameterNumber":3,"parameterNumberName":"V-component_of_WINDS"},"data":[0.0,0.0,0.0,0.0,0.0,0.0,0.0,0.0,0.0,0.0,0.0,0.0,0.0,0.0,0.0,0.0,0.0,0.0,0.0,0.0,0.0,0.0,0.0,0.0,0.0,0.0,0.0,0.0,0.0,0.0,0.0,0.0,0.0,0.0,0.0,0.0,0.0,0.0,0.0,0.0,0.0,0.0,0.0,0.0,0.0,0.0,0.0,0.0,0.0,0.0,0.0,0.0,0.0,0.0,0.0,0.0,0.0,0.0,0.0,0.0,0.0,0.0,0.0,0.0,0.0,0.0,0.0,0.0,0.0,0.0,0.0,0.0,0.0,0.0,0.0,0.0,0.0,0.0,0.0,0.0,0.0,0.0,0.0,0.0,0.0,0.0,0.0,0.0,0.0,0.0,0.0,0.0,0.0,0.0,0.0,0.0,0.0,0.0,0.0,0.0,0.0,0.0,0.0,0.0,0.0,0.0,0.0,0.0,0.0,0.0,0.0,0.0,0.0,0.0,0.0,0.0,0.0,0.0,0.0,0.0,0.0,0.0,0.0,0.0,0.0,0.0,0.0,0.0,0.0,0.0,0.0,0.0,0.0,0.0,0.0,0.0,0.0,0.0,0.0,0.0,0.0,0.0,0.0,0.0,0.0,0.0,0.0,0.0,0.0,0.0,0.0,0.0,0.0,0.0,0.0,0.0,0.0,0.0,0.0,0.0,0.0,0.0,0.0,0.0,0.0,0.0,0.0,0.0,0.0,0.0,0.0,0.0,0.0,0.0,0.0,0.0,0.0,0.0,0.0,0.0,0.0,0.0,0.0,0.0,0.0,0.0,0.0,0.0,0.0,0.0,0.0,0.0,0.0,0.0,0.0,0.0,0.0,0.0,0.0,0.0,0.0,0.0,0.0,0.0,0.0,0.0,0.0,0.0,0.0,0.0,0.0,0.0,0.0,0.0,0.0,0.0,0.0,0.0,0.0,0.0,0.0,0.0,0.0,0.0,0.0,0.0,0.0,0.0,0.0,0.0,0.0,0.0,0.0,0.0,0.0,0.0,0.0,0.0,0.0,0.0,0.0,0.0,0.0,0.0,0.0,0.0,0.0,0.0,0.0,0.0,0.0,0.0,0.0,0.0,0.0,0.0,0.0,0.0,0.0,0.0,0.0,0.0,0.0,0.0,0.0,0.0,0.0,0.0,0.0,0.0,0.0,0.0,0.0,0.0,0.0,0.0,0.0,0.0,0.0,0.0,0.0,0.0,0.0,0.0,0.0,0.0,0.0,0.0,0.0,0.0,0.0,0.0,0.0,0.0,0.0,0.0,0.0,0.0,0.0,0.0,0.0,0.0,0.0,0.0,0.0,0.0,0.0,0.0,0.0,0.0,0.0,0.0,0.0,0.0,0.0,0.0,0.0,0.0,0.0,0.0,0.0,0.0,0.0,0.0,0.0,0.0,0.0,0.0,0.0,0.0,0.0,0.0,0.0,0.0,0.0,0.0,0.0,0.0,0.0,0.0,0.0,0.0,0.0,0.0,0.0,0.0,0.0,0.0,0.0,0.0,0.0,0.0,0.0,0.0,0.0,0.0,0.0,0.0,0.0,0.0,0.0,0.0,0.0,0.0,0.0,0.0,0.0,0.0,0.0,0.0,0.0,0.0,0.0,0.0,0.0,0.0,0.0,0.0,0.0,0.0,0.0,0.0,0.0,0.0,0.0,0.0,0.0,0.0,0.0,0.0,0.0,0.0,0.0,0.0,0.0,0.0,0.0,0.0,0.0,0.0,0.0,0.0,0.0,0.0,0.0,0.0,0.0,0.0,0.0,0.0,0.0,0.0,0.0,0.0,0.0,0.0,0.0,0.0,0.0,0.0,0.0,0.0,0.0,0.0,0.0,0.0,0.0,0.0,0.0,0.0,0.0,0.0,0.0,0.0,0.0,0.0,0.0,0.0,0.0,0.0,0.0,0.0,0.0,0.0,0.0,0.0,0.0,0.0,0.0,0.0,0.0,0.0,0.0,0.0,0.0,0.0,0.0,0.0,0.0,0.0,0.0,0.0,0.0,0.0,0.0,0.0,0.0,0.0,0.0,0.0,0.0,0.0,0.0,0.0,0.0,0.0,0.0,0.0,0.0,0.0,0.0,0.0,0.0,0.0,0.0,0.0,0.0,0.0,0.0,0.0,0.0,0.0,0.0,0.0,0.0,0.0,0.0,0.0,0.0,0.0,0.0,0.0,0.0,0.0,0.0,0.0,0.0,0.0,0.0,0.0,0.0,0.0,0.0,0.0,0.0,0.0,0.0,0.0,0.0,0.0,0.0,0.0,0.0,0.0,0.0,0.0,0.0,0.0,0.0,0.0,0.0,0.0,0.0,0.0,0.0,0.0,0.0,0.0,0.0,0.0,0.0,0.0,0.0,0.0,0.0,0.0,0.0,0.0,0.0,0.0,0.0,0.0,0.0,0.0,0.0,0.0,0.0,0.0,0.0,0.0,0.0,0.0,0.0,0.0,0.0,0.0,0.0,0.0,0.0,0.0,0.0,0.0,0.0,0.0,0.0,0.0,0.0,0.0,0.0,0.0,0.0,0.0,0.0,0.0,0.0,0.0,0.0,0.0,0.0,0.0,0.0,0.0,0.0,0.0,0.0,0.0,0.0,0.0,0.0,0.0,0.0,0.0,0.0,0.0,0.0,0.0,0.0,0.0,0.0,0.0,0.0,0.0,0.0,0.0,0.0,0.0,0.0,0.0,0.0,0.0,0.0,0.0,0.0,0.0,0.0,0.0,0.0,0.0,0.0,0.0,0.0,0.0,0.0,0.0,0.0,0.0,0.0,0.0,0.0,0.0,0.0,0.0,0.0,0.0,0.0,0.0,0.0,0.0,0.0,0.0,0.0,0.0,0.0,0.0,0.0,0.0,0.0,0.0,0.0,0.0,0.0,0.0,0.0,0.0,0.0,0.0,0.0,0.0,0.0,0.0,0.0,0.0,0.0,0.0,0.0,0.0,0.0,0.0,0.0,0.0,0.0,0.0,0.0,0.0,0.0,0.0,0.0,0.0,0.0,0.0,0.0,0.0,0.0,0.0,0.0,0.0,0.0,0.0,0.0,0.0,0.0,0.0,0.0,0.0,0.0,0.0,0.0,0.0,0.0,0.0,0.0,0.0,0.0,0.0,0.0,0.0,0.0,0.0,0.0,0.0,0.0,0.0,0.0,0.0,0.0,0.0,0.0,0.0,0.0,0.0,0.0,0.0,0.0,0.0,0.0,0.0,0.0,0.0,0.0,0.0,0.0,0.0,0.0,0.0,0.0,0.0,0.0,0.0,0.0,0.0,0.0,0.0,0.0,0.0,0.0,0.0,0.0,0.0,0.0,0.0,0.0,0.0,0.0,0.0,0.0,0.0,0.0,0.0,0.0,0.0,0.0,0.0,0.0,0.0,0.0,0.0,0.0,0.0,0.0,0.0,0.0,0.0,0.0,0.0,0.0,0.0,0.0,0.0,0.0,0.0,0.0,0.0,0.0,0.0,0.0,0.0,0.0,0.0,0.0,0.0,0.0,0.0,0.0,0.0,0.0,0.0,0.0,0.0,0.0,0.0,0.0,0.0,0.0,0.0,0.0,0.0,0.0,0.0,0.0,0.0,0.0,0.0,0.0,0.0,0.0,0.0,0.0,0.0,0.0,0.0,0.0,0.0,0.0,0.0,0.0,0.0,0.0,0.0,0.0,0.0,0.0,0.0,0.0,0.0,0.0,0.0,0.0,0.0,0.0,0.0,0.0,0.0,0.0,0.0,0.0,0.0,0.0,0.0,0.0,0.0,0.0,0.0,0.0,0.0,0.0,0.0,0.0,0.0,0.0,0.0,0.0,0.0,0.0,0.0,0.0,0.0,0.0,0.0,0.0,0.0,0.0,0.0,0.0,0.0,0.0,0.0,0.0,0.0,0.0,0.0,0.0,0.0,0.0,0.0,0.0,0.0,0.0,0.0,0.0,0.0,0.0,0.0,0.0,0.0,0.0,0.0,0.0,0.0,0.0,0.0,0.0,0.0,0.0,0.0,0.0,0.0,0.0,0.0,0.0,0.0,0.0,0.0,0.0,0.0,0.0,0.0,0.0,0.0,0.0,0.0,0.0,0.0,0.0,0.0,0.0,0.0,0.0,0.0,0.0,0.0,0.0,0.0,0.0,0.0,0.0,0.0,0.0,0.0,0.0,0.0,0.0,0.0,0.0,0.0,0.0,0.0,0.0,0.0,0.0,0.0,0.0,0.0,0.0,0.0,0.0,0.0,0.0,0.0,0.0,0.0,0.0,0.0,0.0,0.0,0.0,0.0,0.0,0.0,0.0,0.0,0.0,0.0,0.0,0.0,0.0,0.0,0.0,0.0,0.0,0.0,0.0,0.0,0.0,0.0,0.0,0.0,0.0,0.0,0.0,0.0,0.0,0.0,0.0,0.0,0.0,0.0,0.0,0.0,0.0,0.0,0.0,0.0,0.0,0.0,0.0,0.0,0.0,0.0,0.0,0.0,0.0,0.0,0.0,0.0,0.0,0.0,0.0,0.0,0.0,0.0,0.0,0.0,0.0,0.0,0.0,0.0,0.0,0.0,0.0,0.0,0.0,0.0,0.0,0.0,0.0,0.0,0.0,0.0,0.0,0.0,0.0,0.0,0.0,0.0,0.0,0.0,0.0,0.0,0.0,0.0,0.0,0.0,0.0,0.0,0.0,0.0,0.0,0.0,0.0,0.0,0.0,0.0,0.0,0.0,0.0,0.0,0.0,0.0,0.0,0.0,0.0,0.0,0.0,0.0,0.0,0.0,0.0,0.0,0.0,0.0,0.0,0.0,0.0,0.0,0.0,0.0,0.0,0.0,0.0,0.0,0.0,0.0,0.0,0.0,0.0,0.0,0.0,0.0,0.0,0.0,0.0,0.0,0.0,0.0,0.0,0.0,0.0,0.0,0.0,0.0,0.0,0.0,0.0,0.0,0.0,0.0,0.0,0.0,0.0,0.0,0.0,0.0,0.0,0.0,0.0,0.0,0.0,0.0,0.0,0.0,0.0,0.0,0.0,0.0,0.0,0.0,0.0,0.0,0.0,0.0,0.0,0.0,0.0,0.0,0.0,0.0,0.0,0.0,0.0,0.0,0.0,0.0,0.0,0.0,0.0,0.0,0.0,0.0,0.0,0.0,0.0,0.0,0.0,0.0,0.0,0.0,0.0,0.0,0.0,0.0,0.0,0.0,0.0,0.0,0.0,0.0,0.0,0.0,0.0,0.0,0.0,0.0,0.0,0.0,0.0,0.0,0.0,0.0,0.0,0.0,0.0,0.0,0.0,0.0,0.0,0.0,0.0,0.0,0.0,0.0,0.0,0.0,0.0,0.0,0.0,0.0,0.0,0.0,0.0,0.0,0.0,0.0,0.0,0.0,0.0,0.0,0.0,0.0,0.0,0.0,0.0,0.0,0.0,0.0,0.0,0.0,0.0,0.0,0.0,0.0,0.0,0.0,0.0,0.0,0.0,0.0,0.0,0.0,0.0,0.0,0.0,0.0,0.0,0.0,0.0,0.0,0.0,0.0,0.0,0.0,0.0,0.0,0.0,0.0,0.0,0.0,0.0,0.0,0.0,0.0,0.0,0.0,0.0,0.0,0.0,0.0,0.0,0.0,0.0,0.0,0.0,0.0,0.0,0.0,0.0,0.0,0.0,0.0,0.0,0.0,0.0,0.0,0.0,0.0,0.0,0.0,0.0,0.0,0.0,0.0,0.0,0.0,0.0,0.0,0.0,0.0,0.0,0.0,0.0,0.0,0.0,0.0,0.0,0.0,0.0,0.0,0.0,0.0,0.0,0.0,0.0,0.0,0.0,0.0,0.0,0.0,0.0,0.0,0.0,0.0,0.0,0.0,0.0,0.0,0.0,0.0,0.0,0.0,0.0,0.0,0.0,0.0,0.0,0.0,0.0,0.0,0.0,0.0,0.0,0.0,0.0,0.0,0.0,0.0,0.0,0.0,0.0,0.0,0.0,0.0,0.0,0.0,0.0,0.0,0.0,0.0,0.0,0.0,0.0,0.0,0.0,0.0,0.0,0.0,0.0,0.0,0.0,0.0,0.0,0.0,6.2903,0.0,0.0,0.0,0.0,0.0,0.0,0.0,0.0,0.0,0.0,0.0,0.0,0.0,0.0,0.0,0.0,0.0,0.0,0.0,0.0,0.0,0.0,0.0,0.0,6.2944,6.4847,6.5699,6.657,6.7057,6.6991,6.6568,6.5927,6.5001,6.4514,6.3688,6.243,6.2779,6.2773,6.2385,6.3197,6.3652,6.3757,6.227,6.0675,5.896,0.0,0.0,0.0,0.0,0.0,0.0,0.0,0.0,0.0,0.0,0.0,0.0,0.0,0.0,0.0,0.0,0.0,0.0,0.0,0.0,0.0,0.0,0.0,0.0,0.0,0.0,0.0,0.0,0.0,0.0,0.0,0.0,0.0,0.0,0.0,0.0,0.0,0.0,0.0,0.0,0.0,0.0,0.0,0.0,0.0,0.0,0.0,0.0,0.0,0.0,0.0,0.0,0.0,0.0,0.0,0.0,0.0,0.0,0.0,0.0,0.0,0.0,0.0,0.0,0.0,0.0,0.0,0.0,0.0,0.0,0.0,6.5729,0.0,0.0,0.0,0.0,0.0,0.0,0.0,0.0,0.0,0.0,0.0,0.0,0.0,0.0,0.0,0.0,0.0,0.0,0.0,0.0,0.0,5.9281,6.1826,6.4365,6.6211,6.7019,6.7898,6.8371,6.8317,6.8317,6.7637,6.6155,6.6078,6.5426,6.4044,6.4742,6.5114,6.5167,6.6057,6.6583,6.6782,6.6782,6.509,6.2054,6.0559,0.0,0.0,0.0,0.0,0.0,0.0,0.0,0.0,0.0,0.0,0.0,0.0,0.0,0.0,0.0,0.0,0.0,0.0,0.0,0.0,0.0,0.0,0.0,0.0,0.0,0.0,0.0,0.0,0.0,0.0,0.0,0.0,0.0,0.0,0.0,0.0,0.0,0.0,0.0,0.0,0.0,0.0,0.0,0.0,0.0,0.0,0.0,0.0,0.0,0.0,0.0,0.0,0.0,0.0,0.0,0.0,0.0,0.0,0.0,0.0,0.0,0.0,0.0,7.5656,7.5904,7.5875,7.5838,7.5837,7.5669,7.2324,7.0459,6.9633,6.8164,0.0,0.0,0.0,0.0,0.0,0.0,0.0,0.0,0.0,0.0,0.0,0.0,0.0,0.0,0.0,0.0,0.0,0.0,0.0,5.9281,6.1826,6.4365,6.6211,6.7019,6.7898,6.8385,6.8378,6.8378,6.8301,6.8057,6.8019,6.7942,6.7718,6.7788,6.7871,6.7878,6.8769,6.9545,7.0244,7.0244,6.9615,6.832,6.4475,6.2322,6.1438,0.0,0.0,0.0,0.0,0.0,0.0,0.0,0.0,0.0,0.0,0.0,0.0,0.0,0.0,0.0,0.0,0.0,0.0,0.0,0.0,0.0,0.0,0.0,0.0,0.0,0.0,0.0,0.0,0.0,0.0,0.0,0.0,0.0,0.0,0.0,0.0,0.0,0.0,0.0,0.0,0.0,6.842,7.0165,0.0,0.0,0.0,0.0,0.0,0.0,0.0,0.0,0.0,0.0,0.0,0.0,0.0,7.7138,7.7984,7.8071,7.8027,7.7807,7.8442,7.8705,7.8596,7.9268,7.9585,7.9548,7.9032,0.0,7.301,7.2092,0.0,0.0,0.0,0.0,0.0,0.0,0.0,0.0,0.0,0.0,0.0,0.0,0.0,0.0,0.0,0.0,0.0,0.0,0.0,0.0,0.0,6.6051,6.7628,6.8475,6.9321,6.9821,6.9821,6.9821,6.959,6.9161,6.9122,6.8891,6.8391,6.8891,6.959,7.0552,7.1398,7.2007,7.2353,7.2353,7.1898,7.1014,6.9129,6.7051,6.4788,6.2589,0.0,0.0,0.0,0.0,0.0,0.0,0.0,0.0,0.0,0.0,0.0,0.0,0.0,0.0,0.0,0.0,0.0,0.0,0.0,0.0,0.0,0.0,0.0,0.0,0.0,0.0,0.0,0.0,0.0,0.0,0.0,0.0,0.0,0.0,0.0,0.0,0.0,0.0,0.0,6.9962,7.1605,7.3346,7.2881,7.2596,0.0,0.0,0.0,0.0,0.0,0.0,0.0,0.0,0.0,7.7994,7.8762,7.9465,8.0223,8.12,8.1559,8.1394,8.2462,8.2912,8.2876,8.3158,8.3261,8.3261,8.3261,8.1682,7.8832,7.6463,7.4534,7.3014,0.0,0.0,0.0,0.0,7.1003,7.1572,0.0,0.0,0.0,0.0,0.0,0.0,0.0,0.0,0.0,0.0,0.0,0.0,6.5673,6.7782,6.9314,6.9937,7.0975,7.1475,7.1245,7.1245,7.086,7.0052,7.0014,6.9706,6.9045,6.9898,7.1168,7.2822,7.3469,7.393,7.4123,7.4353,7.413,7.3483,7.3483,7.1482,6.7904,6.5583,6.4012,6.2787,0.0,0.0,0.0,0.0,0.0,0.0,0.0,0.0,0.0,0.0,0.0,0.0,0.0,0.0,0.0,0.0,0.0,0.0,0.0,0.0,0.0,0.0,0.0,0.0,0.0,0.0,0.0,0.0,0.0,0.0,0.0,0.0,0.0,0.0,0.0,0.0,0.0,7.3392,7.4598,7.6124,7.5683,7.5468,0.0,0.0,0.0,0.0,0.0,0.0,7.7877,7.8661,7.963,8.0787,8.1243,8.1896,8.2832,8.4126,8.4702,8.4513,8.5503,8.5943,8.5871,8.5753,8.5745,8.5745,8.5745,8.5068,8.3742,8.0495,7.8091,7.6402,7.598,7.5318,7.4638,7.4845,7.5034,7.5246,0.0,0.0,0.0,0.0,0.0,0.0,0.0,0.0,0.0,0.0,0.0,6.482,6.5788,6.8821,7.0783,7.0821,7.2392,7.3014,7.2175,7.2136,7.1752,7.0898,7.0821,7.0821,7.0783,7.1636,7.2899,7.4584,7.4623,7.5046,7.5899,7.6707,7.7099,7.7022,7.7022,7.4668,7.0591,6.8853,6.7199,6.548,6.2903,0.0,0.0,0.0,0.0,0.0,0.0,0.0,0.0,0.0,0.0,0.0,0.0,0.0,0.0,0.0,0.0,0.0,0.0,0.0,0.0,0.0,0.0,0.0,0.0,0.0,0.0,0.0,0.0,0.0,0.0,0.0,0.0,0.0,0.0,0.0,0.0,0.0,0.0,7.8181,7.8825,0.0,0.0,0.0,0.0,7.9739,7.9783,8.0152,8.0922,8.1132,8.2039,8.381,8.4142,8.5072,8.6719,8.6933,8.6807,8.635,8.6411,8.6335,8.6105,8.609,8.6053,8.6053,8.6053,8.6101,8.599,8.3831,8.1486,7.9321,7.9535,7.9132,7.8474,7.8877,7.9499,8.0151,0.0,0.0,0.0,5.2,5.3274,5.4664,5.5555,5.7824,6.0171,6.2166,6.4166,6.6359,6.8859,7.0167,7.136,7.2476,7.3122,7.3129,7.2252,7.2213,7.1828,7.0937,7.1437,7.2014,7.2545,7.3937,7.4938,7.5553,7.663,7.7284,7.7638,7.7946,7.8061,7.8061,7.8061,7.7215,7.5599,7.2853,7.0391,6.8167,6.6134,6.3782,0.0,0.0,0.0,0.0,0.0,0.0,0.0,0.0,0.0,0.0,0.0,0.0,0.0,0.0,0.0,0.0,0.0,0.0,0.0,0.0,0.0,0.0,0.0,0.0,0.0,0.0,0.0,0.0,0.0,0.0,0.0,0.0,0.0,0.0,0.0,0.0,0.0,8.1067,8.1235,0.0,8.112,8.0989,8.098,8.1194,8.2159,8.2884,8.3171,8.4238,8.5194,8.5925,8.6153,8.6467,8.7009,8.7638,8.7852,8.7583,8.811,8.8307,8.8213,8.8213,8.8213,8.8213,8.8213,8.7953,8.7466,8.6718,8.518,8.3233,8.3419,8.301,8.2347,8.2657,8.2602,8.2399,0.0,0.0,0.0,5.239,5.4203,5.5978,5.6857,5.9402,6.1941,6.3929,6.5667,6.7782,7.0591,7.1437,7.2353,7.3776,7.4161,7.386,7.2706,7.2899,7.2514,7.1398,7.2437,7.3437,7.4315,7.5707,7.6553,7.6823,7.7946,7.8484,7.8523,7.8792,7.8938,7.8977,7.9523,7.9485,7.8823,7.6899,7.4238,7.1245,6.9513,6.7475,6.5352,0.0,0.0,0.0,0.0,0.0,0.0,0.0,0.0,0.0,0.0,0.0,0.0,0.0,0.0,0.0,0.0,0.0,0.0,0.0,0.0,0.0,0.0,0.0,0.0,0.0,0.0,0.0,0.0,0.0,0.0,0.0,0.0,0.0,0.0,8.1814,8.2724,8.3479,8.3634,8.3756,8.3937,8.3845,8.3699,8.3614,8.462,8.5197,8.5197,8.6202,8.702,8.7462,8.755,8.7726,8.7941,8.8557,8.8948,8.9124,8.9639,9.0029,9.0253,9.0253,9.0253,9.0253,9.0253,8.9978,8.9501,8.9553,8.8859,8.7637,8.687,8.6027,8.5385,8.5988,8.5637,8.4939,0.0,0.0,0.0,5.3082,5.4664,5.6626,5.9127,6.1018,6.3095,6.5596,6.7436,6.9122,7.0783,7.2507,7.3853,7.4661,7.5515,7.5284,7.3661,7.4276,7.3976,7.2406,7.386,7.5168,7.6092,7.6984,7.783,7.8638,7.8638,7.8677,7.8677,7.9515,7.9931,7.9969,8.1631,8.1439,7.9969,8.0823,7.8746,7.4745,7.3053,7.136,6.9744,0.0,0.0,0.0,0.0,0.0,0.0,0.0,0.0,0.0,0.0,0.0,0.0,0.0,0.0,0.0,0.0,0.0,0.0,0.0,0.0,0.0,0.0,0.0,0.0,0.0,0.0,0.0,0.0,0.0,0.0,0.0,0.0,0.0,8.2053,8.3333,8.4591,8.5202,8.598,8.668,8.735,8.7306,8.7195,8.7221,8.7097,8.7059,8.7059,8.7059,8.75,8.8394,8.8482,8.891,8.9828,8.9866,9.0259,9.0928,9.0966,9.1279,9.1903,9.1903,9.1903,9.1903,9.1903,9.1982,9.2126,9.2254,9.2379,9.2261,8.9723,8.8196,8.7625,8.8787,8.8678,8.8002,0.0,0.0,5.3121,5.3972,5.6049,5.8011,5.9319,6.2012,6.4589,6.6519,6.8783,7.086,7.2584,7.3738,7.47,7.5553,7.5861,7.5553,7.443,7.4584,7.4784,7.4938,7.5399,7.663,7.8707,7.9592,8.0439,8.1246,8.1908,8.2216,8.2216,8.2447,8.2554,8.2593,8.3024,8.2986,8.2554,8.2793,8.1516,7.9131,7.6823,7.4861,7.3315,0.0,0.0,0.0,0.0,0.0,0.0,0.0,0.0,0.0,0.0,0.0,0.0,0.0,0.0,0.0,0.0,0.0,0.0,0.0,0.0,0.0,0.0,0.0,0.0,0.0,0.0,0.0,0.0,0.0,0.0,0.0,8.4401,8.492,8.4662,8.5474,8.6368,8.7072,8.7356,8.7498,8.749,8.7432,8.7412,8.7354,8.7849,8.8165,8.8165,8.8695,8.9136,8.94,9.0044,9.0486,9.0738,9.1306,9.1711,9.1938,9.2,9.2177,9.2329,9.2428,9.2477,9.2477,9.2477,9.2489,9.2525,9.2561,9.2597,9.2582,9.1836,9.1444,9.1277,9.1689,9.101,8.9711,0.0,5.2582,5.3587,5.478,5.6819,5.8819,6.0358,6.2551,6.4936,6.7321,6.8936,7.0629,7.2745,7.336,7.413,7.5361,7.5476,7.5245,7.4738,7.5053,7.5938,7.7515,7.7938,7.8977,8.0823,8.1708,8.2362,8.2832,8.337,8.3601,8.3601,8.3601,8.3601,8.3601,8.3978,8.3939,8.364,8.3978,8.3362,8.2016,8.0523,7.8707,7.6854,7.6854,7.6546,7.6123,7.6123,7.5592,7.4791,7.4445,0.0,0.0,0.0,0.0,0.0,0.0,0.0,0.0,0.0,0.0,0.0,0.0,0.0,0.0,0.0,0.0,0.0,0.0,0.0,0.0,0.0,0.0,0.0,0.0,8.5695,8.6393,8.712,8.7299,8.761,8.8335,8.839,8.8477,8.8604,8.8619,8.8623,8.8591,8.9292,8.9723,8.9723,9.0482,9.0937,9.0937,9.1479,9.1781,9.1781,9.2237,9.2654,9.2996,9.3107,9.3295,9.3637,9.3709,9.3745,9.3745,9.3745,9.3745,9.3745,9.3804,9.3815,0.0,0.0,0.0,0.0,0.0,9.2171,9.0975,0.0,5.2823,5.3862,5.5555,5.7203,5.9165,6.1722,6.287,6.4634,6.7994,6.861,6.961,7.1951,7.2297,7.299,7.4546,7.47,7.4776,7.4976,7.5899,7.7476,7.9862,8.0785,8.167,8.2554,8.3439,8.3947,8.4024,8.414,8.414,8.4024,8.4024,8.3986,8.3909,8.4709,8.4593,8.3947,8.4709,8.4555,8.3755,8.3755,8.2324,8.0239,8.0239,8.0239,8.0239,8.0239,7.9669,7.883,7.8099,0.0,0.0,0.0,0.0,0.0,0.0,0.0,0.0,0.0,0.0,0.0,0.0,0.0,0.0,0.0,0.0,0.0,0.0,0.0,0.0,0.0,0.0,0.0,0.0,8.6603,8.7603,8.9103,8.8835,8.869,8.9223,8.9365,8.9664,9.0315,9.0456,9.0494,9.0483,9.1102,9.1449,9.1449,9.2133,0.0,0.0,0.0,9.2831,9.2831,9.2946,9.3364,9.4125,9.4137,9.453,9.5203,9.5227,9.5265,9.5265,9.5265,9.5265,9.5239,9.5383,9.5429,9.5353,9.4651,9.3888,9.3201,9.3224,9.2771,9.2083,0.0,5.4115,5.4798,5.645,5.7627,5.9182,6.1774,6.3475,6.5418,6.8203,6.9751,7.1005,7.2147,7.2911,7.3699,7.463,7.47,7.5284,7.6707,7.8207,7.9592,8.0785,8.1631,8.2785,8.4354,8.5209,8.5978,8.6671,8.7371,8.7371,8.6671,8.6671,8.6286,8.5632,8.5786,8.5786,8.5632,8.5786,8.5401,8.467,8.467,8.3939,8.287,8.287,8.287,8.287,8.287,8.2285,8.1554,8.14,8.0439,7.9131,7.79,7.7099,0.0,0.0,0.0,0.0,0.0,0.0,0.0,0.0,0.0,0.0,0.0,0.0,0.0,0.0,0.0,0.0,0.0,0.0,0.0,8.759,8.8323,8.894,8.9256,9.0326,9.0888,9.036,9.0867,9.1321,9.1402,9.199,9.2326,9.2234,9.2351,9.2416,9.2416,9.2568,9.2644,9.2644,9.3352,9.3745,9.3745,9.4392,9.4811,9.4963,0.0,0.0,9.5371,9.5486,9.5531,9.5531,9.5531,9.5531,9.5531,9.5554,9.5565,9.5565,9.5374,9.5221,9.4992,9.4365,9.4021,9.3803,5.585,5.5616,5.5905,5.804,5.9088,6.0399,6.2574,6.3995,6.5738,6.8342,6.9425,7.0418,7.1665,7.2146,7.2713,7.3517,7.4683,7.6282,7.84,7.9784,8.1277,8.2964,8.3896,8.4936,8.6151,8.7006,8.7644,8.8064,8.8487,8.8487,8.8064,8.8064,8.7833,8.7363,8.694,8.6748,8.6709,8.6286,8.5863,8.5508,8.5508,8.5247,8.4824,8.4401,8.4516,8.4863,8.4863,8.4555,8.4132,8.3747,8.3054,8.2131,8.0823,7.9862,7.9015,0.0,0.0,0.0,0.0,0.0,0.0,0.0,0.0,0.0,0.0,0.0,0.0,0.0,0.0,8.5668,8.6332,0.0,8.7878,8.8621,8.9057,8.96,9.044,9.1281,9.1663,9.1243,9.193,9.2444,9.239,9.276,9.2967,9.29,9.3225,9.3457,9.3457,9.3838,9.4067,9.4067,9.4544,9.4807,9.4807,9.5189,9.5417,9.5417,9.5475,9.5509,9.5509,9.5576,9.5598,9.5598,9.5598,9.5598,9.5598,9.5598,9.5598,9.5598,9.5598,9.5598,9.556,9.514,9.4758,9.4327,5.7648,5.7243,5.7486,5.9698,6.0621,6.1697,6.3613,6.4474,6.5809,6.8272,6.8766,6.9416,7.0918,7.1025,7.1413,7.2428,7.4887,7.7376,7.9728,8.1051,8.2714,8.4973,8.6105,8.6954,8.7549,8.8567,8.9059,8.9024,8.9162,8.9145,8.8974,8.8974,8.8889,8.8679,8.7979,8.7632,8.7594,8.6709,8.6363,8.6324,8.617,8.6094,8.6017,8.5201,8.5277,8.5863,8.567,8.5709,8.5786,8.5124,8.4893,8.4662,8.3247,8.2247,8.1439,8.0746,7.99,0.0,0.0,0.0,0.0,0.0,0.0,0.0,0.0,8.4585,8.4706,8.5322,8.5979,8.6675,8.7303,8.7992,8.8766,8.9648,8.9791,9.0326,9.1854,9.2198,9.2312,9.2312,9.2924,9.3344,9.3344,9.3497,9.3573,9.3573,9.4135,9.446,9.446,9.5109,9.544,9.544,9.5554,9.5598,9.5598,9.5598,9.5598,9.5598,9.5598,9.5598,9.5598,9.5598,9.5598,9.5598,9.5598,9.5598,9.5598,9.5598,9.5598,9.5598,9.5598,9.5598,9.5598,9.5598,9.5178,9.4643,0.0,5.9313,5.9993,6.0881,6.1109,6.203,6.4553,6.5025,6.5774,6.7666,6.8578,6.9399,7.0248,7.0313,7.0942,7.2473,7.5487,7.8149,8.0029,8.2302,8.4107,8.5313,8.6816,8.7699,8.7836,8.9363,9.0141,9.0133,9.079,9.0711,8.9943,8.9943,8.9478,8.8718,8.8603,8.8564,8.8487,8.7632,8.7248,8.7171,8.6401,8.6094,8.6017,8.5201,8.497,8.4931,8.417,8.4362,8.5008,8.4931,8.4893,8.4854,8.4662,8.4016,8.3293,8.3216,8.2562,8.2247,8.3901,8.4854,8.5632,8.6594,8.6824,8.7055,0.0,8.8034,8.7973,8.807,8.8113,8.8366,8.9093,8.9303,8.9837,9.1264,9.151,9.1854,9.2809,9.3612,9.4108,9.4108,9.4212,9.425,9.425,9.4911,9.5331,9.5331,9.5396,9.5423,9.5423,9.5538,9.5576,9.5576,9.5598,9.5598,9.5598,9.5598,9.5598,9.5598,9.5598,9.5598,9.5598,9.5598,9.5598,9.5598,9.5598,9.5598,9.5598,9.5598,9.5598,9.5598,9.5598,9.5598,9.5598,9.5598,9.5522,9.5484,0.0,6.0097,6.127,6.2045,6.2539,6.3355,6.498,6.5699,6.6465,6.7767,6.8683,6.9517,7.0359,7.0834,7.1524,7.2627,7.5346,7.8132,8.0849,8.2985,8.4776,8.6139,8.7863,8.8794,8.8784,9.0396,9.1218,9.1179,9.1452,9.1395,9.1018,9.096,9.0705,9.0326,8.9816,8.9566,8.944,8.8562,8.7913,8.7363,8.7017,8.6555,8.5978,8.4632,8.4132,8.4093,8.3717,8.3832,0.0,8.4132,8.4478,8.4893,8.4893,8.467,8.4362,8.4362,8.4093,8.4209,8.5901,8.6978,8.7709,8.8064,8.8098,8.8132,8.8516,8.8513,8.8431,8.8327,8.8711,8.9103,8.9338,9.0169,9.1066,9.1712,9.2236,9.2847,9.3715,9.4174,9.4556,9.5025,9.5102,9.5102,9.5102,9.5407,9.5598,9.5598,9.5598,9.5598,9.5598,9.5598,9.5598,9.5598,9.5598,9.5598,9.5598,9.5598,9.5866,9.6363,9.6363,9.6363,9.6363,9.6363,9.6095,9.5598,9.5598,9.5598,9.5598,9.5598,9.5904,9.6363,9.6363,9.663,9.6936,9.5942,9.5598,9.5598,0.0,6.049,6.1887,6.2776,6.3581,6.4352,6.5232,6.6137,6.6968,6.7582,6.862,6.9655,7.0502,7.1299,7.1972,7.2496,7.4852,7.7649,8.0815,8.2898,8.4805,8.6497,8.8511,8.9561,8.9497,9.114,9.1977,9.1895,9.1859,9.181,9.1785,9.1668,9.1593,9.1533,9.0919,9.0581,9.0481,8.9594,8.8682,8.7784,8.7528,8.6888,8.594,8.4255,8.3601,8.3524,8.3101,8.3062,8.3255,8.3255,8.3978,8.4893,8.4893,8.5047,8.5286,8.5517,8.5931,8.6547,8.7748,8.8692,8.9329,8.9329,8.9258,8.9139,8.9139,8.9103,8.9008,8.893,8.9388,8.9845,8.9954,9.0975,9.1969,9.2427,9.3038,9.3764,9.4605,9.472,9.4949,9.5522,9.5598,9.5598,9.5598,9.5598,9.5598,9.5598,9.5598,9.5598,9.5598,9.5598,9.5598,9.5598,9.5828,9.5942,9.5942,9.6172,9.6592,9.7241,9.7241,9.7241,9.7241,9.7241,9.6898,9.6286,9.6286,9.6286,9.6286,9.6286,9.6668,9.7241,9.7241,9.7585,9.7918,9.6477,9.5942,9.5904,0.0,0.0,6.1989,6.2848,6.3703,6.4553,6.5352,6.6258,6.6811,6.6849,6.8321,6.9707,7.0493,7.1363,7.1892,7.1928,7.4212,7.6758,7.94,8.1944,8.4139,8.596,8.8427,8.9791,8.9784,9.1388,9.2203,9.2203,9.2112,9.2034,9.1982,9.1922,9.1859,9.1792,9.1689,9.1656,9.1604,9.0653,8.9701,8.8776,8.7881,8.6945,8.594,8.4255,8.3601,8.3409,8.1747,8.167,8.2324,8.2324,8.3478,8.4893,8.4893,8.5431,8.6247,8.7094,8.8479,8.9739,8.9816,9.037,9.0912,9.0912,9.0876,9.0839,9.0839,9.0713,9.0633,9.0633,9.0589,9.0784,9.1586,9.1778,9.2351,9.4059,9.4327,9.4643,9.5446,9.556,9.556,9.5598,9.5598,9.5598,9.5598,9.5598,9.5598,9.5598,9.5598,9.5598,9.5598,9.5598,9.5598,9.5598,9.6401,9.6859,9.6859,9.7612,9.8032,9.8071,9.8071,9.8071,9.8071,9.8071,9.8032,9.8032,9.8032,9.8032,9.8032,9.8032,9.8032,9.8071,9.8071,9.8071,9.7994,9.7165,9.6859,9.6745,0.0,0.0,0.0,6.2968,6.4218,6.5233,6.5504,6.6318,6.6863,6.6867,6.7833,0.0,0.0,0.0,0.0,0.0,7.3941,7.6812,7.9393,8.1449,8.3607,8.5946,8.7403,8.8417,8.8989,9.0083,9.0684,9.0684,9.0599,9.0878,9.1412,9.13,9.1217,9.1194,9.1144,9.0769,9.0142,8.9778,8.9074,8.8067,8.7093,8.6177,8.5174,8.3425,8.2747,8.2593,0.0,8.1285,8.1516,8.1516,8.2631,8.4055,8.4055,8.5363,8.7248,8.8671,8.947,8.9991,9.0515,9.0816,9.1009,9.0944,9.0848,9.0769,9.0769,9.0679,9.0645,9.0645,9.0614,9.085,9.1663,9.2274,9.3038,9.4212,9.4834,9.5293,9.556,9.5598,9.5598,9.5598,9.5598,9.5598,9.5598,9.5598,9.5598,9.5598,9.5598,9.5866,9.6439,9.6477,9.6706,9.7241,9.7547,9.7689,9.7689,9.7956,9.8388,9.8961,9.8961,9.8961,9.8923,9.8338,9.8109,9.8109,9.8109,9.8109,9.8109,9.8109,9.8464,9.8961,9.8961,9.9305,9.9599,9.8223,9.7689,9.7509,0.0,0.0,0.0,0.0,0.0,0.0,0.0,0.0,0.0,0.0,0.0,0.0,0.0,0.0,0.0,0.0,0.0,7.5856,7.8119,7.9873,8.2025,8.4615,8.5812,8.6827,8.77,8.8856,8.9472,8.9472,8.9718,9.0136,9.0682,9.0587,9.056,9.0556,9.045,9.009,8.9549,8.9463,8.8645,8.7435,8.6692,8.5656,8.4412,8.2902,8.2317,0.0,8.14,8.1285,8.1516,8.1516,8.2439,8.364,8.3986,8.5824,8.8132,8.9509,9.0098,9.0409,9.0883,9.0934,9.0896,9.0828,9.0729,9.0648,9.0648,9.0635,9.0659,9.0975,9.1052,9.1395,9.2504,9.3191,9.3841,9.4681,9.5255,9.5598,9.5598,9.5598,9.5598,9.5598,9.5598,9.5598,9.5598,9.5598,9.5598,9.5598,9.5904,9.6324,9.6859,9.7165,9.7574,9.8071,9.8414,9.8579,9.8579,9.8835,9.9266,9.984,9.984,9.984,9.9801,9.9266,9.8988,9.8988,9.8988,9.8988,9.8988,9.8988,9.9305,9.984,9.984,10.0107,10.0413,9.872,9.8109,9.7841,0.0,0.0,0.0,0.0,0.0,0.0,0.0,0.0,0.0,0.0,0.0,0.0,0.0,0.0,0.0,0.0,0.0,0.0,7.5619,7.7376,7.9483,8.2058,8.3775,8.5064,8.5963,8.7642,8.8501,8.8501,8.9263,8.9682,8.976,8.9772,8.9798,8.9835,8.9727,8.9631,8.9586,8.9438,8.836,8.6744,8.6526,8.5359,8.3637,8.2708,8.2278,8.2131,8.14,8.1631,8.2285,8.2285,8.2939,8.3901,8.4808,8.6769,8.8893,8.9731,9.0429,9.0971,9.1009,9.0867,9.0709,9.0709,9.0666,9.0583,9.0583,9.0621,9.0888,9.1625,9.1854,9.2389,9.4097,9.4403,9.4681,9.5484,9.5598,9.5598,9.5598,9.5598,9.5598,9.5598,9.5598,9.5598,9.5598,9.5637,9.5675,9.5675,9.6439,9.6936,9.7012,9.7727,9.8185,9.8223,9.9037,9.9458,9.9458,10.0183,10.0604,10.0604,10.0604,10.0604,10.0604,10.0604,10.0604,10.0604,10.0604,10.0604,10.0604,10.0604,10.0604,10.0604,10.0604,10.0604,10.0413,9.8758,9.8147,9.788,0.0,0.0,0.0,0.0,0.0,0.0,0.0,0.0,0.0,0.0,0.0,0.0,0.0,0.0,0.0,0.0,0.0,0.0,7.4759,7.6477,7.8311,8.0263,8.2019,8.3308,8.4167,8.5221,8.5805,8.5805,8.5997,8.6774,8.8023,8.8057,8.8357,8.8886,8.8241,8.7593,8.6905,8.62,8.5567,8.5039,8.4178,8.3455,8.2789,8.1844,8.147,8.1477,8.1862,8.2131,8.2285,8.2285,8.366,8.5629,8.7057,8.8344,8.9533,9.0378,9.0781,9.0896,9.0819,9.0749,9.0689,9.0645,9.0604,9.0583,9.0583,9.1052,9.1548,9.1739,9.2312,9.3115,9.4212,9.4403,9.4681,9.5484,9.5598,9.5598,9.5598,9.5598,9.5598,9.5598,9.5598,9.5598,9.5598,9.6172,9.6554,9.6554,9.6783,9.7432,9.8693,9.8961,9.9343,9.9954,10.0183,10.0298,10.0298,10.0489,10.0604,10.0604,10.0604,10.0604,10.0604,10.0604,10.0604,10.0604,10.0604,10.0604,10.0604,10.0604,10.0604,10.0604,10.0604,10.0604,10.0489,9.9458,9.8655,9.7956,0.0,0.0,0.0,0.0,0.0,0.0,0.0,0.0,0.0,0.0,0.0,0.0,0.0,0.0,0.0,0.0,0.0,0.0,0.0,7.5423,7.6906,7.9053,8.042,8.1552,8.2371,8.3582,8.4245,8.4245,8.4595,8.5298,8.6274,8.6274,8.6499,8.6907,8.638,8.588,8.537,8.4805,8.4342,0.0,0.0,8.2592,8.2097,8.1901,8.15,8.1246,8.2439,8.3069,8.3451,8.4178,8.5317,8.6761,8.8403,8.9228,8.9765,9.0647,9.0877,9.0789,9.0729,9.0679,9.0666,9.0604,9.0861,9.1128,9.1128,9.1778,9.2465,9.2847,9.3344,9.3917,9.4758,9.4949,9.5064,9.5522,9.5598,9.5598,9.5598,9.5598,9.5598,9.5598,9.5942,9.6172,9.6172,9.6936,9.7585,9.7967,9.8006,9.8388,9.9343,9.9725,10.0107,10.0604,10.0604,10.0604,10.0604,10.0604,10.0604,10.0604,10.0604,10.0604,10.0604,10.0604,10.0604,10.0604,0.0,10.0604,10.0604,10.0604,10.0604,10.0604,10.0604,10.0604,10.0489,9.9687,9.9075,9.8541,0.0,0.0,0.0,0.0,0.0,0.0,0.0,0.0,0.0,0.0,0.0,0.0,0.0,0.0,0.0,0.0,0.0,0.0,0.0,0.0,7.5696,7.7962,7.9014,7.9873,8.0655,8.2293,8.3152,8.3152,8.405,8.4517,8.4631,8.4631,8.4618,8.4594,8.453,8.4407,8.4224,8.4228,8.3738,8.2988,8.2859,8.2367,8.171,0.0,8.2123,8.1631,8.3208,8.4236,8.5134,8.6725,8.7254,8.7504,8.9075,8.965,8.988,9.0637,9.0759,9.0689,9.0689,9.0732,9.0774,9.0774,9.1357,9.1969,9.1969,9.2656,9.3497,9.425,9.4479,9.4758,9.5484,9.5598,9.5598,9.5598,9.5598,9.5598,9.5598,9.5713,9.5751,9.5751,9.6515,9.705,9.705,9.7815,9.8579,9.9343,9.9507,9.9572,9.9572,10.0183,10.0604,10.0604,10.0604,10.0604,10.0604,10.0604,10.0604,10.0604,10.0604,10.0604,10.0604,10.0604,10.0604,10.0604,10.0604,0.0,10.0604,10.0604,10.0615,10.0589,10.0589,10.06,10.0612,9.9859,9.9553,9.9312,0.0,0.0,0.0,0.0,0.0,0.0,0.0,0.0,0.0,0.0,6.9101,6.9219,0.0,0.0,0.0,0.0,0.0,0.0,0.0,0.0,0.0,7.6244,7.7766,7.8703,7.8859,8.0538,8.1436,8.1436,8.2293,8.3066,8.3715,8.3715,8.3686,8.3654,8.3582,8.3077,8.2297,8.2288,8.215,8.1894,8.1912,8.2104,8.2412,8.2554,8.2855,0.0,8.4324,8.5151,8.6026,8.7645,8.8088,8.8155,8.907,8.9842,9.0454,9.0607,9.0624,9.0614,9.0614,9.11,9.1586,9.1586,9.2236,9.2886,9.2886,9.3535,9.4212,9.4365,9.4949,9.5446,9.556,9.5598,9.5598,9.5598,9.5598,9.5598,9.5598,9.621,9.6668,9.6668,9.7394,9.788,9.788,9.8655,9.9228,9.9381,9.9992,10.0413,10.0413,10.0489,10.0604,10.0604,10.0604,10.0604,10.0604,10.0604,10.0604,10.0604,10.0604,10.0604,10.0604,10.0604,10.0604,10.0604,10.0604,0.0,10.0604,10.0604,10.07,10.0791,10.0791,10.082,10.0908,10.0793,10.0295,9.9632,0.0,0.0,0.0,0.0,0.0,0.0,0.0,6.8555,6.914,6.9961,7.0469,7.0586,7.0156,7.0859,7.1366,0.0,0.0,0.0,0.0,0.0,0.0,7.6478,7.7727,7.8625,7.9053,8.0341,8.12,8.1669,0.0,8.2431,8.2812,8.2788,8.2741,8.2663,8.2077,8.1765,8.1612,8.1159,8.117,8.1508,8.1547,8.1968,8.2607,8.2991,8.3896,0.0,8.4901,8.5381,8.6265,8.7901,8.8394,8.8586,9.011,9.0899,9.1319,9.1778,9.1892,9.1892,9.1892,9.2198,9.2465,9.2465,9.3115,9.3803,9.3803,9.4414,9.5025,9.5025,9.5331,9.5598,9.5598,9.5598,9.5598,9.5598,9.5598,9.5598,9.5598,9.6363,9.6898,9.6898,9.8006,9.877,9.877,9.9534,9.9992,9.9992,10.0413,10.0604,10.0604,10.0604,10.0604,10.0604,10.0604,10.0604,10.0604,10.0604,10.0604,10.0604,10.0604,10.0604,10.0604,10.0604,10.0604,10.0604,10.0711,0.0,10.0708,10.0814,10.0793,10.0886,10.0886,10.0919,10.1011,10.1011,10.0693,10.0386,0.0,0.0,0.0,0.0,0.0,0.0,0.0,6.9023,6.9805,7.0859,7.1758,7.2031,7.1328,7.1719,7.1992,0.0,0.0,0.0,0.0,0.0,0.0,0.0,7.7768,7.8546,7.9405,0.0,0.0,8.2014,8.2107,0.0,0.0,0.0,0.0,0.0,8.096,8.0849,8.1154,8.064,8.0802,0.0,0.0,8.2105,8.2875,0.0,0.0,0.0,0.0,8.5706,8.63,8.8156,8.8631,8.8806,9.1148,9.183,9.2011,9.288,9.3136,9.3115,9.3115,9.3229,9.3382,9.3382,9.4032,9.4681,9.4681,9.514,9.5598,9.5598,9.5598,9.5598,9.5598,9.5598,9.5598,9.5598,9.5598,9.5675,9.5866,9.663,9.7241,9.7394,9.8732,9.9649,9.9649,10.0183,10.0604,10.0604,10.0604,10.0604,10.0604,10.0604,10.0604,10.0604,10.0604,10.0604,10.0604,10.0604,10.0604,10.0604,10.0604,10.0604,10.0604,10.0589,10.06,10.0688,10.0814,0.0,0.0,10.1006,10.0983,10.1004,10.1004,10.1092,10.1113,10.1113,10.1113,10.1113,0.0,0.0,0.0,0.0,0.0,0.0,0.0,6.9414,7.0078,7.168,7.2656,7.3164,7.3086,7.2422,7.1992,0.0,0.0,0.0,0.0,0.0,0.0,0.0,0.0,0.0,0.0,0.0,0.0,8.102,8.1755,0.0,0.0,0.0,0.0,0.0,0.0,8.0886,8.02,8.0888,0.0,0.0,0.0,0.0,0.0,0.0,0.0,0.0,0.0,8.6701,8.6453,8.8874,8.9146,8.8917,9.1308,9.2015,9.2164,9.3034,9.319,9.3115,9.3115,9.3688,9.4288,9.4288,9.4911,9.5484,9.5484,9.556,9.5598,9.5598,9.5598,9.5598,9.5598,9.5598,9.5598,9.5598,9.5598,9.5866,9.6668,9.7459,9.8262,9.9075,9.9954,10.0489,10.0489,10.0604,10.0604,10.0604,10.0604,10.0604,10.0604,10.0604,10.0604,10.0604,10.0604,10.0604,10.0604,10.0604,10.0604,10.0604,10.0604,10.0604,10.0604,10.0681,10.0814,10.0814,10.0897,0.0,0.0,10.1,10.1113,10.1206,10.1206,10.1218,10.1298,10.1298,10.1298,10.1298,0.0,0.0,0.0,0.0,0.0,0.0,6.9219,6.9492,7.0117,7.1797,7.2773,7.3281,7.3281,7.3476,7.3554,7.3555,0.0,0.0,0.0,0.0,0.0,0.0,0.0,0.0,0.0,0.0,8.108,8.2414,8.2707,0.0,0.0,0.0,0.0,0.0,0.0,8.0631,8.0757,8.1053,0.0,0.0,0.0,0.0,0.0,0.0,0.0,0.0,0.0,0.0,8.7902,8.9359,8.961,8.9678,9.1727,9.2258,9.243,9.3751,9.407,9.4052,9.4588,9.4927,9.5102,9.5102,9.5369,9.5598,9.5598,9.5598,9.5598,9.5598,9.5598,9.5598,9.5598,9.5598,9.5598,9.5598,9.5598,9.5713,9.6057,9.728,9.8223,9.8579,9.9801,10.0604,10.0604,10.0604,10.0604,10.0604,10.0604,10.0604,10.0604,10.0604,10.0604,10.0604,10.0604,10.0604,10.0604,10.0604,10.0604,10.0604,10.0604,10.06,10.0719,10.0802,10.0793,10.0908,10.1102,0.0,0.0,10.1216,10.119,10.1307,10.1307,10.1288,10.1279,10.1279,10.1279,10.1279,0.0,0.0,0.0,0.0,0.0,6.7383,6.8906,6.9336,7.0,7.1445,7.2617,7.3398,7.363,7.4448,7.5071,7.5308,7.5662,0.0,0.0,0.0,0.0,0.0,0.0,0.0,0.0,0.0,8.192,8.3296,8.3482,8.3813,0.0,0.0,8.3102,8.2946,0.0,0.0,0.0,0.0,0.0,0.0,0.0,0.0,0.0,0.0,0.0,0.0,0.0,0.0,0.0,0.0,0.0,9.0163,9.1633,9.205,9.2275,9.3908,9.4441,9.4704,9.5317,9.557,9.5708,9.5708,9.5708,9.5708,9.5708,9.5708,9.5708,9.5708,9.5708,9.5697,9.5664,9.5653,9.5643,9.5609,9.5598,9.5675,9.5942,9.7203,9.8185,9.8464,9.9725,10.0604,10.0604,10.0604,10.0604,10.0604,10.0604,10.0604,10.0604,10.0604,10.0604,10.0604,10.0604,10.0604,10.0604,10.0604,10.0604,10.0604,10.06,10.0708,10.0787,10.0902,10.1017,10.1102,10.1216,0.0,0.0,10.1298,10.1279,10.1279,10.1279,10.1279,10.1279,10.1279,10.1279,10.1279,0.0,0.0,0.0,0.0,0.0,0.0,6.8086,6.8906,6.9726,7.0584,7.2224,7.3587,7.439,7.5287,7.6141,7.6986,7.6345,0.0,0.0,0.0,0.0,0.0,0.0,0.0,0.0,0.0,8.2353,8.3088,8.3827,8.4142,8.4005,8.387,8.3762,8.368,0.0,0.0,0.0,0.0,0.0,0.0,0.0,0.0,0.0,0.0,0.0,0.0,0.0,0.0,0.0,0.0,0.0,0.0,0.0,9.1201,9.153,9.312,9.4138,9.4711,9.4711,9.5287,9.59,9.59,9.59,9.59,9.59,9.59,9.59,9.59,9.59,9.587,9.5832,9.581,9.5729,9.5621,9.5598,9.5904,9.6783,9.7585,9.8414,9.9266,10.0107,10.0604,10.0604,10.0604,10.0604,10.0604,10.0604,10.0604,10.0604,10.0604,10.0604,10.0604,10.0604,10.0604,10.0604,10.0604,10.0604,10.0604,10.0692,10.0787,10.0798,10.1113,10.1216,0.0,0.0,0.0,0.0,10.1279,10.1279,10.1279,10.1279,10.1279,10.1279,10.1279,10.1279,10.1279,0.0,0.0,0.0,0.0,0.0,0.0,0.0,6.8864,6.9719,7.0572,7.2167,7.3565,7.4416,7.5264,7.6154,7.7006,7.6879,0.0,0.0,0.0,0.0,0.0,0.0,0.0,0.0,8.2338,8.3411,8.4748,8.4839,8.512,8.5562,8.4919,8.4597,8.448,8.3878,8.3601,0.0,0.0,0.0,0.0,0.0,0.0,8.6094,0.0,0.0,0.0,0.0,0.0,0.0,0.0,0.0,0.0,0.0,0.0,0.0,9.1819,9.2899,9.4081,9.4628,9.5308,9.591,9.591,9.591,9.589,9.5846,9.5825,9.5804,9.5691,9.568,9.5708,9.5664,9.5653,9.5834,9.6412,9.6477,9.6783,9.7612,9.8464,9.9075,9.9393,10.0107,10.0604,10.0604,10.0604,10.0604,10.0604,10.0604,10.0604,10.0604,10.0604,10.0604,10.0604,10.0604,10.0604,10.0604,10.0604,10.06,10.0692,10.0814,10.0913,10.1113,10.1185,10.1208,0.0,0.0,0.0,0.0,10.1279,10.1279,10.1279,10.1279,10.1279,10.1279,10.1279,10.1279,10.1279,0.0,0.0,0.0,0.0,0.0,0.0,0.0,6.8387,6.9238,7.0082,7.1361,7.2794,7.43,7.496,7.5928,7.7402,7.755,0.0,0.0,0.0,0.0,0.0,0.0,0.0,8.2236,8.3073,8.4245,8.5791,8.5987,8.6445,8.7171,8.6315,8.5873,8.5824,8.4939,8.4555,0.0,0.0,0.0,0.0,0.0,0.0,8.6094,0.0,0.0,0.0,0.0,0.0,0.0,0.0,0.0,0.0,0.0,0.0,0.0,0.0,9.2627,9.3773,9.4234,9.5185,9.6058,9.6058,9.5991,9.5951,9.5918,9.5867,9.5814,9.5713,9.5702,9.5719,9.5675,9.5664,9.5959,9.6756,9.6898,9.7165,9.7994,9.8846,9.9496,9.9801,10.0298,10.0604,10.0604,10.0604,10.0604,10.0604,10.0604,10.0604,10.0604,10.0604,10.0604,10.0604,10.0604,10.0604,10.0604,10.0688,10.0708,10.0787,10.0886,10.1004,10.1216,10.1218,10.1307,0.0,0.0,0.0,0.0,10.1279,10.1279,10.1279,10.1279,10.1279,10.1279,10.1279,10.1279,10.1279,0.0,0.0,0.0,0.0,0.0,0.0,0.0,6.7555,6.8404,6.927,7.0084,7.1554,7.4124,7.4455,7.5512,7.8099,0.0,0.0,0.0,0.0,0.0,0.0,0.0,0.0,8.2965,8.3787,8.4927,8.64,8.7133,8.79,8.8679,8.7825,8.7401,8.7363,8.6478,8.6094,0.0,0.0,0.0,0.0,0.0,0.0,0.0,0.0,0.0,0.0,0.0,0.0,0.0,0.0,0.0,0.0,0.0,0.0,0.0,0.0,0.0,0.0,0.0,9.5018,9.6288,9.6288,9.6213,9.6098,9.6088,9.6009,0.0,9.589,9.588,9.5887,9.5898,9.5876,9.6139,9.6958,9.7089,9.7356,9.8147,9.8961,9.9763,10.0489,10.0604,10.0604,10.0604,10.0604,10.0604,10.0604,10.0604,10.0604,10.0604,10.0604,10.0604,10.0615,10.0615,10.0615,10.0615,10.0692,10.0798,10.082,10.1113,10.1178,10.1188,10.1278,10.1279,0.0,0.0,0.0,0.0,10.1279,10.1279,10.1279,10.1279,10.1279,10.1279,10.1279,10.1279,10.1279,0.0,0.0,0.0,0.0,0.0,0.0,0.0,0.0,0.0,0.0,7.0054,7.1605,7.4186,7.4503,7.5512,0.0,0.0,0.0,0.0,0.0,0.0,0.0,0.0,0.0,8.3793,8.4559,8.5713,8.7302,8.7393,8.785,8.8679,8.7825,8.7401,8.7363,8.6478,8.6094,0.0,0.0,0.0,0.0,0.0,0.0,0.0,0.0,0.0,0.0,8.8641,8.9633,0.0,0.0,0.0,0.0,0.0,0.0,0.0,0.0,9.3056,9.3835,9.4527,0.0,9.6288,9.6288,9.6213,9.6078,0.0,9.5898,9.5793,9.5708,9.5686,9.5867,9.6522,9.6636,9.7122,9.859,9.8808,9.9075,9.9916,10.0183,10.0413,10.0604,10.0604,10.0604,10.0604,10.0604,10.0604,10.0604,10.0604,10.0604,10.0604,10.0604,10.06,10.0703,10.078,10.078,10.078,10.0814,10.0886,10.1095,10.1196,10.1218,10.1288,10.1308,10.1279,0.0,0.0,0.0,10.1279,10.1279,10.1279,10.1279,10.1279,10.1279,10.1279,10.1279,10.1279,10.1279,0.0,0.0,0.0,0.0,0.0,0.0,0.0,0.0,0.0,0.0,0.0,7.1634,7.4209,7.4482,0.0,0.0,0.0,0.0,0.0,0.0,0.0,0.0,8.2272,8.3268,8.3986,8.5182,8.6559,8.8135,8.8471,8.906,8.9825,8.8594,8.7987,8.7948,8.6671,8.6094,0.0,0.0,0.0,0.0,8.6094,0.0,0.0,0.0,0.0,0.0,8.8564,8.9517,0.0,9.1056,9.121,9.121,0.0,0.0,0.0,0.0,9.3364,9.398,9.5249,9.5942,9.6288,9.6288,9.6136,9.5981,9.592,9.5814,9.579,9.6144,9.621,9.6439,9.7318,9.7471,9.7891,9.919,9.9381,9.9687,10.0489,10.0604,10.0604,10.0604,10.0604,10.0604,10.0604,10.0604,10.0604,10.0604,10.0604,10.0604,10.0604,10.07,10.0719,10.0787,10.088,10.0913,10.0913,10.1006,10.1092,10.1216,10.118,10.1307,10.1279,10.1279,10.1279,0.0,0.0,0.0,10.1279,10.1279,10.1279,10.1279,10.1279,10.1279,10.1279,10.1279,10.1279,10.1279,0.0,0.0,0.0,0.0,0.0,0.0,0.0,0.0,0.0,0.0,0.0,0.0,0.0,0.0,0.0,0.0,0.0,0.0,0.0,0.0,0.0,8.202,8.2828,8.3547,8.4118,8.5812,8.7401,8.8836,8.966,9.0496,9.1189,8.9603,8.8756,8.8466,8.6858,8.6203,8.6302,0.0,0.0,0.0,8.6363,0.0,0.0,0.0,0.0,0.0,0.0,0.0,0.0,9.0902,9.121,9.121,9.121,0.0,0.0,0.0,0.0,0.0,9.5826,9.6288,9.6288,9.6288,9.6098,9.591,9.591,9.5849,9.6019,9.6745,9.7012,9.7318,9.8147,9.83,9.8579,9.9419,9.9572,9.9801,10.0489,10.0604,10.0604,10.0604,10.0604,10.0604,10.0604,10.0604,10.0604,10.0604,10.0604,10.0604,10.0589,10.0692,10.0809,10.088,10.0979,10.1004,10.1015,10.1098,10.1188,10.1198,10.1278,10.1279,10.1279,10.1279,10.1279,10.1279,0.0,0.0,10.1279,10.1279,10.1279,10.1279,10.1279,10.1279,10.1279,10.1394,10.151,10.151,0.0,0.0,0.0,0.0,0.0,0.0,0.0,0.0,0.0,0.0,0.0,0.0,0.0,0.0,0.0,0.0,0.0,0.0,0.0,0.0,0.0,8.3689,8.4495,8.4991,8.5081,8.6728,8.8038,8.8975,8.9716,9.0529,9.1245,9.0206,8.8974,8.7663,8.674,8.6686,8.7269,8.7269,0.0,0.0,8.7478,0.0,0.0,0.0,0.0,0.0,0.0,0.0,0.0,9.0902,9.121,9.121,9.121,0.0,0.0,0.0,0.0,0.0,9.5826,9.6288,9.6288,9.6288,9.6098,9.591,9.591,9.6308,9.6745,9.6859,9.7421,9.8185,9.9037,9.919,9.9458,10.0298,10.0413,10.0489,10.0604,10.0604,10.0604,10.0604,10.0604,10.0604,10.0604,10.0604,10.0604,10.0604,10.0604,10.0612,10.0791,10.0814,10.0886,10.1116,10.1185,10.1188,10.1317,10.1208,10.1218,10.1298,10.1317,10.1279,10.1279,10.1279,10.1279,10.1279,0.0,10.1279,10.1279,10.1279,10.1279,10.1279,10.1279,10.1279,10.1394,10.2097,10.2404,10.252,0.0,0.0,0.0,0.0,0.0,0.0,0.0,0.0,0.0,0.0,0.0,0.0,0.0,0.0,0.0,0.0,0.0,0.0,0.0,8.3584,8.4126,8.541,8.5797,8.5797,8.5294,8.7427,8.8938,8.9707,9.0945,9.1962,9.2732,9.138,8.9885,8.822,8.7912,8.7951,8.8259,8.8212,8.8441,0.0,0.0,0.0,0.0,0.0,0.0,0.0,0.0,0.0,0.0,0.0,9.121,9.121,9.121,0.0,0.0,0.0,0.0,0.0,9.5942,9.6288,9.6288,9.6288,9.6098,9.6025,9.6514,9.6757,9.7165,9.8044,9.8541,9.9075,9.9878,9.9992,10.0183,10.0489,10.0604,10.0604,10.0604,10.0604,10.0604,10.0604,10.0604,10.0604,10.0604,10.0604,10.0589,10.0696,10.0708,10.0802,10.0913,10.0989,10.1113,10.1216,10.119,10.1317,10.1279,10.1317,10.1317,10.1279,10.1279,10.1279,10.1279,10.1279,10.1279,10.1279,0.0,10.1279,10.1279,10.1279,10.1279,10.1279,10.1779,10.202,10.2097,10.2981,10.3289,10.3405,0.0,0.0,0.0,0.0,0.0,0.0,0.0,0.0,0.0,0.0,0.0,0.0,0.0,0.0,0.0,0.0,0.0,0.0,0.0,8.3897,8.4765,8.6223,8.6487,8.63,8.5604,8.7963,8.956,9.0315,9.1993,9.3223,9.3962,9.2319,9.0821,8.9509,8.9145,8.9061,8.9231,8.9169,8.923,8.9343,0.0,0.0,0.0,0.0,0.0,0.0,0.0,0.0,0.0,0.0,0.0,0.0,0.0,0.0,0.0,9.371,9.4489,9.5181,9.6057,9.6288,9.6288,9.6288,9.6098,9.614,9.7012,9.7178,9.7585,9.9075,9.9534,9.9878,10.0489,10.0604,10.0604,10.0604,10.0604,10.0604,10.0604,10.0604,10.0604,10.0604,10.0604,10.0604,10.0604,10.0589,10.0685,10.0787,10.0809,10.0886,10.1004,10.1088,10.1188,10.1208,10.1288,10.1279,10.1279,10.1279,10.1279,10.1279,10.1279,10.1279,10.1279,10.1279,10.1279,10.1279,10.1279,10.1279,10.1279,10.151,10.1587,10.1712,10.2597,10.302,10.3289,10.3905,10.4289,10.4482,0.0,0.0,0.0,0.0,0.0,0.0,0.0,0.0,0.0,0.0,0.0,0.0,0.0,0.0,0.0,0.0,0.0,0.0,0.0,8.3256,8.4489,8.5372,8.6184,8.6564,8.6526,8.8273,8.9588,9.0393,9.2023,9.3223,9.3962,9.2334,9.1515,9.1322,8.9856,8.9578,9.0201,9.0194,9.0566,9.1039,9.0298,0.0,0.0,0.0,0.0,0.0,0.0,0.0,0.0,0.0,0.0,0.0,0.0,0.0,9.2826,9.445,9.4951,9.5181,9.6057,9.6288,9.6288,9.6288,9.6098,9.614,9.7012,9.7637,9.8262,9.919,9.9992,10.0489,10.0604,10.0604,10.0604,10.0604,10.0604,10.0604,10.0604,10.0604,10.0604,10.0604,10.0604,10.0604,10.0604,10.0708,10.0814,10.0787,10.0897,10.1004,10.1196,10.1216,10.1218,10.1308,10.1317,10.1279,10.1279,10.1279,10.1279,10.1279,10.1279,10.1279,10.1279,10.1279,10.1279,10.1279,10.1279,10.1279,10.1394,10.2212,10.252,10.2597,10.3482,10.4299,10.4905,10.4992,10.5482,10.6203,0.0,0.0,0.0,0.0,0.0,0.0,0.0,0.0,0.0,0.0,0.0,7.7293,7.6357,0.0,0.0,0.0,0.0,0.0,8.149,8.2669,8.3902,8.5256,8.5604,8.6049,8.6636,8.8384,8.9933,9.1249,9.4002,9.525,9.495,9.3775,9.2949,9.2408,9.1276,9.0928,9.1163,9.112,9.1253,9.1462,9.1059,9.0595,0.0,0.0,0.0,0.0,0.0,0.0,0.0,0.0,9.1199,9.157,9.2409,9.299,9.3598,9.4699,9.5374,9.598,9.6826,9.7057,9.7154,9.7625,9.7623,9.7598,9.7884,9.8441,9.9152,9.9992,10.0413,10.0604,10.0604,10.0604,10.0604,10.0604,10.0604,10.0604,10.0604,10.0604,10.0604,10.0604,10.0711,10.0719,10.0719,10.0793,10.1006,10.1004,10.1085,10.1196,10.1307,10.1307,10.1288,10.1279,10.1279,10.1279,10.1279,10.1279,10.1279,10.1279,10.1279,10.1279,10.1279,10.1279,10.1279,10.1279,10.1904,10.2097,10.2212,10.302,10.3405,10.3482,10.4289,10.5213,10.5905,10.5905,10.6097,10.6395,0.0,0.0,0.0,0.0,0.0,0.0,0.0,0.0,0.0,0.0,0.0,0.0,0.0,7.7782,0.0,0.0,0.0,0.0,8.0725,8.2038,8.3444,8.4869,8.5198,8.5778,8.6674,8.8193,8.9794,9.1438,9.4549,9.5775,9.5155,9.4266,9.3534,9.2953,9.2102,9.1716,9.1709,9.1659,9.1622,9.1592,9.1523,9.1153,0.0,0.0,0.0,0.0,0.0,0.0,0.0,0.0,9.1222,9.1765,9.2821,9.3522,9.4146,9.5141,9.5826,9.648,9.7288,9.7519,9.7683,9.8422,9.8744,9.8842,9.8762,9.9107,9.961,10.0413,10.0604,10.0604,10.0604,10.0604,10.0604,10.0604,10.0604,10.0604,10.0604,10.0604,10.0615,10.07,10.0692,10.0798,10.088,10.0989,10.1095,10.1206,10.1208,10.1287,10.1317,10.1279,10.1279,10.1279,10.1279,10.1279,10.1279,10.1279,10.1279,10.1279,10.1279,10.1279,10.1279,10.1597,10.1712,10.1789,10.2597,10.2981,10.3097,10.3905,10.4405,10.4713,10.529,10.5905,10.6395,10.6395,10.6395,10.6395,0.0,0.0,0.0,0.0,0.0,0.0,0.0,0.0,7.7088,7.7002,7.7648,0.0,0.0,0.0,0.0,0.0,7.9296,0.0,7.9067,8.1394,8.3173,8.4063,8.4939,8.5789,8.668,8.7772,8.9085,9.0614,9.3104,9.431,9.4265,9.3414,9.2992,9.2953,9.2102,9.1716,9.1716,9.1716,9.1673,9.1607,9.1687,9.1634,9.1337,0.0,0.0,0.0,0.0,0.0,0.0,0.0,9.0507,9.2057,9.3615,9.408,9.4299,9.5842,9.6288,9.648,9.7288,9.7519,9.7683,9.8422,9.9156,9.9703,9.9534,9.9461,9.9649,10.0413,10.0604,10.0604,10.0604,10.0604,10.0604,10.0604,10.0604,10.0604,10.0604,10.0604,10.0688,10.0814,10.0787,10.0919,10.1,10.1116,10.1216,10.1216,10.1307,10.1279,10.1279,10.1279,10.1279,10.1279,10.1279,10.1279,10.1279,10.1279,10.1279,10.1279,10.1279,10.1279,10.1279,10.2212,10.2597,10.2712,10.3482,10.3905,10.3982,10.4789,10.5597,10.6395,10.6395,10.6395,10.6395,10.6395,10.6395,10.6395,0.0,0.0,0.0,0.0,0.0,0.0,0.0,0.0,7.7064,7.702,7.7656,0.0,0.0,0.0,0.0,0.0,0.0,8.0105,7.9879,8.116,8.2622,8.4126,8.4465,8.5335,8.6884,8.8519,9.0151,9.1796,9.369,9.4552,9.4473,9.3581,9.3142,9.3097,9.216,9.1753,9.1791,9.1737,9.173,9.1725,9.1746,9.1799,9.1682,0.0,0.0,0.0,0.0,0.0,0.0,0.0,0.0,0.0,9.3814,9.4199,9.4388,9.591,9.6343,9.6596,9.8019,9.8346,9.8614,9.9961,10.0393,10.0388,10.0302,10.0283,10.0183,9.9801,10.0183,10.0413,9.984,10.0183,10.0604,10.0604,10.0604,10.0604,10.0604,10.0723,10.0791,10.0787,10.1017,10.1095,10.1088,10.118,10.1317,10.1317,10.1308,10.1279,10.1279,10.1279,10.1279,10.1279,10.1279,10.1279,10.1279,10.1279,10.1279,10.1279,10.1894,10.2212,10.2212,10.252,10.2904,10.3597,10.4405,10.4713,10.4789,10.5713,10.6213,10.6395,10.6395,10.6395,10.6395,10.6395,10.6395,10.6395,0.0,0.0,0.0,0.0,0.0,0.0,7.6235,7.6757,7.7034,7.7008,7.7332,7.7688,0.0,0.0,0.0,7.9083,8.0082,8.0581,8.0257,8.1079,8.2404,8.415,8.4303,8.5386,8.7603,8.9064,9.0495,9.1871,9.3079,9.3691,9.3634,9.302,9.2759,9.2691,9.2127,9.185,9.1825,9.1431,9.1496,9.1831,9.1536,9.1667,9.1889,0.0,0.0,0.0,0.0,0.0,0.0,0.0,0.0,0.0,9.3958,9.4298,9.4427,9.5971,9.6361,9.6673,9.8327,9.8711,9.8997,10.0711,10.0908,10.0688,10.0314,10.0409,10.0489,9.9992,10.0298,10.0489,9.9954,10.0298,10.0604,10.0604,10.0604,10.0615,10.0711,10.0703,10.0782,10.0919,10.1095,10.1188,10.119,10.1288,10.1279,10.1279,10.1279,10.1279,10.1279,10.1279,10.1279,10.1279,10.1279,10.1279,10.1279,10.1279,10.151,10.1779,10.2289,10.2904,10.3597,10.3597,10.3905,10.4405,10.529,10.5597,10.5713,10.6213,10.6395,10.6395,10.6395,10.6395,10.6395,10.6395,10.6395,10.6395,0.0,0.0,7.2642,7.4325,0.0,7.6079,7.6937,7.7022,7.6992,7.7112,7.6936,7.7155,0.0,0.0,0.0,7.9093,8.0499,8.107,8.0355,8.112,8.2428,8.4241,8.4556,8.5935,8.8676,8.9516,9.039,9.1339,9.1941,9.2239,9.2234,9.2143,9.2074,9.2019,9.2033,9.1933,9.1757,9.0949,9.11,9.1822,9.1083,9.1335,9.1926,9.0404,0.0,0.0,0.0,0.0,0.0,0.0,0.0,0.0,9.3974,9.4282,9.441,9.5867,9.6272,9.6566,9.8327,9.8634,9.8901,10.0602,10.0819,10.0415,9.9573,9.9904,10.0398,10.0386,10.0386,10.0501,10.0489,10.0604,10.0604,10.0604,10.0615,10.07,10.0814,10.0809,10.0897,10.1196,10.1188,10.119,10.1308,10.1279,10.1279,10.1279,10.1279,10.1279,10.1279,10.1279,10.1279,10.1279,10.1279,10.1279,10.1279,10.1394,10.1779,10.2597,10.2789,10.3597,10.5107,10.5107,10.5097,10.529,10.6097,10.6395,10.6395,10.6395,10.6395,10.6395,10.6395,10.6395,10.6395,10.6395,10.6395,10.6395,0.0,0.0,7.4182,7.5257,0.0,0.0,7.6834,7.6885,7.7108,7.7835,7.7229,7.7347,7.8936,7.8535,0.0,7.9055,7.9997,8.0499,8.0317,8.1266,8.2633,8.4367,8.5882,8.7627,8.9665,8.987,9.0734,9.2297,9.2374,9.2405,9.2378,9.2279,9.2264,9.2219,9.2178,9.1758,9.1086,9.0853,9.0883,9.1135,9.0953,9.1073,9.1217,9.0257,8.9471,0.0,0.0,0.0,0.0,0.0,0.0,0.0,9.343,9.355,9.3626,9.5154,9.5486,9.5878,9.8153,9.825,9.8046,9.9746,9.9529,9.8887,9.8685,9.8751,9.8861,9.8812,9.9288,9.9713,9.9672,10.0183,10.0604,10.0604,10.0685,10.0802,10.0787,10.0989,10.1088,10.1206,10.12,10.1298,10.1279,10.1279,10.1279,10.1279,10.1279,10.1279,10.1279,10.1279,10.1279,10.1279,10.1279,10.1279,10.1279,10.202,10.2404,0.0,10.3905,10.48,10.5107,10.5107,10.5482,10.6087,10.628,10.6395,10.6395,10.6395,10.6395,10.6395,10.6395,10.6395,10.6395,10.6395,10.6395,10.6395,0.0,0.0,0.0,0.0,0.0,0.0,0.0,0.0,7.7053,7.7988,7.7274,7.7176,7.8547,7.8224,0.0,0.0,7.9282,7.9962,8.0407,8.1018,8.2316,8.4563,8.6382,8.7987,8.9367,8.9802,9.0663,9.1991,9.2374,9.2516,9.2494,9.2856,9.2781,9.2345,9.2763,9.2171,9.0922,9.0493,9.0333,9.0346,8.9969,9.0098,9.0492,8.9657,8.9085,8.8663,8.8276,0.0,0.0,0.0,0.0,0.0,0.0,0.0,9.3409,9.4526,9.4999,9.5619,9.7688,9.7866,9.7691,9.8907,9.8582,9.795,9.7938,9.7928,9.8012,9.8281,9.8944,9.9594,9.9939,10.0298,10.0615,10.0685,10.078,10.0793,10.0979,10.1106,10.1198,10.12,10.1288,10.1279,10.1279,10.1279,10.1279,10.1279,10.1279,10.1279,10.1279,10.1279,10.1279,10.1279,10.1279,10.151,10.1894,10.2404,10.2981,10.3789,10.4723,10.529,10.5713,10.5713,10.602,10.6395,10.6395,10.6395,10.6395,10.6395,10.6395,10.6395,10.6395,10.6395,10.6395,10.6395,10.6397,10.6476,0.0,0.0,0.0,0.0,0.0,0.0,0.0,0.0,0.0,7.7859,7.7167,7.6932,7.7807,7.7651,7.7509,0.0,0.0,0.0,8.0119,8.0649,8.2128,8.4685,8.635,8.7689,8.8669,8.9414,9.0195,9.1094,9.1953,9.246,9.2608,9.3574,9.3634,9.2899,9.3619,9.293,9.1181,9.0251,8.985,8.977,8.8935,8.9075,8.9715,8.898,8.8593,8.8398,8.7734,8.8007,8.8825,8.9528,0.0,0.0,0.0,0.0,9.3056,9.3696,9.4438,9.5392,9.7042,9.7488,9.7577,9.8004,9.7692,9.726,9.7212,9.7288,9.7594,9.8288,9.8976,9.9747,10.0512,10.0615,10.0711,10.0814,10.0782,10.0919,10.1196,10.1188,10.119,10.1308,10.1279,10.1279,10.1279,10.1279,10.1279,10.1279,10.1279,10.1279,10.1279,10.1279,10.1279,10.1279,10.1394,10.1904,10.2597,10.2904,10.3712,10.5107,10.529,10.5713,10.6395,10.6395,10.6395,10.6395,10.6395,10.6395,10.6395,10.6597,10.6587,10.6587,10.679,10.68,10.6887,10.6887,10.6881,10.7095,0.0,0.0,0.0,0.0,0.0,0.0,0.0,0.0,0.0,0.0,7.7085,7.6886,7.7802,7.6565,7.5983,7.6772,7.7019,7.747,7.8366,0.0,0.0,8.4798,8.5819,8.7109,8.8672,8.8828,8.9297,9.0156,9.1054,9.1875,9.2656,9.4254,9.4912,9.4745,9.485,9.3937,9.2202,9.0654,8.9959,8.9888,8.9011,8.8744,8.8863,8.8749,8.8281,8.7656,8.7539,8.8008,8.8711,8.8828,8.9451,0.0,0.0,0.0,9.1525,9.2127,9.3324,9.4761,9.6329,9.7183,9.7477,9.6769,9.6529,9.6471,9.6462,9.6924,9.7594,9.8326,9.9015,9.9747,10.0512,10.0696,10.0814,10.0787,10.1,10.1185,10.1216,10.1287,10.1308,10.1279,10.1279,10.1279,10.1279,10.1279,10.1279,10.1279,10.1279,10.1279,10.1279,10.1279,10.1279,10.1279,10.202,10.252,10.2597,10.3982,10.4915,10.5107,10.5905,10.629,10.6395,10.6395,10.6395,10.6395,10.6395,10.6395,10.651,10.7213,10.7521,10.7598,10.829,10.8583,10.8712,10.8712,10.881,10.8897,0.0,0.0,0.0,0.0,0.0,0.0,0.0,0.0,0.0,0.0,0.0,7.6917,7.7807,7.6409,7.5569,7.6008,7.6128,7.6796,7.8162,8.0752,8.2611,8.3398,8.5195,8.6523,8.7265,8.8203,8.8906,8.9258,9.0625,9.2265,9.4101,9.5781,9.6091,9.5188,9.6122,9.5064,9.2521,9.1783,9.0889,8.9955,8.9568,8.9413,8.9413,8.9414,8.9219,8.8828,8.8359,8.8398,8.8711,8.8711,8.8944,8.9253,8.9242,0.0,0.0,0.0,9.2194,9.3448,9.5381,9.6165,9.6398,9.639,9.6367,9.637,9.637,9.6904,9.7614,9.8408,9.9121,9.9846,10.0615,10.0791,10.0793,10.1011,10.1116,10.1198,10.1287,10.1298,10.1279,10.1279,10.1279,10.1279,10.1279,10.1279,10.1279,10.1279,10.1279,10.1279,10.1279,10.1279,10.151,10.202,10.2404,10.3097,10.3982,10.4713,10.529,10.579,10.6203,10.6395,10.6395,10.6395,10.6395,10.6395,10.6395,10.6713,10.7213,10.7521,10.7982,10.8406,10.879,10.9017,10.9118,10.9118,10.9215,10.9385,0.0,0.0,0.0,0.0,0.0,0.0,0.0,0.0,0.0,0.0,0.0,7.6831,7.7516,0.0,0.0,0.0,7.545,7.6346,7.8584,8.0543,8.1952,8.2617,8.4726,8.5859,8.5859,8.7304,8.8047,8.8047,8.9804,9.1992,9.4609,9.6719,9.7148,9.6209,9.7459,9.6482,9.3826,9.2967,9.1835,9.0625,9.0429,9.0312,9.0351,9.0586,9.0508,9.0234,8.9609,8.9062,8.8711,8.8711,8.8554,8.8396,8.8392,8.8966,0.0,0.0,0.0,9.2477,9.4344,9.5001,9.5331,9.6065,9.62,9.6193,9.6399,9.6931,9.7587,9.8172,9.904,9.9867,10.0503,10.0809,10.1017,10.1185,10.1198,10.12,10.1308,10.1279,10.1279,10.1279,10.1279,10.1279,10.1279,10.1279,10.1279,10.1279,10.1279,10.1279,10.1279,10.1279,10.1712,10.2597,10.2789,10.3597,10.5107,10.529,10.579,10.6395,10.6395,10.6395,10.6395,10.6395,10.651,10.6703,10.6703,10.7098,10.7713,10.8213,10.8713,10.929,10.9483,10.9594,10.9685,10.9685,10.989,11.0107,0.0,0.0,0.0,0.0,0.0,0.0,0.0,0.0,0.0,0.0,0.0,7.6652,7.6747,7.5283,7.4637,7.5622,7.5018,7.6012,7.941,7.9765,0.0,0.0,8.4453,0.0,8.4961,8.5859,8.6328,8.6328,8.8008,9.0156,9.2812,9.6133,9.8086,9.8828,9.8906,9.8359,9.7226,9.3984,9.2539,9.2383,9.1562,9.1211,9.1328,9.2148,9.1953,9.1211,9.1172,9.0117,8.8711,8.8711,8.8203,8.7578,8.7578,8.8123,8.8742,0.0,0.0,0.0,9.3091,9.3849,9.4634,9.5374,9.5516,9.5655,9.6346,9.6992,9.7481,9.7452,9.8657,9.9766,9.9908,10.062,10.1206,10.1216,10.1297,10.1317,10.1279,10.1279,10.1279,10.1279,10.1279,10.1279,10.1279,10.1279,10.1279,10.1279,10.1279,10.1279,10.1279,10.1279,10.1712,10.2597,10.3405,10.4212,10.5107,10.5905,10.6405,10.6395,10.6395,10.6395,10.6395,10.6395,10.6905,10.7598,10.7598,10.7713,10.779,10.9406,11.0109,11.0214,11.1021,11.1393,11.1496,11.1496,11.1605,11.1703,0.0,0.0,0.0,0.0,0.0,0.0,0.0,0.0,0.0,0.0,0.0,0.0,0.0,7.6303,7.5875,7.5753,7.6005,7.6932,7.8741,7.9915,0.0,0.0,8.3822,8.4916,8.4916,8.6247,8.6951,8.6951,8.8672,9.0859,9.3476,9.582,9.7969,9.9844,10.039,9.957,9.7617,9.6406,9.5234,9.4258,9.3945,9.414,9.4687,9.4961,9.4922,9.457,9.3984,9.3047,9.1875,9.0742,9.0195,8.9726,8.8633,8.8476,8.8709,8.8657,8.9659,9.1005,9.2281,9.2787,9.3402,9.5249,9.559,9.5731,9.6413,9.6673,9.7083,9.8096,9.874,9.946,10.0605,10.0988,10.1198,10.1297,10.1298,10.1279,10.1279,10.1279,10.1279,10.1279,10.1279,10.1279,10.1279,10.1279,10.1279,10.1279,10.1279,10.1279,10.1279,10.1779,10.252,10.3405,10.4212,10.5097,10.5905,10.6203,10.6395,10.6395,10.6395,10.6395,10.6395,10.7021,10.7405,10.779,10.879,10.929,10.9406,10.9993,11.0483,11.1098,11.1406,11.1508,11.1612,11.1612,11.1721,11.1809,0.0,0.0,0.0,8.3367,0.0,8.1496,8.0124,7.9249,7.8434,7.7589,0.0,0.0,0.0,0.0,7.7079,7.665,7.7131,7.7974,7.915,8.0596,8.1499,8.1818,8.4044,8.5179,8.4909,8.6283,8.6988,8.6988,8.871,9.0742,9.3086,9.539,9.7539,9.9492,10.0586,10.0,9.8125,9.7812,9.6914,9.5664,9.5937,9.6406,9.6953,9.7539,9.7578,9.7265,9.6679,9.5742,9.4531,9.3085,9.2225,9.1443,8.9687,8.875,8.8281,8.8275,8.8839,8.9739,9.0784,9.1447,9.2362,9.4523,9.519,9.5552,9.6479,9.656,9.6763,9.7795,9.8432,9.9135,10.0289,10.0884,10.121,10.1308,10.1279,10.1279,10.1279,10.1279,10.1279,10.1279,10.1279,10.1279,10.1279,10.1279,10.1279,10.1279,10.1279,0.0,10.1712,10.2289,10.3097,10.4299,10.5097,10.579,10.6395,10.6395,10.6395,10.6395,10.6395,10.6597,10.6905,10.7405,10.7982,10.8598,10.9713,11.0224,11.0214,11.0483,11.0983,11.1511,11.1511,11.1487,11.1589,11.1589,11.1602,11.1701,8.5565,8.541,8.514,8.4327,8.3483,8.2612,8.1776,8.0936,8.0107,7.9271,0.0,0.0,0.0,0.0,0.0,7.8306,7.834,7.9108,8.0852,8.1711,8.2589,8.3521,8.5201,8.5793,8.5023,8.5851,8.6323,8.6324,8.7968,8.9648,9.1406,9.4844,9.6836,9.7695,9.9453,9.9726,9.8867,9.8086,9.7304,9.664,9.7422,9.7773,9.8047,9.9726,9.9883,9.914,9.9101,9.8007,9.6441,9.5582,9.4171,9.2447,9.0618,8.8905,8.7539,8.7419,8.8,8.8654,0.0,0.0,0.0,9.3188,9.4163,9.51,9.6552,9.6764,9.6582,9.6437,9.767,9.8788,9.8827,10.0212,10.1289,10.1279,10.1279,10.1279,10.1279,10.1279,10.1279,10.1279,10.1279,10.1279,10.1279,10.1279,10.1279,10.1279,10.1279,10.1712,10.2597,10.2597,10.3405,10.5107,10.602,10.6395,10.6395,10.6395,10.6395,10.6395,10.6395,10.6905,10.7713,10.7713,10.8598,11.0224,11.0214,11.0214,11.0291,11.1214,11.1511,11.1511,11.1511,11.1511,11.1511,11.1511,11.1511,11.1511,8.7925,8.8118,8.7654,8.6184,8.572,8.4888,8.286,8.2324,8.1883,0.0,0.0,0.0,8.1082,8.0848,8.0759,8.0808,8.1392,8.1976,8.2526,8.3345,8.4263,8.5201,8.6295,8.7089,8.7507,8.8349,8.8845,8.887,9.0024,9.1167,9.2264,9.3867,9.5078,9.5976,9.7656,9.7969,9.7265,9.8242,9.8515,9.832,9.8554,9.9765,10.1484,10.1992,10.2383,10.2695,10.1992,10.1093,9.9917,9.8433,9.7218,9.5649,9.2063,8.9764,8.8242,8.7656,8.7615,8.7883,8.8535,0.0,0.0,0.0,0.0,0.0,9.6683,9.6837,9.6823,9.7303,9.7638,9.825,9.9529,10.0106,10.0596,10.1202,10.1279,10.1279,10.1279,10.1279,10.1279,10.1279,10.1279,10.1279,10.1279,10.1279,10.1279,0.0,10.1279,10.1712,10.2597,10.3712,10.4905,10.602,10.629,10.6395,10.6395,10.6395,10.6395,10.6395,10.6395,10.6905,10.7713,10.829,10.9213,11.0214,11.0906,11.1098,11.1214,11.1395,11.1511,11.1511,11.1511,11.1511,11.1511,11.1511,11.1511,11.1511,8.9015,8.9208,8.8899,8.7847,8.7693,8.7087,8.5262,8.4998,8.47,0.0,0.0,0.0,8.3857,8.3861,8.3757,8.3369,8.382,8.3989,8.3714,8.4535,8.5428,8.636,8.7259,8.8095,8.8985,8.9526,8.9837,8.9877,9.077,9.1497,9.2059,9.3274,9.4136,9.4724,9.6404,9.6912,9.6562,9.789,9.8671,9.9062,9.9804,10.1211,10.3008,10.371,10.4296,10.4608,10.4099,10.3585,10.2908,10.1106,9.879,9.6005,9.2779,9.0609,8.9097,8.8241,8.7967,8.8042,8.8547,8.9316,9.0542,9.3116,0.0,0.0,9.6838,9.6965,9.6912,9.7295,9.7774,9.8383,9.9393,10.0087,10.0789,10.1202,10.1279,10.1279,10.1279,10.1279,10.1279,10.1279,10.1279,10.1279,10.1279,10.1279,10.1279,10.1279,10.1587,10.2404,10.3597,10.4905,10.5905,10.6395,10.6395,10.6395,10.6395,10.6395,10.6387,10.6389,10.6822,10.739,10.8314,10.9083,10.9909,11.0791,11.1291,11.1511,11.1511,11.1511,11.1511,11.1511,11.1511,11.1511,11.1511,11.1511,11.1511,11.1511,0.0,8.9479,8.944,8.9363,8.9402,8.9163,8.8305,8.8266,8.8034,0.0,8.7183,8.721,8.7268,8.7324,8.6973,8.6115,8.6037,8.574,8.4961,8.567,8.6515,8.746,8.8242,8.908,8.9932,9.0007,9.0047,9.0086,9.0859,9.1247,9.1365,9.3008,9.3796,9.3924,9.5643,9.6392,9.6439,9.7337,9.8239,9.9296,10.0898,10.2304,10.3515,10.5112,10.5696,10.5812,10.5685,10.5584,10.5196,10.3295,9.9442,9.5093,9.3364,9.1648,9.0085,8.9247,8.8901,8.8824,8.8824,8.9484,9.0724,9.3195,9.4427,0.0,9.6996,9.7115,9.6935,9.6986,9.7942,9.8857,9.9023,10.0211,10.1183,10.1289,10.1279,10.1279,10.1279,10.1279,10.1279,10.1279,10.1279,10.1279,10.1279,10.1279,10.1279,10.1279,10.2212,10.3405,10.4982,10.5905,10.6395,10.6395,10.6395,10.6395,10.6395,10.6415,10.6504,10.669,10.7393,10.8308,10.929,10.9984,11.0693,11.1511,11.1511,11.1511,11.1511,11.1511,11.1511,11.1511,11.1511,11.1511,11.1511,11.1511,11.1511,11.1511,9.1058,9.1213,9.0981,9.0284,9.0749,9.0903,9.0052,9.0516,9.0903,9.0749,9.071,9.071,9.0724,9.0737,9.0403,8.9513,8.9435,8.912,8.8305,8.8428,8.8935,8.9881,9.0075,9.0608,9.1516,9.1571,9.1603,9.1727,9.1887,9.2026,9.2092,9.3166,9.3644,9.3729,9.5504,9.6305,9.6364,9.7313,9.8569,10.0095,10.1119,10.3303,10.6105,10.6988,10.7801,10.8385,10.7582,10.689,10.5918,10.3397,10.0618,9.7672,9.5999,9.3858,9.1761,9.0963,9.0246,8.9754,8.9754,9.0383,9.1476,9.3328,9.4434,0.0,9.719,9.7324,9.7313,9.7975,9.812,9.8562,9.981,10.0206,10.0605,10.1183,10.1279,10.1279,10.1279,10.1279,10.1279,10.1279,10.1279,10.1279,10.1279,10.1279,10.1279,10.1279,10.2789,10.4097,10.4982,10.5905,10.6395,10.6395,10.6395,10.6395,10.6395,10.6496,10.6815,10.7489,10.7808,10.8685,11.0099,11.0215,11.0693,11.1511,11.1511,11.1511,11.1511,11.1511,11.1511,11.1511,11.1511,11.1511,11.1511,11.1511,11.1511,11.1588,9.2257,9.1986,9.1561,9.1135,9.1754,9.2218,9.1754,9.2412,9.2953,9.2953,9.334,9.3766,9.4191,9.423,9.3727,9.2412,9.2296,9.1789,9.0579,9.0501,9.0921,9.1843,9.1888,9.2288,9.3178,9.3216,9.3042,9.269,9.2715,9.251,9.2215,9.3091,9.35,9.3596,9.5388,9.6212,9.6295,9.7687,9.8984,10.0315,10.1593,10.3701,10.6101,10.7312,10.831,10.9006,10.8019,10.6817,10.5411,10.372,10.1419,9.8995,9.7792,9.6249,9.4667,9.3439,9.2819,9.2418,9.2003,9.2208,0.0,9.4657,0.0,0.0,0.0,9.8092,9.8189,9.8946,9.9223,9.9545,10.0221,10.0615,10.1095,10.1799,10.1597,10.152,10.1904,10.1894,10.1894,10.1894,10.2289,10.2597,10.2597,10.2597,10.2789,10.3212,10.3982,10.4905,10.5713,10.6213,10.6395,10.6395,10.6395,10.6387,10.6409,10.6892,10.7394,10.7999,10.8894,10.9696,11.0497,11.0902,11.1208,11.148,11.1504,11.1511,11.1511,11.1511,11.1511,11.1511,11.1511,11.1511,11.1511,11.2022,11.2088,11.2203,9.3263,9.2528,9.1986,9.2141,9.276,9.3302,9.3456,9.4307,9.5088,9.5398,9.6055,9.6822,9.7673,9.7789,9.7131,9.5552,9.5282,9.4568,9.3114,9.285,9.3103,9.3853,9.3898,9.4131,9.4602,9.4602,9.4208,9.341,9.341,9.3048,9.2335,9.3345,9.376,9.3688,9.5655,9.6463,9.6419,9.8257,9.9443,10.0187,10.2095,10.3895,10.5708,10.7309,10.8407,10.9096,10.8113,10.6699,10.5087,10.4284,10.2303,10.0101,9.9511,9.8525,9.7381,9.6083,9.5474,9.5124,9.462,0.0,0.0,0.0,0.0,9.7088,0.0,0.0,0.0,9.9634,10.0203,10.0493,10.0387,10.0994,10.169,10.2299,10.1789,10.1607,10.228,10.2511,10.2616,10.2597,10.3405,10.3905,10.3905,10.3905,10.4212,10.4982,10.5107,10.5482,10.6405,10.6395,10.6405,10.6397,10.6397,10.6486,10.6787,10.7509,10.8105,10.8607,11.0016,11.0789,11.0916,11.149,11.1693,11.1602,11.1508,11.1494,11.1511,11.1511,11.1588,11.1703,11.1703,11.1703,11.178,11.2588,11.2983,11.3099,9.4237,9.3418,9.307,9.3804,9.4005,9.4307,9.5081,9.659,9.8176,9.9692,9.9963,10.0388,10.1193,10.1309,10.0883,9.9963,9.9181,9.833,9.7448,9.6682,9.6295,9.638,9.638,9.6077,9.5381,9.5381,9.4991,9.4175,9.4175,9.3782,9.3114,9.4711,9.5021,9.4419,9.7065,9.7808,9.7207,9.9051,9.9907,10.0211,10.2582,10.46,10.6386,10.7983,10.9102,10.9712,10.8783,10.7804,10.6804,10.598,10.3982,10.1899,10.1894,10.0285,9.8442,9.8228,0.0,0.0,0.0,0.0,0.0,0.0,9.7973,0.0,0.0,0.0,9.8062,9.9648,0.0,9.9888,10.0403,0.0,0.0,10.1604,10.1611,10.16,10.1586,10.2193,10.2703,10.2607,10.3405,10.3905,10.3905,10.3905,10.4212,10.4982,10.5107,10.5482,10.6405,10.6395,10.6407,10.6507,10.6517,10.6902,10.7817,10.7986,10.8898,11.0384,11.0696,11.1112,11.1805,11.1796,11.1799,11.1612,11.1591,11.1606,11.1511,11.1511,11.1895,11.2599,11.2599,11.2599,11.2714,11.3483,11.3907,11.3984,9.5236,9.4269,9.3804,9.416,9.4624,9.5243,9.6125,9.8137,9.9994,10.1201,10.2199,10.3282,10.4713,10.5293,10.5293,10.4411,10.4017,10.3011,10.1193,10.069,10.0303,9.9762,9.9762,9.9336,9.8493,9.8454,9.7579,9.5751,9.5751,9.4836,9.3121,9.4786,9.5135,9.4406,9.7109,9.8117,9.7945,10.0285,10.1296,10.1518,10.4492,10.6117,10.6815,10.761,10.8313,10.9085,10.9715,10.8989,10.7703,0.0,10.5616,0.0,0.0,0.0,0.0,10.1595,0.0,0.0,0.0,0.0,0.0,0.0,0.0,0.0,10.0391,0.0,9.9354,0.0,0.0,0.0,0.0,0.0,0.0,0.0,10.1906,10.1799,10.2187,10.2518,10.2713,10.2607,10.3789,10.4789,10.529,10.5405,10.5482,10.579,10.5905,10.602,10.6395,10.6389,10.6487,10.6488,10.6584,10.7093,10.8004,10.8589,10.9484,11.0803,11.1302,11.1689,11.2002,11.1909,11.1913,11.179,11.1693,11.1721,11.1709,11.221,11.2595,11.2991,11.3993,11.3987,11.3599,11.4407,11.4791,11.4907,9.6783,9.5468,9.4701,9.5204,9.5584,9.6396,9.7943,9.9955,10.1812,10.3088,10.479,10.6492,10.8194,10.92,10.9393,10.8822,10.831,10.7189,10.51,10.4481,10.3901,10.3011,10.2895,10.2392,10.1309,10.1084,9.9916,9.7827,9.7363,9.6087,9.4075,9.5274,9.539,9.4663,9.7373,9.8553,9.8685,10.1388,10.2507,10.2804,10.5909,10.7385,10.7788,10.8121,10.8493,10.9213,11.0413,11.0109,10.8915,10.809,10.7089,0.0,10.569,0.0,10.4687,0.0,0.0,0.0,10.2892,0.0,0.0,0.0,0.0,0.0,0.0,0.0,0.0,0.0,0.0,0.0,0.0,0.0,10.1884,10.2486,0.0,10.1886,10.2516,10.2484,10.2518,10.2617,10.3886,10.5097,0.0,10.602,10.6087,10.6395,10.6395,10.6415,10.6407,10.6487,10.6517,10.6613,10.6919,10.7502,10.8488,10.9299,11.0214,11.1203,11.1783,11.2093,11.2093,11.1993,11.1909,11.1882,11.1808,11.1799,11.1886,11.2697,11.3082,11.3507,11.5011,11.5306,11.4812,11.5505,11.5698,11.5813,9.9174,9.717,9.5971,9.7673,9.7286,9.7866,10.1193,10.2508,10.4017,10.65,10.831,11.0012,11.1706,11.2681,11.3184,11.3193,11.1714,11.0283,10.9393,10.7807,10.6492,10.5594,10.5594,10.4782,10.3204,10.2315,10.1394,10.0504,9.8833,9.7595,9.6667,9.6744,9.628,9.5591,9.8264,9.9415,9.9539,10.2212,10.3403,10.3583,10.6107,10.8005,10.9509,11.0408,11.0709,11.0709,11.0786,0.0,0.0,10.9801,10.84,0.0,0.0,0.0,0.0,0.0,0.0,0.0,0.0,0.0,0.0,10.34,0.0,0.0,0.0,0.0,9.9868,0.0,0.0,0.0,0.0,10.1301,10.1896,10.1807,10.1787,0.0,0.0,10.1713,10.1993,10.2615,10.3387,10.4299,10.5107,10.5097,10.5482,0.0,10.6395,10.6407,10.6517,10.6488,10.6583,10.6804,10.7594,10.8488,10.9385,11.0313,11.1203,11.2093,11.2093,11.2093,11.2093,11.2093,11.2002,11.1882,11.1882,11.1904,11.1886,11.2697,11.3507,11.4317,11.5204,11.6092,11.6699,11.6699,11.6815,11.6815,10.0303,9.8988,9.8207,9.8787,9.864,9.922,10.1502,10.4597,10.6879,10.7691,11.0786,11.33,11.4499,11.5815,11.6713,11.6713,11.5699,11.4422,11.2991,11.1792,11.0515,10.9114,10.9123,10.8001,10.5796,10.5409,10.3978,10.151,10.0883,9.9607,9.7673,9.8214,9.7711,9.6474,9.9057,10.0194,10.0387,10.3584,10.5295,10.5992,10.8514,11.0192,11.1203,11.0894,11.0786,11.0902,11.1521,11.1706,0.0,11.0692,11.0104,10.95,10.9112,10.8515,10.7889,10.7889,10.689,0.0,0.0,0.0,10.4291,10.4911,0.0,0.0,0.0,0.0,0.0,0.0,0.0,0.0,0.0,10.2895,10.2693,10.27,10.2183,10.1881,0.0,10.1801,10.1603,10.1203,10.2392,10.381,10.5091,10.5197,0.0,10.629,10.7015,10.7113,10.6488,10.7199,10.7609,10.771,10.8002,10.8904,11.0322,11.0709,11.1203,11.2093,11.2093,11.2093,11.2093,11.2093,11.2123,11.201,11.201,11.2302,11.2903,11.3705,11.4594,11.5406,11.6295,11.6797,11.701,11.6913,11.6786,11.6786,10.2082,10.1502,10.0914,10.0303,10.0682,10.1696,10.3398,10.6802,10.9509,11.0399,11.3997,11.6898,11.802,11.9412,12.0186,12.0186,11.9219,11.7904,11.6511,11.5312,11.3919,11.2217,11.2217,11.1018,10.8388,10.7816,10.6183,10.3707,10.2779,10.1386,9.9452,9.9645,9.8872,9.7363,9.9614,10.0814,10.1317,10.4403,10.6415,10.77,10.9896,11.128,11.2015,11.1521,11.1289,11.128,0.0,11.2093,11.1985,11.1511,11.1102,11.08,11.0314,10.9903,10.9592,10.9592,10.8816,10.8001,10.8581,10.75,0.0,10.6603,10.5294,0.0,10.4209,0.0,0.0,0.0,0.0,0.0,0.0,0.0,10.3204,10.3204,10.2508,10.1889,0.0,10.161,10.1089,10.0491,10.159,10.2986,10.43,10.4686,10.5207,10.5977,10.6892,10.722,0.0,0.0,10.8122,10.8187,10.8788,10.9703,11.0786,11.1087,11.1512,11.2093,11.2093,11.2093,11.2093,11.2093,11.2093,11.2093,11.2402,11.2797,11.3378,11.4616,11.5389,11.6008,11.6898,11.7207,11.7189,11.7291,11.76,11.7783,10.4519,10.4597,10.4094,10.2585,10.3591,10.5216,10.6887,10.9316,11.1908,11.4383,11.771,12.0495,12.2197,12.3087,12.358,12.358,12.212,12.0805,11.9915,11.829,11.6588,11.4886,11.4809,11.361,11.1018,10.9393,10.8086,10.7119,10.4597,10.2895,10.1889,10.1084,9.98,9.8214,9.9916,10.1084,10.2082,10.4589,10.6802,10.8581,11.0206,11.1396,11.2093,11.2093,11.2209,11.2209,11.2209,11.2209,11.2209,11.2209,11.159,11.0902,11.0902,11.0322,10.9587,10.9587,10.9587,10.9587,10.9587,10.9509,10.9316,10.8581,0.0,0.0,0.0,0.0,10.4519,0.0,0.0,0.0,0.0,0.0,0.0,10.3282,10.2508,10.1889,10.1812,10.1084,10.062,10.0496,10.1087,10.1787,10.279,10.36,10.4488,10.5289,10.6301,10.6801,10.6812,0.0,10.8187,10.8388,10.9896,11.0786,11.0902,11.1706,11.2093,11.2093,11.2093,11.2093,11.2093,11.2093,11.2209,11.2209,11.3107,11.3378,11.361,11.5196,11.5892,11.6008,11.6898,11.7285,11.7401,11.8097,11.8909,11.9596,10.5478,10.6918,10.8117,10.7614,10.7382,10.7691,10.8697,11.1598,11.4306,11.6318,11.9489,12.2313,12.4015,12.4286,12.4712,12.5408,12.3899,12.2816,12.2507,12.0998,11.9489,11.8406,11.7796,11.6201,11.3687,11.2604,11.0709,10.8001,10.6694,10.4906,10.2895,10.2585,10.1309,9.9058,10.0806,10.1696,10.2082,10.4589,10.7412,11.0283,11.128,11.1899,11.2209,0.0,11.2991,11.3107,11.2991,11.2991,11.3107,11.3687,11.3416,11.2681,11.2681,11.2101,11.1396,11.1396,11.1018,11.0515,11.0515,11.0012,10.9509,10.92,10.8581,10.7885,0.0,0.0,0.0,0.0,0.0,0.0,0.0,0.0,0.0,10.421,10.2895,10.1696,10.0999,10.0698,10.0388,9.9723,9.9792,10.0394,10.1911,10.3379,10.4597,10.5289,10.6905,10.749,10.6812,0.0,0.0,10.92,11.0206,11.1087,11.1783,11.2015,11.2093,11.2093,11.2093,11.2093,11.2093,11.2797,11.2991,11.2991,11.3881,11.4616,11.5312,11.5699,11.6318,11.6898,11.7082,11.802,11.8987,11.8609,11.8493,11.8793,10.8117,10.9703,11.1289,11.1714,11.1985,11.2101,11.1792,11.4616,11.7517,11.9219,12.2391,12.5214,12.68,12.6994,12.7381,12.8309,12.6414,12.5214,12.5214,12.359,12.2313,12.1385,12.0611,11.9103,11.6898,11.5312,0.0,11.0515,10.8891,10.6802,10.4287,10.3901,10.2113,9.9367,10.1115,10.1696,10.1587,10.5293,10.8388,11.0902,11.1706,11.2286,0.0,11.3184,11.3803,11.4499,11.4886,11.4499,11.3881,11.4383,11.4306,11.3803,11.3494,11.2991,11.2604,11.2209,11.1783,11.1396,11.1396,11.1018,11.0593,11.0593,11.0012,10.9393,10.9393,10.8697,10.8078,0.0,0.0,0.0,0.0,0.0,0.0,10.4094,10.3088,10.2199,10.1309,10.0806,10.0303,9.9406,9.929,9.9661,10.0611,10.2196,10.3687,10.4911,10.6315,10.6997,10.6881,0.0,0.0,10.9509,11.07,11.159,11.2093,11.2093,11.2093,11.2093,11.2093,11.2093,11.2093,11.2991,11.33,11.3378,11.4616,11.5389,11.6008,11.6704,11.7285,11.7787,11.8097,11.8909,11.9683,11.9606,11.9799,12.0186,11.1598,11.2797,11.419,11.508,11.682,11.7594,11.6318,11.8406,12.0805,12.2584,12.5717,12.8386,13.0088,13.0194,13.0514,13.1288,12.9199,12.7806,12.769,12.6104,12.4789,12.4006,12.3087,12.181,12.0108,11.7594,11.5389,11.3494,11.0902,10.831,10.571,10.4782,10.2577,9.9367,10.1115,10.1587,10.1394,10.6299,10.9316,11.0902,11.1899,11.2797,11.3687,11.3803,11.4886,11.6318,11.7207,11.6511,11.508,11.5196,11.508,11.4809,11.4113,11.3687,11.3378,11.2488,11.2295,11.2209,11.2093,11.2093,11.2093,11.2209,11.1706,11.1211,11.1289,11.0709,11.009,10.9896,10.9316,10.8697,0.0,0.0,0.0,10.3784,0.0,0.0,0.0,10.1309,10.038,9.9568,9.929,0.0,9.929,10.0883,10.2585,10.4094,10.5092,10.5981,10.681,0.0,0.0,10.9509,11.1203,0.0,11.2093,0.0,11.2093,11.2093,11.2093,11.2209,11.2286,11.3107,11.3494,11.3687,11.5505,11.6201,11.6318,11.7904,11.8609,11.8686,11.9489,11.9915,11.9992,12.0805,12.1617,12.2313,11.4886,11.6395,11.7796,11.8677,12.0805,12.2816,12.3899,12.3396,12.3512,12.5214,12.7806,13.0088,13.1906,13.1984,13.21,13.2293,13.121,13.0204,12.9508,12.7884,12.6916,12.6684,12.5214,12.359,12.1888,11.9992,11.7517,11.4383,11.1792,10.8882,10.571,10.4782,10.2577,9.9367,10.1115,10.2585,10.3901,10.6995,10.9316,11.0894,11.2488,11.3997,11.5505,11.6318,11.7091,11.8097,11.8909,11.86,11.7787,11.86,11.7904,11.6704,11.6588,11.5505,11.419,11.3416,11.3107,11.2914,11.2286,11.2093,11.2295,11.2991,11.2991,11.3107,11.3803,11.3803,11.33,11.1899,11.1512,11.0786,10.8697,0.0,0.0,0.0,0.0,0.0,0.0,0.0,10.1309,10.0496,9.9143,9.8562,9.9251,10.0883,10.2315,10.3282,10.4782,10.5788,10.5904,0.0,0.0,0.0,11.1203,0.0,0.0,0.0,11.2093,11.2093,11.2093,11.2402,11.3107,11.3997,11.4809,11.5505,11.7207,11.799,11.7981,11.9112,11.9499,11.9606,12.0379,12.0805,12.0882,12.181,12.2197,12.2313,11.8987,11.9915,12.0805,12.2081,12.4093,12.6104,12.7806,12.8889,12.9508,12.9392,13.121,13.3222,13.4885,13.4692,13.4614,13.5078,13.3106,13.1713,13.1288,12.9199,12.8,12.8,12.6414,12.5098,12.4286,12.2197,11.9606,11.6588,11.361,11.0206,10.6299,10.4984,10.2817,9.9994,10.13,10.3016,10.5219,10.7689,0.0,11.149,11.3191,11.4997,11.6588,11.7005,11.8484,12.0379,12.0379,12.0689,12.0882,11.9992,11.8909,11.771,11.7285,11.6318,11.5002,11.3812,11.3386,11.3107,11.2286,11.2402,11.2914,11.3309,11.3687,11.4113,11.4499,11.4616,11.4383,11.361,11.2599,11.1318,10.9178,10.7701,0.0,0.0,0.0,0.0,0.0,0.0,10.2715,10.1315,10.0504,9.9994,9.9994,10.069,10.1587,10.2508,10.4094,10.5208,0.0,0.0,0.0,0.0,0.0,0.0,0.0,0.0,0.0,11.2093,11.2488,11.2914,11.3378,11.4693,11.5699,11.6588,11.7904,11.8686,11.9103,11.9992,12.0611,12.1114,12.1501,12.1694,12.1694,12.212,12.2313,12.2313,12.2816,12.3087,12.3706,12.5601,12.7187,12.8889,13.0891,13.3686,13.4885,13.3299,13.4692,13.6316,13.7593,13.7206,13.7013,13.7515,13.4885,13.3183,13.2796,13.0707,12.9315,12.9199,12.7497,12.6607,12.6414,12.3899,12.1308,0.0,11.5321,11.1607,10.7498,10.5796,10.3707,10.1386,10.1986,10.3692,0.0,0.0,11.0784,11.2885,11.4383,11.6293,11.801,11.7992,11.9801,12.2208,12.1705,12.2208,12.2904,12.1105,11.9799,11.8793,11.802,11.7091,11.6085,11.4383,11.3881,11.3687,11.2914,11.3107,11.3687,11.3803,11.4383,11.4886,11.5118,11.5196,11.5118,11.4886,11.3307,11.1391,10.9783,10.88,0.0,0.0,0.0,0.0,0.0,0.0,10.431,10.2704,10.2198,10.158,10.0891,0.0,10.1007,10.1812,10.3514,10.4782,10.571,0.0,0.0,0.0,0.0,11.1289,11.2286,0.0,11.2402,0.0,11.33,11.3687,11.3997,11.5505,11.6588,11.7517,11.8484,11.9412,12.0302,12.0998,12.1694,12.2313,12.2313,12.2313,12.2313,12.2313,12.2313,12.2313,12.5408,12.5679,12.6491,12.9005,13.0204,13.1906,13.5184,13.6587,13.6703,13.5001,13.6897,13.8482,13.8715,13.8599,13.8289,13.7593,13.651,13.5311,13.3686,13.268,13.179,13.0978,12.9315,12.8,12.7303,12.4712,12.212,0.0,0.0,11.2681,10.92,10.7498,10.5796,10.4009,10.4104,0.0,0.0,10.9784,11.2391,11.5603,11.6609,11.8397,12.0602,12.0507,12.1203,12.2217,12.2913,12.2797,12.2304,12.2894,12.212,12.0611,11.9683,11.8909,11.7787,11.6201,11.5699,11.5505,11.4616,11.4383,11.4693,11.5505,11.5699,11.6008,11.682,11.7014,11.6704,11.5892,11.3694,11.1584,11.0594,10.9687,10.9108,0.0,0.0,0.0,0.0,0.0,10.6306,10.5377,10.3312,10.1889,10.1812,10.1084,0.0,0.0,10.3514,10.4782,10.571,0.0,0.0,10.9509,0.0,11.1598,11.3184,11.3184,0.0,11.4383,11.4383,11.4886,11.5699,11.6588,11.7517,11.8415,11.9992,12.1308,12.2081,12.212,12.2197,12.2313,12.2313,12.2313,12.2313,12.2313,12.2313,12.2313,12.8116,12.8812,12.9586,13.121,13.299,13.4885,13.6703,13.8599,13.9604,13.8908,13.972,14.0494,14.0997,14.0184,13.9411,13.9101,13.7399,13.5813,13.4614,13.3183,13.21,13.121,13.0011,12.9005,12.8116,12.6607,12.4286,0.0,0.0,0.0,11.1018,10.9316,10.7614,10.5989,0.0,10.8191,10.981,11.1913,11.4288,11.6613,11.7397,11.8991,12.0894,12.0785,12.1594,12.2801,12.3187,12.3383,12.3598,12.3512,12.2411,12.0882,12.0611,11.9489,11.8213,11.7014,11.6318,11.5699,11.4809,11.5389,11.6201,11.6588,11.7401,11.8097,11.7981,11.7904,11.771,11.6898,11.5301,11.3787,11.2806,11.1879,11.1216,0.0,0.0,0.0,0.0,0.0,0.0,10.6478,0.0,10.3204,10.2701,10.1889,0.0,0.0,0.0,10.4782,10.571,0.0,0.0,10.9509,0.0,11.1598,11.33,11.3803,11.4306,11.4616,11.5118,11.5583,11.5892,11.7285,11.8716,11.9992,12.1308,12.2004,12.2313,12.2313,12.2313,12.2313,12.2313,12.2313,12.2313,12.2313,12.2313,12.2313,13.0398,13.121,13.21,13.3686,13.5504,13.709,13.8405,14.0184,14.15,14.1693,14.1809,14.2003,14.2505,14.1306,14.0494,14.0494,13.8405,13.6703,13.5813,13.4189,13.2796,13.1984,13.0901,0.0,12.9392,12.8116,12.6104,12.3396,12.0611,0.0,0.0,0.0,0.0,0.0,11.0188,11.1205,11.188,11.4105,11.6007,11.7407,11.8187,11.9422,12.0785,12.0981,12.1787,12.279,12.3098,12.3405,12.3779,12.3501,12.2498,12.1308,12.1114,12.0186,11.8996,11.7904,11.7285,11.6782,11.6008,11.6782,11.7904,11.7904,11.8793,11.9489,11.8909,11.8802,11.8513,11.7289,11.6316,11.5308,11.4186,11.3615,11.2992,11.249,0.0,0.0,0.0,0.0,0.0,10.7706,10.5716,10.421,10.3591,10.2585,0.0,0.0,0.0,10.4906,10.5989,0.0,0.0,0.0,0.0,0.0,0.0,11.4616,11.5118,11.5389,11.6008,11.6318,11.6318,11.7981,11.9683,12.1385,12.2004,12.2313,12.2313,12.2313,12.2313,12.2313,12.2313,12.2313,12.2313,12.2313,12.2313,12.2313,13.21,13.2487,13.3492,13.6897,13.7515,13.8405,14.0997,14.1422,14.1693,14.2505,14.2594,14.2594,14.2594,14.1887,14.1422,14.1422,13.9798,13.8405,13.7515,13.5891,13.4614,0.0,0.0,13.122,13.122,12.8696,12.6994,12.6104,0.0,0.0,11.7091,0.0,11.2093,11.2093,11.3705,11.4487,11.4684,11.6181,11.7386,11.8286,11.9103,11.9911,12.0788,12.148,12.1783,12.1898,12.2708,12.2515,12.2093,12.3094,12.2885,12.212,12.1308,12.0998,12.0611,11.8909,11.8996,11.9499,11.8609,11.8996,11.9683,11.9683,11.9683,11.9683,11.9683,11.9683,11.9202,11.7299,11.6207,11.529,11.4407,11.4193,11.4186,11.4297,0.0,0.0,0.0,0.0,0.0,10.9493,10.6492,10.4403,10.4403,10.2895,0.0,0.0,0.0,10.5216,10.6887,0.0,0.0,10.9393,11.0322,0.0,11.4616,11.5389,11.6318,11.7207,11.7207,11.7207,11.7207,11.8909,12.0611,12.2313,12.2313,12.2313,12.2313,12.2313,12.2313,12.2313,12.2313,12.2313,12.2313,12.2313,12.2313,12.2313,13.3183,13.4305,13.562,13.7206,13.8482,13.9798,14.119,14.1887,14.2312,14.2594,14.2594,14.2594,14.2594,14.1887,14.1422,0.0,14.0301,13.9101,0.0,13.7013,13.5813,13.3802,13.3183,13.2409,13.122,13.0398,12.9005,12.6994,0.0,0.0,0.0,11.6588,11.5612,11.5612,11.6716,11.7105,11.7222,11.761,11.8304,11.9103,11.9182,11.9795,12.0594,12.1396,12.1708,12.1812,12.3198,12.3317,12.2824,12.3819,12.3702,12.2885,12.2101,12.1501,12.0882,12.0302,11.9915,11.9606,11.9412,11.9915,12.0611,12.0611,12.0998,12.1308,12.0689,12.0108,11.9298,11.8121,11.759,11.7097,11.6216,11.6003,11.5802,11.5292,11.5003,0.0,0.0,0.0,0.0,0.0,10.6492,10.4589,0.0,10.3784,0.0,0.0,0.0,0.0,0.0,0.0,0.0,0.0,11.1482,0.0,11.4616,11.6085,11.7207,11.7981,11.7981,11.86,11.9799,12.0302,12.1192,12.2313,12.2313,12.2313,12.2313,12.2313,12.2313,12.2313,12.2313,12.2313,12.2313,12.2313,12.2313,12.2313,13.4614,13.5813,13.709,13.8289,13.9604,14.0919,14.1693,14.2312,14.2594,14.2594,14.2594,14.2594,14.2594,14.2196,0.0,14.1887,14.1113,14.0107,13.8985,13.798,13.678,13.5194,13.4189,13.3183,13.2177,0.0,0.0,12.8309,12.6491,12.4093,12.1114,11.9722,11.8909,11.8716,11.9414,11.9406,11.8788,11.9018,11.9217,11.9298,11.9488,11.9906,12.0511,12.1289,12.1612,12.1804,12.3216,12.3221,12.268,12.3688,12.3496,12.2797,12.2401,12.212,12.181,12.1192,12.0805,12.0611,12.0302,12.0805,12.1501,12.1501,12.1888,12.2197,12.1617,12.0805,12.0003,11.9396,11.872,11.8121,11.7512,11.7116,11.6682,11.6285,11.5686,11.4892,11.391,0.0,0.0,0.0,0.0,0.0,0.0,10.4519,0.0,0.0,0.0,0.0,0.0,0.0,0.0,10.9509,11.1985,0.0,11.4616,11.6318,11.7517,11.7981,11.8299,11.9296,12.0998,12.0998,12.1501,12.2313,12.2313,12.2313,12.2313,12.2313,12.2313,12.2313,12.2313,12.2313,12.2313,12.2313,12.2313,12.2313,13.6112,13.7013,13.8096,0.0,14.0803,0.0,14.2505,14.2594,14.2594,14.2594,14.2594,14.2594,14.2594,14.2594,14.2594,14.2594,0.0,0.0,0.0,13.9101,13.7593,13.7515,13.5117,13.3802,13.3686,13.21,13.0785,12.9885,12.6491,12.448,12.3696,12.2894,12.1994,12.1221,12.1899,12.1183,11.9685,12.029,12.0,11.9284,11.9992,12.0292,12.0408,12.1304,12.1612,12.1677,12.2716,12.2517,12.2014,12.2994,12.2791,12.2207,12.2305,12.2884,12.3194,12.1617,12.1694,12.2197,12.1501,12.181,12.2391,12.2507,12.2391,12.2391,12.2391,12.1694,12.1009,12.0884,11.958,11.8498,11.8305,11.7609,11.7097,11.7112,11.5699,11.4616,11.4499,0.0,0.0,0.0,0.0,0.0,0.0,10.5014,10.4906,0.0,0.0,0.0,0.0,0.0,10.8813,10.9587,11.2101,11.3803,11.4616,11.6318,11.7285,11.7401,11.8213,11.9499,12.1114,12.1114,12.1501,12.2313,12.2313,12.2313,12.2313,12.2313,12.2313,12.2313,12.2313,12.2313,12.2313,12.2313,12.2313,12.2313,0.0,0.0,13.8792,13.9914,14.0803,14.1693,14.2505,14.2594,14.2594,14.2594,14.2594,14.2594,14.2594,14.2594,14.2594,14.2594,14.2389,14.208,14.1422,14.0184,13.8908,13.7593,13.5697,13.4382,13.3686,13.268,13.1404,12.9885,12.711,12.5679,12.5485,12.4596,12.3706,12.2816,12.299,12.2415,12.1204,12.0688,12.0302,12.0108,12.0189,12.0292,12.0408,12.1304,12.1612,12.1804,12.3293,12.3305,12.2813,12.3709,12.3484,12.2984,12.3096,12.3291,12.3387,12.301,12.3087,12.3319,12.3783,12.359,12.3396,12.4015,12.3706,12.3194,12.3194,12.2584,12.1801,12.1086,12.0613,11.9994,11.8602,11.8186,11.7683,11.6386,11.5892,11.4886,11.2991,11.1396,0.0,0.0,10.6918,10.5989,10.6608,10.5912,10.5796,0.0,0.0,0.0,0.0,10.9509,11.0283,11.0515,11.2991,11.4383,11.4616,11.6318,11.7787,11.9103,11.9992,12.0882,12.2004,12.2004,12.212,12.2313,12.2313,12.2313,12.2313,12.2313,12.2313,12.2313,12.2313,12.2313,12.2313,12.2313,12.2313,12.2313,13.8018,13.9101,14.0107,14.061,14.1384,14.208,14.2505,14.2594,14.2594,14.2594,14.2594,14.2594,14.2594,14.2594,14.2594,14.2594,14.2594,14.2389,14.2003,14.0803,13.9682,13.8715,13.6316,13.4808,13.4305,13.3106,13.1597,12.9885,12.769,12.6704,12.6615,12.6113,12.5396,12.4405,12.4005,12.3291,12.2322,12.1419,12.1016,12.0908,12.0908,12.0908,12.0908,12.142,12.1612,12.1804,12.3485,12.3598,12.309,12.4486,12.4404,12.3913,12.3986,12.4286,12.4712,12.4712,12.4402,12.4209,12.4721,12.448,12.4209,12.4721,12.4402,12.4015,12.358,12.3203,12.2584,12.181,12.1308,12.0611,11.918,11.8686,11.7913,11.6201,11.5312,11.4113,11.2402,11.0709,0.0,10.8388,10.7498,10.7111,10.7498,10.7498,10.7614,10.8117,0.0,0.0,10.9393,11.0709,11.1396,11.1396,11.3494,11.4809,11.5196,11.6898,11.8406,11.9683,12.0611,12.1501,12.2313,12.2313,12.2313,12.2313,12.2313,12.2313,12.2313,12.2313,12.2313,12.2313,12.2313,12.2313,12.2313,12.2313,12.2313,12.2313,14.0107,14.0803,14.1422,14.1422,14.208,14.2594,14.2594,14.2594,14.2594,14.2594,14.2594,14.2594,14.2594,14.2594,14.2594,14.2594,14.2594,14.2594,14.2594,14.0997,14.0107,14.0107,13.6819,13.5001,13.5001,13.3183,13.151,12.9904,12.8279,12.7379,12.7199,12.7199,12.6595,12.5704,12.491,12.3891,12.2905,12.2109,12.1677,12.1612,12.1612,12.1612,12.1612,12.1677,12.1793,12.1985,12.3716,12.3914,12.3605,12.522,12.53,12.4806,12.4895,12.5514,12.6104,12.6298,12.5795,12.5185,12.5185,12.5185,12.5185,12.5185,12.5098,12.4789,12.4093,12.3696,12.331,12.2584,12.181,12.0882,11.9915,11.9103,11.799,11.6008,11.4499,11.3107,11.1899,0.0,10.8581,10.831,10.8388,10.8504,10.8697,10.9316,10.9703,10.9703,10.9896,11.0399,0.0,11.1899,11.2479,11.272,11.4113,11.5312,11.6318,11.771,11.8909,11.9915,12.0611,12.1501,12.2313,12.2313,12.2313,12.2313,12.2313,12.2313,12.2313,12.2313,12.2313,12.2313,12.2313,12.2313,12.2313,12.2313,12.2313,12.2313,14.0107,14.0803,14.1422,14.1422,14.208,14.2594,14.2594,14.2594,14.2594,14.2594,14.2594,14.2594,14.2594,14.2594,14.2594,14.2594,14.2594,14.2594,14.2594,14.0997,14.0107,14.0107,13.6819,13.5001,13.5001,13.2603,13.0899,12.9713,12.8786,12.7884,12.7004,12.7004,12.6514,12.5593,12.5493,12.4499,12.2893,12.2793,12.2293,12.1612,12.1612,12.1612,12.1689,12.2408,12.2716,12.2908,12.4601,12.5184,12.5212,12.5504,12.5698,12.5723,12.5695,12.5881,12.6182,12.6994,12.711,12.6994,12.6994,12.6994,12.6994,12.6994,12.6414,12.5911,12.5717,12.4596,12.3512,12.331,12.27,12.1617,11.9992,11.9606,11.8484,11.5312,11.4616,11.3416,11.0283,0.0,10.9896,10.8504,10.8891,10.9587,11.0322,11.0515,11.0593,11.0593,11.1985,11.2488,11.1899,11.3416,11.4499,11.5312,11.5583,11.6395,11.799,11.8299,11.918,12.0805,12.0882,12.1501,12.2313,12.2313,12.2313,12.2313,12.2313,12.2313,12.2313,12.2313,12.2313,12.2313,12.2313,12.2313,12.2313,12.2313,12.2313,12.2313,14.1384,14.1809,14.2003,14.2003,14.2389,14.2594,14.2594,14.2594,14.2594,14.2594,14.2594,14.2594,14.2594,14.2594,14.2594,14.2594,14.2594,14.2389,14.2003,14.0803,14.0107,14.0107,13.6819,13.4614,13.3686,13.2,13.0595,12.9692,12.8778,12.7881,12.6921,12.6921,12.6583,12.6197,12.5697,12.5007,12.4216,12.3716,12.3293,12.2908,12.2908,12.2908,12.2985,12.3408,12.3524,12.3678,12.4992,12.5597,12.571,12.6316,12.6599,12.6693,12.6693,12.68,12.6916,12.7303,12.7381,12.7381,12.7381,12.7381,12.7381,12.7381,12.711,12.6684,12.6182,12.5485,12.4596,12.3696,12.3194,12.2391,12.0689,11.9992,11.8909,11.6395,11.4809,0.0,0.0,11.0399,11.0012,10.9703,11.0399,11.1211,11.2101,11.2604,11.2797,11.2797,11.361,11.3881,11.3494,11.4616,11.5699,11.6588,11.7014,11.7787,11.9103,11.9606,12.0186,12.0998,12.1501,12.1888,12.2313,12.2313,12.2313,12.2313,12.2313,12.2313,12.2313,12.2313,12.2313,12.2313,12.2313,12.2313,12.2313,12.2313,12.2313,12.2313,14.2594,14.2594,14.2594,14.2594,14.2594,14.2594,14.2594,14.2594,14.2594,14.2594,14.2594,14.2594,14.2594,14.2594,14.2594,14.2594,14.2389,14.208,14.1422,14.0417,13.9798,13.9798,13.6703,13.4189,13.2487,13.1708,13.0785,12.9688,12.8984,12.7985,12.6795,12.6795,12.6698,12.669,12.5986,12.5601,12.5409,12.4716,12.4293,12.4101,12.4101,12.4101,12.4101,12.4406,12.4418,12.4583,12.579,12.6299,12.6486,12.7497,12.791,12.7884,12.769,12.769,12.7613,12.7497,12.7381,12.7381,12.7381,12.7381,12.7381,12.7381,12.7381,12.7187,12.6607,12.6182,12.5717,12.4402,12.3822,12.3,12.1617,12.0611,11.9412,11.7517,0.0,0.0,0.0,11.1405,11.0902,11.1289,11.2217,11.2991,11.3803,11.4499,11.4886,11.4886,11.5097,11.5192,11.5192,11.61,11.699,11.8094,11.8502,11.9103,11.9992,12.0689,12.1114,12.1308,12.2004,12.2313,12.2313,12.2313,12.2313,12.2313,12.2313,12.2313,12.2313,12.2313,12.2313,12.2313,12.2313,12.2313,12.2313,12.2313,12.2313,12.2313,14.2594,14.2594,14.2594,14.2594,14.2594,14.2594,14.2594,14.2594,14.2594,14.2594,14.2594,14.2594,14.2594,14.2594,14.2594,14.2594,14.1887,14.15,14.1422,13.9798,13.8908,13.8908,13.6394,13.4189,13.2487,13.2399,13.1484,12.9606,12.9491,12.8518,12.6703,12.6703,12.669,12.669,12.6601,12.6178,12.5409,12.5293,12.4793,12.4101,12.4101,12.4101,12.419,12.5116,12.5508,12.5713,12.7495,12.8195,12.8407,12.919,12.9611,12.9586,12.8812,12.8502,12.8386,12.7613,12.7381,12.7381,12.7381,12.7381,12.7381,12.7381,12.7381,12.7381,12.7303,12.6684,12.6104,12.5911,12.4596,12.3194,12.2391,12.1501,12.0108,11.7594,0.0,0.0,11.361,11.3803,11.3919,11.3184,11.3881,11.4809,11.5583,11.5815,11.5815,11.5815,11.6599,11.7106,11.7106,11.7994,11.9204,12.0793,12.0008,11.9992,12.0882,12.0998,12.1385,12.2197,12.2313,12.2313,12.2313,12.2313,12.2313,12.2313,12.2313,12.2313,12.2313,12.2313,12.2313,12.2313,12.2313,12.2313,12.2313,12.2313,12.2313,12.2313,14.2594,14.2594,14.2594,14.2594,14.2594,14.2594,14.2594,14.2594,14.2594,14.2594,14.2594,14.2594,14.2594,14.2594,14.2389,14.1887,14.1616,14.0919,13.9914,13.9217,13.8289,13.7322,13.5813,13.4421,13.3299,13.2685,13.1491,12.9705,12.959,12.8591,12.6798,12.6798,12.6686,12.669,12.669,12.6486,12.6178,12.6178,12.5986,12.5678,12.5678,12.5688,12.5797,12.6202,12.6683,12.739,12.8079,12.8811,12.9316,12.9688,12.9894,12.9808,12.9498,12.8995,12.8386,12.7613,12.7381,12.7381,12.7381,12.7381,12.7497,12.8,12.8116,12.8309,12.8812,12.8309,12.7497,12.6994,12.5911,12.4712,12.3319,12.2391,12.1287,11.988,0.0,11.77,11.6799,11.6497,11.6381,11.6613,11.6885,11.7504,11.8396,11.8387,11.8193,11.769,11.8508,11.8796,11.8291,11.9609,12.0579,12.12,12.1393,12.1603,12.181,12.181,12.2004,12.2313,12.2313,12.2313,12.2313,12.2313,12.2313,12.2313,12.2313,12.2313,12.2313,12.2313,12.2313,12.2313,12.2313,12.2313,12.2313,12.2313,12.2313,12.2313,14.2594,14.2594,14.2594,14.2594,14.2594,14.2594,14.2594,14.2594,14.2594,14.2594,14.2594,14.2594,14.2594,14.2389,14.2003,14.1422,14.0919,14.0107,13.8908,13.8482,13.7786,13.6383,13.5504,13.4614,13.3686,13.2801,13.1501,12.9692,12.9617,12.8592,12.6887,12.6887,12.6803,12.681,12.681,12.681,12.6798,12.6686,12.67,12.67,12.67,12.6798,12.6803,12.6921,12.7501,12.8399,12.8814,12.9513,13.018,13.06,13.0707,13.0707,13.0398,12.9508,12.8502,12.7884,12.7613,12.7381,12.7381,12.7381,12.7613,12.8386,12.8618,12.8802,12.9692,12.9189,12.8386,12.7884,12.6916,12.5688,12.4595,12.3714,12.2908,12.211,12.0809,11.9803,11.9602,11.8809,11.8498,11.9112,11.919,11.9415,12.0006,12.0106,11.9811,11.9182,11.9788,12.0089,11.9798,12.1087,12.1916,12.1793,12.2386,12.2612,12.2405,12.2301,12.2303,12.2313,12.2313,12.2313,12.2313,12.2313,12.2313,12.2313,12.2313,12.2313,12.2313,12.2313,12.2313,12.2313,12.2313,12.2313,12.2313,12.2313,12.2313,12.2313,14.2594,14.2594,14.2594,14.2594,14.2594,14.2594,14.2594,14.2594,14.2594,14.2594,14.2594,14.2594,14.2594,14.1887,14.1422,14.1422,13.9798,13.8792,13.8792,13.798,13.709,13.6306,13.5504,13.4614,13.3686,13.2912,13.1585,12.9692,12.9692,12.8789,12.701,12.701,12.701,12.701,12.701,12.701,12.701,12.6887,12.6791,12.6791,12.6791,12.6791,12.6787,12.7097,12.7799,12.8593,12.9584,13.0514,13.1414,13.2216,13.2487,13.2409,13.1491,13.0011,12.8618,12.8618,12.8,12.7381,12.7381,12.7381,12.7613,12.8386,12.8618,12.8802,12.9692,12.9189,12.8618,12.8618,12.7303,12.6104,12.6197,12.5488,12.4698,12.3987,12.3202,12.24,12.1618,12.0782,12.0199,12.0199,12.0199,12.0212,12.0185,12.0199,12.0199,12.0199,12.0316,12.079,12.1812,12.2596,12.2989,12.2804,12.2803,12.2689,12.2487,12.2395,12.2414,12.2313,12.2313,12.2313,12.2313,12.2313,12.2313,12.2313,12.2313,12.2313,12.2313,12.2313,12.2313,12.2313,12.2313,12.2313,12.2313,12.2313,12.2313,12.2313,14.2594,14.2594,14.2594,14.2594,14.2594,14.2594,14.2594,14.2594,14.2594,14.2594,14.2594,14.2594,14.2594,14.1887,14.119,14.0494,13.9488,13.8482,13.7902,13.7593,13.709,13.6306,13.5504,13.4614,13.3686,13.2912,13.1577,12.9806,12.9806,12.8894,12.709,12.709,12.7086,12.701,12.7589,12.7589,12.701,12.7594,12.7506,12.6878,12.6878,12.701,12.7202,12.7817,12.8701,12.9613,13.0504,13.1713,13.299,13.3299,13.3299,13.3106,13.1723,13.0785,13.0204,12.9005,12.8386,12.8087,12.7583,12.7486,12.7699,12.8396,12.8618,12.8802,12.9692,12.9189,12.8618,12.8618,12.7787,12.6914,12.6293,12.6601,12.6393,12.5198,12.5312,12.5299,12.4598,12.3705,12.3411,12.4,12.2982,12.2506,12.3082,12.2584,12.2008,12.1384,12.1402,12.2108,12.3701,12.3406,12.3519,12.3996,12.3404,12.2907,12.2811,12.2511,12.2411,12.2414,12.2312,12.2313,12.2313,12.2313,12.2313,12.2313,12.2313,12.2313,12.2313,12.2313,12.2313,12.2313,12.2313,12.2313,12.2313,12.2313,12.2313,12.2313,14.2594,14.2594,14.2594,14.2594,14.2594,14.2594,14.2594,14.2594,14.2594,14.2594,14.2594,14.2505,14.2196,14.1384,14.0494,13.9682,13.8792,13.8096,13.7515,13.7515,13.7013,13.5803,13.5311,13.4614,13.3686,13.2912,13.1597,12.9885,12.9885,12.9004,12.7281,12.759,12.7714,12.769,12.8502,12.8617,12.8182,12.868,12.8399,12.7588,12.7588,12.7388,12.7307,12.8199,12.91,13.0088,13.1288,13.2603,13.3802,13.4111,13.3995,13.3492,13.2487,13.1713,13.0978,12.9895,12.9392,12.8986,12.8201,12.7997,12.8113,12.8209,12.8491,12.8889,12.9818,12.9315,12.8695,12.8695,12.8391,12.7906,12.7508,12.8209,12.8605,12.7713,12.7501,12.7309,12.6885,12.5817,12.5205,12.5712,12.4814,12.4418,12.4914,12.4493,12.3997,12.3503,12.349,12.4012,12.5108,12.4618,12.4508,12.5012,12.4502,12.4106,12.4014,12.3806,12.3218,12.2484,12.2393,12.2291,12.2291,12.2293,12.2313,12.2313,12.2313,12.2313,12.2313,12.2313,12.2313,12.2313,12.2313,12.2313,12.2313,12.2313,12.212,12.181,14.2594,14.2594,14.2594,14.2594,14.2594,14.2594,14.2594,14.2594,14.2594,14.2594,14.2594,14.2312,14.15,14.061,13.972,13.8908,13.798,13.7515,13.7515,13.7515,13.678,13.5117,13.5001,13.4614,13.3609,13.2912,13.1713,13.0001,13.0001,12.9199,12.7613,12.8386,12.8696,12.8812,12.9586,13.0001,12.9885,12.9899,12.9394,12.8582,12.8505,12.808,12.7511,12.8385,12.9315,13.0194,13.1984,13.3106,13.3918,13.4808,13.4614,13.3918,13.3686,13.268,13.1414,13.1308,13.0601,12.9896,12.9081,12.8886,12.8707,12.8,12.8294,12.9013,12.9793,12.9405,12.8785,12.8785,12.8915,12.911,12.9214,13.0092,13.0813,13.091,12.9597,12.8586,12.859,12.7113,12.6099,12.6099,12.5982,12.5898,12.5996,12.6011,12.5909,12.5998,12.6008,12.6009,12.6117,12.5987,12.5883,12.5918,12.5889,12.5789,12.5711,12.5599,12.4618,12.2698,12.2609,12.2515,12.2381,12.2291,12.2284,12.2313,12.2313,12.2313,12.2313,12.2313,12.2313,12.2313,12.2313,12.2313,12.2313,12.2197,12.1694,12.0998,14.2594,14.2594,14.2594,14.2594,14.2594,14.2594,14.2594,14.2594,14.2594,14.2594,14.2594,14.2312,14.15,14.061,13.972,13.8908,13.798,13.7515,13.7515,13.7515,13.678,13.5117,13.5001,13.4305,13.2796,13.2603,13.1984,13.0901,13.0901,13.0398,12.9392,12.9498,12.9614,12.9702,13.0514,13.0514,12.9885,13.061,13.0406,12.9507,12.8888,12.8888,12.9314,12.9488,13.0204,13.1094,13.2796,13.3995,13.4885,13.5687,13.588,13.5504,13.4111,13.3492,13.2894,13.1619,13.1096,13.0881,13.0196,12.96,12.9105,12.9013,12.8685,12.8311,12.8285,12.8192,12.8081,12.8081,12.8819,12.9314,12.9387,13.0696,13.1686,13.1104,13.0685,13.0286,12.9715,12.8081,12.7185,12.7888,12.6795,12.6208,12.6911,12.6404,12.6014,12.6014,12.6015,12.6288,12.6991,12.6401,12.6316,12.7015,12.6281,12.5904,12.59,12.5811,12.51,12.3795,12.3606,12.3184,12.2381,12.2402,12.231,12.2313,12.2313,12.2313,12.2313,12.2313,12.2313,12.2313,12.2313,12.2313,12.2197,12.1501,12.1192,12.0805,14.2003,14.1693,14.1384,14.1384,14.1809,14.2003,14.2003,14.2389,14.2594,14.2594,14.2312,14.1693,14.0919,13.9991,13.9101,13.8289,13.7786,13.7515,13.7515,13.7515,13.6897,13.5697,13.5194,13.4382,13.3106,13.268,13.21,13.122,13.122,13.0785,12.9885,13.0321,13.0514,13.0591,13.1404,13.1597,13.121,13.1597,13.1288,13.0514,13.0011,12.9895,12.9885,13.0398,13.0785,13.1491,13.3609,13.5117,13.6316,13.6703,13.6587,13.6123,13.4692,13.3995,13.3513,13.2306,13.1908,13.1789,13.1207,13.0794,13.0316,12.9717,12.9207,12.87,12.8108,12.8013,12.808,12.8107,12.8801,12.961,13.0087,13.1284,13.2312,13.2307,13.1587,13.1011,13.0584,12.8984,12.8086,12.8515,12.7812,12.7304,12.7304,12.6484,12.6015,12.6015,12.6015,12.6211,12.6718,12.6599,12.6792,12.73,12.7208,12.7197,12.7197,12.7117,12.6601,12.5504,12.4489,12.3689,12.3211,12.2622,12.2393,12.2301,12.2293,12.2313,12.2313,12.2313,12.2313,12.2313,12.2313,12.2004,12.1617,12.1192,12.0495,11.9606,14.119,14.061,14.0107,14.0107,14.0687,14.119,14.119,14.1887,14.2312,14.2196,14.1693,14.0997,13.9991,13.9101,13.8289,13.7593,13.7515,13.7515,13.7515,13.7515,13.709,13.6112,13.5388,13.4498,13.3492,13.2796,13.21,13.1414,13.1414,13.1094,13.0398,13.1094,13.1414,13.1491,13.2177,13.2487,13.2487,13.2487,13.21,13.1414,13.1298,13.0901,13.0398,13.0978,13.1298,13.1713,13.3995,13.5891,13.7283,13.7515,13.709,13.6316,13.5311,13.4508,13.3814,13.2906,13.2584,13.2585,13.2219,13.2014,13.1585,13.0399,12.9918,12.9384,12.8708,12.841,12.8293,12.8286,12.902,12.9908,13.0718,13.1686,13.2604,13.3198,13.2108,13.1093,13.1015,12.9609,12.8593,12.8593,12.8515,12.8008,12.7187,12.6406,12.6015,12.6015,12.6015,12.6015,12.6015,12.6795,12.7301,12.7301,12.8115,12.8616,12.8616,12.8482,12.8102,12.7081,12.5284,12.4281,12.4107,12.2892,12.2416,12.242,12.2321,12.2313,12.2313,12.2313,12.2313,12.2313,12.212,12.1617,12.0998,12.0689,11.9606,11.8097,14.0301,14.0184,14.0107,14.0107,14.0184,14.0301,14.0301,14.0997,14.1306,14.0494,14.0997,14.0803,13.9179,13.8212,13.7593,13.7515,13.7515,13.7515,13.7515,13.7515,13.678,13.5184,13.5117,13.4305,13.268,13.2603,13.2409,13.2293,13.2293,13.2293,13.2216,13.2293,13.2293,13.2293,13.2409,13.2487,13.2487,13.2487,13.2409,13.2293,13.1481,13.1597,13.21,13.1404,13.1723,13.2487,13.3492,13.5001,13.6587,13.7283,13.7399,13.709,13.5504,13.4985,13.4619,13.3086,13.2782,13.301,13.3109,13.2599,13.2084,13.1997,13.0896,12.9818,12.9709,12.8988,12.8492,12.8497,12.9217,12.9898,12.9989,13.1281,13.2183,13.1601,13.1289,13.0898,13.0195,12.9218,12.8593,12.8593,12.789,12.7109,12.6289,12.6093,12.6015,12.6015,12.6015,12.6015,12.6015,12.6797,12.7304,12.7304,12.8083,12.8587,12.8587,12.8605,12.8116,12.7292,12.6108,12.5108,12.4113,12.3007,12.2487,12.242,12.2321,12.2313,12.2313,12.2313,12.2313,12.2197,12.1501,12.1114,12.0805,11.9296,11.8213,11.7285,13.9411,13.8985,13.8599,13.8599,13.9101,13.9411,13.9411,14.0107,14.0494,14.0184,13.9991,13.9682,13.8908,13.798,13.7515,13.7515,13.7515,13.7515,13.7515,13.709,13.651,13.5813,13.4808,13.3918,13.3183,13.268,13.2487,13.2487,13.2487,13.2487,13.2487,13.2487,13.2487,13.2487,13.2487,13.2487,13.2487,13.2487,13.2487,13.2487,13.21,13.2177,13.2487,13.21,13.2177,13.2603,13.3415,13.4808,13.6394,13.6703,13.709,13.7206,13.5504,13.4995,13.4803,13.3215,13.2908,13.3085,13.3298,13.3195,13.2885,13.251,13.1514,13.0505,12.9998,12.9215,12.8585,12.8585,12.89,12.9293,12.9803,13.0507,13.1015,13.1211,13.0781,13.0312,13.0,12.9101,12.8398,12.789,12.6718,12.5781,12.539,12.4883,12.4609,12.4609,12.4609,12.4804,12.5312,12.6093,12.6796,12.7303,12.8118,12.85,12.8493,12.8118,12.7588,12.7183,12.5687,12.4792,12.4192,12.3086,12.2496,12.2498,12.2301,12.2313,12.2313,12.2313,12.2004,12.1501,12.1192,12.0379,11.9412,11.8213,11.7517,11.7207]}]]